<?xml version="1.0" encoding="UTF-8" standalone="no" ?>
<gpx xmlns="http://www.topografix.com/GPX/1/1" xmlns:xsi="http://www.w3.org/2001/XMLSchema-instance" xsi:schemaLocation="http://www.topografix.com/GPX/1/1 http://www.topografix.com/GPX/1/1/gpx.xsd" version="1.1" creator="VisuGPX - https://www.visugpx.com">
  <metadata>
    <name>Col du Galibier par Le Lautaret</name>
    <desc><![CDATA[Bus jusqu au lac du Chambon puis Col du Galibier et train à St Michel de Maurienne. Températures idéales  ]]></desc>
  </metadata>
  <trk>
    <name><![CDATA[20190325150910-cS67A]]></name>
    <trkseg>
      <trkpt lat="45.04499" lon="6.13603">
        <ele>1021.03864</ele>
        <time>2018-08-15T07:08:02Z</time>
      </trkpt>
      <trkpt lat="45.04469" lon="6.13611">
        <ele>1036.0177</ele>
        <time>2018-08-15T07:08:44Z</time>
      </trkpt>
      <trkpt lat="45.04484" lon="6.13625">
        <ele>1040.1602</ele>
        <time>2018-08-15T07:08:50Z</time>
      </trkpt>
      <trkpt lat="45.045" lon="6.13647">
        <ele>1042.999</ele>
        <time>2018-08-15T07:08:55Z</time>
      </trkpt>
      <trkpt lat="45.04505" lon="6.13651">
        <ele>1043.02</ele>
        <time>2018-08-15T07:09:01Z</time>
      </trkpt>
      <trkpt lat="45.04507" lon="6.13661">
        <ele>1042.8988</ele>
        <time>2018-08-15T07:09:06Z</time>
      </trkpt>
      <trkpt lat="45.04509" lon="6.13691">
        <ele>1042.749</ele>
        <time>2018-08-15T07:09:12Z</time>
      </trkpt>
      <trkpt lat="45.04516" lon="6.13716">
        <ele>1042.1335</ele>
        <time>2018-08-15T07:09:17Z</time>
      </trkpt>
      <trkpt lat="45.04529" lon="6.13743">
        <ele>1041.4673</ele>
        <time>2018-08-15T07:09:23Z</time>
      </trkpt>
      <trkpt lat="45.0455" lon="6.13767">
        <ele>1041.069</ele>
        <time>2018-08-15T07:09:29Z</time>
      </trkpt>
      <trkpt lat="45.04572" lon="6.1378">
        <ele>1040.8708</ele>
        <time>2018-08-15T07:09:34Z</time>
      </trkpt>
      <trkpt lat="45.04597" lon="6.13789">
        <ele>1040.6074</ele>
        <time>2018-08-15T07:09:39Z</time>
      </trkpt>
      <trkpt lat="45.04629" lon="6.13795">
        <ele>1040.724</ele>
        <time>2018-08-15T07:09:45Z</time>
      </trkpt>
      <trkpt lat="45.04663" lon="6.138">
        <ele>1040.84</ele>
        <time>2018-08-15T07:09:51Z</time>
      </trkpt>
      <trkpt lat="45.04691" lon="6.13806">
        <ele>1040.5759</ele>
        <time>2018-08-15T07:09:56Z</time>
      </trkpt>
      <trkpt lat="45.04706" lon="6.13843">
        <ele>1040.537</ele>
        <time>2018-08-15T07:10:02Z</time>
      </trkpt>
      <trkpt lat="45.04708" lon="6.13879">
        <ele>1040.6241</ele>
        <time>2018-08-15T07:10:08Z</time>
      </trkpt>
      <trkpt lat="45.04715" lon="6.13903">
        <ele>1040.7118</ele>
        <time>2018-08-15T07:10:13Z</time>
      </trkpt>
      <trkpt lat="45.04725" lon="6.13926">
        <ele>1041.0087</ele>
        <time>2018-08-15T07:10:19Z</time>
      </trkpt>
      <trkpt lat="45.0473" lon="6.13944">
        <ele>1041.5027</ele>
        <time>2018-08-15T07:10:24Z</time>
      </trkpt>
      <trkpt lat="45.04738" lon="6.13969">
        <ele>1042.2416</ele>
        <time>2018-08-15T07:10:30Z</time>
      </trkpt>
      <trkpt lat="45.04741" lon="6.13993">
        <ele>1043.1573</ele>
        <time>2018-08-15T07:10:36Z</time>
      </trkpt>
      <trkpt lat="45.04742" lon="6.14013">
        <ele>1043.9543</ele>
        <time>2018-08-15T07:10:41Z</time>
      </trkpt>
      <trkpt lat="45.04745" lon="6.14033">
        <ele>1044.7062</ele>
        <time>2018-08-15T07:10:46Z</time>
      </trkpt>
      <trkpt lat="45.04748" lon="6.14057">
        <ele>1045.5452</ele>
        <time>2018-08-15T07:10:52Z</time>
      </trkpt>
      <trkpt lat="45.04751" lon="6.14077">
        <ele>1046.0231</ele>
        <time>2018-08-15T07:10:57Z</time>
      </trkpt>
      <trkpt lat="45.04754" lon="6.14102">
        <ele>1046.4907</ele>
        <time>2018-08-15T07:11:03Z</time>
      </trkpt>
      <trkpt lat="45.04755" lon="6.14128">
        <ele>1046.9287</ele>
        <time>2018-08-15T07:11:09Z</time>
      </trkpt>
      <trkpt lat="45.04757" lon="6.14155">
        <ele>1047.287</ele>
        <time>2018-08-15T07:11:15Z</time>
      </trkpt>
      <trkpt lat="45.04761" lon="6.14178">
        <ele>1047.5533</ele>
        <time>2018-08-15T07:11:20Z</time>
      </trkpt>
      <trkpt lat="45.04769" lon="6.14207">
        <ele>1048.927</ele>
        <time>2018-08-15T07:11:26Z</time>
      </trkpt>
      <trkpt lat="45.04778" lon="6.14235">
        <ele>1049.4934</ele>
        <time>2018-08-15T07:11:32Z</time>
      </trkpt>
      <trkpt lat="45.04784" lon="6.14259">
        <ele>1050.9999</ele>
        <time>2018-08-15T07:11:37Z</time>
      </trkpt>
      <trkpt lat="45.04787" lon="6.14285">
        <ele>1051.4476</ele>
        <time>2018-08-15T07:11:42Z</time>
      </trkpt>
      <trkpt lat="45.04788" lon="6.14315">
        <ele>1052.6016</ele>
        <time>2018-08-15T07:11:48Z</time>
      </trkpt>
      <trkpt lat="45.04789" lon="6.14339">
        <ele>1053.0052</ele>
        <time>2018-08-15T07:11:53Z</time>
      </trkpt>
      <trkpt lat="45.04787" lon="6.14365">
        <ele>1053.3943</ele>
        <time>2018-08-15T07:11:59Z</time>
      </trkpt>
      <trkpt lat="45.04508" lon="6.15621">
        <ele>1059.9</ele>
        <time>2018-08-15T07:14:44Z</time>
      </trkpt>
      <trkpt lat="45.04486" lon="6.15643">
        <ele>1070.3287</ele>
        <time>2018-08-15T07:14:52Z</time>
      </trkpt>
      <trkpt lat="45.04472" lon="6.1564">
        <ele>1070.5061</ele>
        <time>2018-08-15T07:14:57Z</time>
      </trkpt>
      <trkpt lat="45.04453" lon="6.15635">
        <ele>1069.6659</ele>
        <time>2018-08-15T07:15:03Z</time>
      </trkpt>
      <trkpt lat="45.04437" lon="6.15641">
        <ele>1069.0273</ele>
        <time>2018-08-15T07:15:08Z</time>
      </trkpt>
      <trkpt lat="45.04426" lon="6.15658">
        <ele>1068.6614</ele>
        <time>2018-08-15T07:15:13Z</time>
      </trkpt>
      <trkpt lat="45.04422" lon="6.15689">
        <ele>1067.2335</ele>
        <time>2018-08-15T07:15:19Z</time>
      </trkpt>
      <trkpt lat="45.04418" lon="6.15714">
        <ele>1066.7997</ele>
        <time>2018-08-15T07:15:24Z</time>
      </trkpt>
      <trkpt lat="45.04413" lon="6.15738">
        <ele>1066.2662</ele>
        <time>2018-08-15T07:15:29Z</time>
      </trkpt>
      <trkpt lat="45.04407" lon="6.15762">
        <ele>1065.4951</ele>
        <time>2018-08-15T07:15:34Z</time>
      </trkpt>
      <trkpt lat="45.04402" lon="6.15793">
        <ele>1059.2449</ele>
        <time>2018-08-15T07:15:39Z</time>
      </trkpt>
      <trkpt lat="45.04388" lon="6.15854">
        <ele>1060.2578</ele>
        <time>2018-08-15T07:15:45Z</time>
      </trkpt>
      <trkpt lat="45.04377" lon="6.15899">
        <ele>1063.8932</ele>
        <time>2018-08-15T07:15:50Z</time>
      </trkpt>
      <trkpt lat="45.04374" lon="6.15906">
        <ele>1064.5548</ele>
        <time>2018-08-15T07:16:14Z</time>
      </trkpt>
      <trkpt lat="45.04374" lon="6.15936">
        <ele>1066.8889</ele>
        <time>2018-08-15T07:16:20Z</time>
      </trkpt>
      <trkpt lat="45.04376" lon="6.15991">
        <ele>1064.3779</ele>
        <time>2018-08-15T07:16:26Z</time>
      </trkpt>
      <trkpt lat="45.04374" lon="6.16064">
        <ele>1061.5249</ele>
        <time>2018-08-15T07:16:32Z</time>
      </trkpt>
      <trkpt lat="45.04397" lon="6.16134">
        <ele>1059.9078</ele>
        <time>2018-08-15T07:16:38Z</time>
      </trkpt>
      <trkpt lat="45.04423" lon="6.16201">
        <ele>1058.689</ele>
        <time>2018-08-15T07:16:44Z</time>
      </trkpt>
      <trkpt lat="45.04397" lon="6.16259">
        <ele>1057.28</ele>
        <time>2018-08-15T07:16:50Z</time>
      </trkpt>
      <trkpt lat="45.04386" lon="6.16304">
        <ele>1056.8687</ele>
        <time>2018-08-15T07:16:55Z</time>
      </trkpt>
      <trkpt lat="45.04373" lon="6.1635">
        <ele>1057.254</ele>
        <time>2018-08-15T07:17:00Z</time>
      </trkpt>
      <trkpt lat="45.04359" lon="6.16404">
        <ele>1059.3276</ele>
        <time>2018-08-15T07:17:06Z</time>
      </trkpt>
      <trkpt lat="45.04347" lon="6.16447">
        <ele>1061.0114</ele>
        <time>2018-08-15T07:17:11Z</time>
      </trkpt>
      <trkpt lat="45.04336" lon="6.16482">
        <ele>1062.4413</ele>
        <time>2018-08-15T07:17:16Z</time>
      </trkpt>
      <trkpt lat="45.04323" lon="6.16518">
        <ele>1064.511</ele>
        <time>2018-08-15T07:17:22Z</time>
      </trkpt>
      <trkpt lat="45.04312" lon="6.16554">
        <ele>1066.9612</ele>
        <time>2018-08-15T07:17:28Z</time>
      </trkpt>
      <trkpt lat="45.04301" lon="6.16597">
        <ele>1068.6567</ele>
        <time>2018-08-15T07:17:34Z</time>
      </trkpt>
      <trkpt lat="45.04289" lon="6.16641">
        <ele>1066.3362</ele>
        <time>2018-08-15T07:17:40Z</time>
      </trkpt>
      <trkpt lat="45.04274" lon="6.16691">
        <ele>1059.9246</ele>
        <time>2018-08-15T07:17:46Z</time>
      </trkpt>
      <trkpt lat="45.04267" lon="6.16739">
        <ele>1056.308</ele>
        <time>2018-08-15T07:17:51Z</time>
      </trkpt>
      <trkpt lat="45.04264" lon="6.16803">
        <ele>1057.4358</ele>
        <time>2018-08-15T07:17:57Z</time>
      </trkpt>
      <trkpt lat="45.04267" lon="6.16857">
        <ele>1058.9675</ele>
        <time>2018-08-15T07:18:02Z</time>
      </trkpt>
      <trkpt lat="45.04262" lon="6.16914">
        <ele>1060.9048</ele>
        <time>2018-08-15T07:18:08Z</time>
      </trkpt>
      <trkpt lat="45.04234" lon="6.16953">
        <ele>1062.0602</ele>
        <time>2018-08-15T07:18:14Z</time>
      </trkpt>
      <trkpt lat="45.04205" lon="6.16993">
        <ele>1062.2712</ele>
        <time>2018-08-15T07:18:20Z</time>
      </trkpt>
      <trkpt lat="45.04175" lon="6.17035">
        <ele>1062.2969</ele>
        <time>2018-08-15T07:18:26Z</time>
      </trkpt>
      <trkpt lat="45.04156" lon="6.17098">
        <ele>1061.1727</ele>
        <time>2018-08-15T07:18:32Z</time>
      </trkpt>
      <trkpt lat="45.04142" lon="6.1717">
        <ele>1058.9993</ele>
        <time>2018-08-15T07:18:38Z</time>
      </trkpt>
      <trkpt lat="45.04116" lon="6.17243">
        <ele>1054.4957</ele>
        <time>2018-08-15T07:18:44Z</time>
      </trkpt>
      <trkpt lat="45.04085" lon="6.17307">
        <ele>1049.8622</ele>
        <time>2018-08-15T07:18:49Z</time>
      </trkpt>
      <trkpt lat="45.04048" lon="6.17385">
        <ele>1046.7094</ele>
        <time>2018-08-15T07:18:55Z</time>
      </trkpt>
      <trkpt lat="45.04021" lon="6.17499">
        <ele>1047.2853</ele>
        <time>2018-08-15T07:19:05Z</time>
      </trkpt>
      <trkpt lat="45.04005" lon="6.17512">
        <ele>1049.8082</ele>
        <time>2018-08-15T07:19:11Z</time>
      </trkpt>
      <trkpt lat="45.04004" lon="6.17536">
        <ele>1051.4155</ele>
        <time>2018-08-15T07:19:16Z</time>
      </trkpt>
      <trkpt lat="45.04" lon="6.17561">
        <ele>1052.2164</ele>
        <time>2018-08-15T07:19:22Z</time>
      </trkpt>
      <trkpt lat="45.03989" lon="6.1759">
        <ele>1054.4539</ele>
        <time>2018-08-15T07:19:29Z</time>
      </trkpt>
      <trkpt lat="45.0398" lon="6.17611">
        <ele>1055.0597</ele>
        <time>2018-08-15T07:19:34Z</time>
      </trkpt>
      <trkpt lat="45.03967" lon="6.17636">
        <ele>1055.7325</ele>
        <time>2018-08-15T07:19:40Z</time>
      </trkpt>
      <trkpt lat="45.03953" lon="6.17664">
        <ele>1056.6118</ele>
        <time>2018-08-15T07:19:46Z</time>
      </trkpt>
      <trkpt lat="45.03943" lon="6.17687">
        <ele>1057.2281</ele>
        <time>2018-08-15T07:19:52Z</time>
      </trkpt>
      <trkpt lat="45.03929" lon="6.17712">
        <ele>1057.9812</ele>
        <time>2018-08-15T07:19:58Z</time>
      </trkpt>
      <trkpt lat="45.0392" lon="6.17736">
        <ele>1059.1075</ele>
        <time>2018-08-15T07:20:04Z</time>
      </trkpt>
      <trkpt lat="45.03916" lon="6.1776">
        <ele>1060.4052</ele>
        <time>2018-08-15T07:20:10Z</time>
      </trkpt>
      <trkpt lat="45.03913" lon="6.17784">
        <ele>1061.6111</ele>
        <time>2018-08-15T07:20:15Z</time>
      </trkpt>
      <trkpt lat="45.03914" lon="6.17805">
        <ele>1062.9053</ele>
        <time>2018-08-15T07:20:20Z</time>
      </trkpt>
      <trkpt lat="45.03918" lon="6.17825">
        <ele>1064.016</ele>
        <time>2018-08-15T07:20:25Z</time>
      </trkpt>
      <trkpt lat="45.03925" lon="6.17848">
        <ele>1065.1498</ele>
        <time>2018-08-15T07:20:31Z</time>
      </trkpt>
      <trkpt lat="45.0393" lon="6.17869">
        <ele>1066.0131</ele>
        <time>2018-08-15T07:20:36Z</time>
      </trkpt>
      <trkpt lat="45.03931" lon="6.17889">
        <ele>1066.8997</ele>
        <time>2018-08-15T07:20:41Z</time>
      </trkpt>
      <trkpt lat="45.03929" lon="6.17913">
        <ele>1068.0575</ele>
        <time>2018-08-15T07:20:47Z</time>
      </trkpt>
      <trkpt lat="45.03926" lon="6.17937">
        <ele>1069.1848</ele>
        <time>2018-08-15T07:20:53Z</time>
      </trkpt>
      <trkpt lat="45.03925" lon="6.17958">
        <ele>1070.164</ele>
        <time>2018-08-15T07:20:58Z</time>
      </trkpt>
      <trkpt lat="45.03927" lon="6.17984">
        <ele>1071.2456</ele>
        <time>2018-08-15T07:21:04Z</time>
      </trkpt>
      <trkpt lat="45.03928" lon="6.18012">
        <ele>1072.2952</ele>
        <time>2018-08-15T07:21:10Z</time>
      </trkpt>
      <trkpt lat="45.03924" lon="6.18038">
        <ele>1073.279</ele>
        <time>2018-08-15T07:21:16Z</time>
      </trkpt>
      <trkpt lat="45.0392" lon="6.18065">
        <ele>1074.0503</ele>
        <time>2018-08-15T07:21:22Z</time>
      </trkpt>
      <trkpt lat="45.03915" lon="6.18093">
        <ele>1074.7677</ele>
        <time>2018-08-15T07:21:28Z</time>
      </trkpt>
      <trkpt lat="45.03914" lon="6.18119">
        <ele>1075.1914</ele>
        <time>2018-08-15T07:21:34Z</time>
      </trkpt>
      <trkpt lat="45.03916" lon="6.18147">
        <ele>1075.7964</ele>
        <time>2018-08-15T07:21:40Z</time>
      </trkpt>
      <trkpt lat="45.0392" lon="6.18174">
        <ele>1079.3787</ele>
        <time>2018-08-15T07:21:45Z</time>
      </trkpt>
      <trkpt lat="45.03923" lon="6.18201">
        <ele>1081.2289</ele>
        <time>2018-08-15T07:21:50Z</time>
      </trkpt>
      <trkpt lat="45.03923" lon="6.18231">
        <ele>1081.3861</ele>
        <time>2018-08-15T07:21:56Z</time>
      </trkpt>
      <trkpt lat="45.03921" lon="6.18263">
        <ele>1081.377</ele>
        <time>2018-08-15T07:22:02Z</time>
      </trkpt>
      <trkpt lat="45.03917" lon="6.18288">
        <ele>1081.2498</ele>
        <time>2018-08-15T07:22:07Z</time>
      </trkpt>
      <trkpt lat="45.03909" lon="6.18318">
        <ele>1081.8752</ele>
        <time>2018-08-15T07:22:13Z</time>
      </trkpt>
      <trkpt lat="45.03905" lon="6.18346">
        <ele>1083.099</ele>
        <time>2018-08-15T07:22:19Z</time>
      </trkpt>
      <trkpt lat="45.03904" lon="6.18375">
        <ele>1084.459</ele>
        <time>2018-08-15T07:22:24Z</time>
      </trkpt>
      <trkpt lat="45.03897" lon="6.18408">
        <ele>1083.3309</ele>
        <time>2018-08-15T07:22:30Z</time>
      </trkpt>
      <trkpt lat="45.03887" lon="6.18446">
        <ele>1084.1299</ele>
        <time>2018-08-15T07:22:36Z</time>
      </trkpt>
      <trkpt lat="45.03887" lon="6.18483">
        <ele>1088.1558</ele>
        <time>2018-08-15T07:22:41Z</time>
      </trkpt>
      <trkpt lat="45.03891" lon="6.18527">
        <ele>1091.5432</ele>
        <time>2018-08-15T07:22:47Z</time>
      </trkpt>
      <trkpt lat="45.03894" lon="6.18573">
        <ele>1092.9557</ele>
        <time>2018-08-15T07:22:53Z</time>
      </trkpt>
      <trkpt lat="45.03899" lon="6.18618">
        <ele>1093.2252</ele>
        <time>2018-08-15T07:22:59Z</time>
      </trkpt>
      <trkpt lat="45.03906" lon="6.18666">
        <ele>1093.08</ele>
        <time>2018-08-15T07:23:05Z</time>
      </trkpt>
      <trkpt lat="45.03922" lon="6.18707">
        <ele>1092.2308</ele>
        <time>2018-08-15T07:23:11Z</time>
      </trkpt>
      <trkpt lat="45.03927" lon="6.18756">
        <ele>1090.5046</ele>
        <time>2018-08-15T07:23:17Z</time>
      </trkpt>
      <trkpt lat="45.03928" lon="6.18803">
        <ele>1089.8364</ele>
        <time>2018-08-15T07:23:23Z</time>
      </trkpt>
      <trkpt lat="45.03924" lon="6.18842">
        <ele>1091.1635</ele>
        <time>2018-08-15T07:23:28Z</time>
      </trkpt>
      <trkpt lat="45.03911" lon="6.18886">
        <ele>1091.2922</ele>
        <time>2018-08-15T07:23:34Z</time>
      </trkpt>
      <trkpt lat="45.03898" lon="6.18923">
        <ele>1090.4215</ele>
        <time>2018-08-15T07:23:39Z</time>
      </trkpt>
      <trkpt lat="45.03885" lon="6.18958">
        <ele>1090.4446</ele>
        <time>2018-08-15T07:23:44Z</time>
      </trkpt>
      <trkpt lat="45.03867" lon="6.18999">
        <ele>1090.3145</ele>
        <time>2018-08-15T07:23:50Z</time>
      </trkpt>
      <trkpt lat="45.03845" lon="6.1903">
        <ele>1091.9849</ele>
        <time>2018-08-15T07:23:55Z</time>
      </trkpt>
      <trkpt lat="45.03838" lon="6.19072">
        <ele>1090.9683</ele>
        <time>2018-08-15T07:24:01Z</time>
      </trkpt>
      <trkpt lat="45.03833" lon="6.19111">
        <ele>1088.2135</ele>
        <time>2018-08-15T07:24:06Z</time>
      </trkpt>
      <trkpt lat="45.03826" lon="6.19158">
        <ele>1090.4265</ele>
        <time>2018-08-15T07:24:12Z</time>
      </trkpt>
      <trkpt lat="45.0382" lon="6.19202">
        <ele>1092.678</ele>
        <time>2018-08-15T07:24:18Z</time>
      </trkpt>
      <trkpt lat="45.03817" lon="6.19233">
        <ele>1093.0266</ele>
        <time>2018-08-15T07:24:23Z</time>
      </trkpt>
      <trkpt lat="45.03814" lon="6.19265">
        <ele>1091.4141</ele>
        <time>2018-08-15T07:24:28Z</time>
      </trkpt>
      <trkpt lat="45.03808" lon="6.19305">
        <ele>1092.2515</ele>
        <time>2018-08-15T07:24:34Z</time>
      </trkpt>
      <trkpt lat="45.03799" lon="6.1934">
        <ele>1093.7644</ele>
        <time>2018-08-15T07:24:40Z</time>
      </trkpt>
      <trkpt lat="45.0379" lon="6.19365">
        <ele>1094.5955</ele>
        <time>2018-08-15T07:24:45Z</time>
      </trkpt>
      <trkpt lat="45.03777" lon="6.19394">
        <ele>1094.7407</ele>
        <time>2018-08-15T07:24:51Z</time>
      </trkpt>
      <trkpt lat="45.03766" lon="6.19416">
        <ele>1095.1461</ele>
        <time>2018-08-15T07:24:56Z</time>
      </trkpt>
      <trkpt lat="45.03753" lon="6.19443">
        <ele>1096.9985</ele>
        <time>2018-08-15T07:25:02Z</time>
      </trkpt>
      <trkpt lat="45.03739" lon="6.19474">
        <ele>1101.1967</ele>
        <time>2018-08-15T07:25:08Z</time>
      </trkpt>
      <trkpt lat="45.03728" lon="6.19499">
        <ele>1104.321</ele>
        <time>2018-08-15T07:25:13Z</time>
      </trkpt>
      <trkpt lat="45.03723" lon="6.19538">
        <ele>1103.96</ele>
        <time>2018-08-15T07:25:19Z</time>
      </trkpt>
      <trkpt lat="45.03724" lon="6.19579">
        <ele>1102.8689</ele>
        <time>2018-08-15T07:25:24Z</time>
      </trkpt>
      <trkpt lat="45.03729" lon="6.19625">
        <ele>1101.9348</ele>
        <time>2018-08-15T07:25:30Z</time>
      </trkpt>
      <trkpt lat="45.03734" lon="6.19671">
        <ele>1101.445</ele>
        <time>2018-08-15T07:25:36Z</time>
      </trkpt>
      <trkpt lat="45.03738" lon="6.19716">
        <ele>1101.4576</ele>
        <time>2018-08-15T07:25:42Z</time>
      </trkpt>
      <trkpt lat="45.03743" lon="6.19759">
        <ele>1101.7334</ele>
        <time>2018-08-15T07:25:48Z</time>
      </trkpt>
      <trkpt lat="45.03748" lon="6.19801">
        <ele>1101.6189</ele>
        <time>2018-08-15T07:25:54Z</time>
      </trkpt>
      <trkpt lat="45.03753" lon="6.19843">
        <ele>1100.6047</ele>
        <time>2018-08-15T07:26:00Z</time>
      </trkpt>
      <trkpt lat="45.03756" lon="6.19886">
        <ele>1099.9276</ele>
        <time>2018-08-15T07:26:06Z</time>
      </trkpt>
      <trkpt lat="45.0376" lon="6.19929">
        <ele>1099.4315</ele>
        <time>2018-08-15T07:26:12Z</time>
      </trkpt>
      <trkpt lat="45.03764" lon="6.19974">
        <ele>1099.5571</ele>
        <time>2018-08-15T07:26:18Z</time>
      </trkpt>
      <trkpt lat="45.03768" lon="6.20017">
        <ele>1100.6008</ele>
        <time>2018-08-15T07:26:24Z</time>
      </trkpt>
      <trkpt lat="45.03771" lon="6.20061">
        <ele>1102.4597</ele>
        <time>2018-08-15T07:26:30Z</time>
      </trkpt>
      <trkpt lat="45.03772" lon="6.20097">
        <ele>1104.2035</ele>
        <time>2018-08-15T07:26:35Z</time>
      </trkpt>
      <trkpt lat="45.03772" lon="6.20139">
        <ele>1105.2979</ele>
        <time>2018-08-15T07:26:41Z</time>
      </trkpt>
      <trkpt lat="45.03772" lon="6.20175">
        <ele>1105.8955</ele>
        <time>2018-08-15T07:26:46Z</time>
      </trkpt>
      <trkpt lat="45.0377" lon="6.20218">
        <ele>1105.509</ele>
        <time>2018-08-15T07:26:52Z</time>
      </trkpt>
      <trkpt lat="45.0377" lon="6.20259">
        <ele>1103.414</ele>
        <time>2018-08-15T07:26:57Z</time>
      </trkpt>
      <trkpt lat="45.03769" lon="6.20296">
        <ele>1100.787</ele>
        <time>2018-08-15T07:27:02Z</time>
      </trkpt>
      <trkpt lat="45.03768" lon="6.20338">
        <ele>1100.3171</ele>
        <time>2018-08-15T07:27:08Z</time>
      </trkpt>
      <trkpt lat="45.03768" lon="6.20376">
        <ele>1101.9478</ele>
        <time>2018-08-15T07:27:14Z</time>
      </trkpt>
      <trkpt lat="45.03767" lon="6.2042">
        <ele>1104.5856</ele>
        <time>2018-08-15T07:27:20Z</time>
      </trkpt>
      <trkpt lat="45.0377" lon="6.20456">
        <ele>1106.4132</ele>
        <time>2018-08-15T07:27:25Z</time>
      </trkpt>
      <trkpt lat="45.03774" lon="6.20491">
        <ele>1108.489</ele>
        <time>2018-08-15T07:27:30Z</time>
      </trkpt>
      <trkpt lat="45.0378" lon="6.20533">
        <ele>1110.4645</ele>
        <time>2018-08-15T07:27:36Z</time>
      </trkpt>
      <trkpt lat="45.03787" lon="6.20575">
        <ele>1111.9888</ele>
        <time>2018-08-15T07:27:42Z</time>
      </trkpt>
      <trkpt lat="45.03792" lon="6.2061">
        <ele>1113.1433</ele>
        <time>2018-08-15T07:27:47Z</time>
      </trkpt>
      <trkpt lat="45.03797" lon="6.20645">
        <ele>1113.8123</ele>
        <time>2018-08-15T07:27:52Z</time>
      </trkpt>
      <trkpt lat="45.03804" lon="6.20686">
        <ele>1114.2352</ele>
        <time>2018-08-15T07:27:58Z</time>
      </trkpt>
      <trkpt lat="45.0381" lon="6.20726">
        <ele>1114.6824</ele>
        <time>2018-08-15T07:28:04Z</time>
      </trkpt>
      <trkpt lat="45.03815" lon="6.20766">
        <ele>1116.0476</ele>
        <time>2018-08-15T07:28:10Z</time>
      </trkpt>
      <trkpt lat="45.03822" lon="6.20807">
        <ele>1116.417</ele>
        <time>2018-08-15T07:28:16Z</time>
      </trkpt>
      <trkpt lat="45.03829" lon="6.20849">
        <ele>1116.3391</ele>
        <time>2018-08-15T07:28:22Z</time>
      </trkpt>
      <trkpt lat="45.03835" lon="6.20885">
        <ele>1116.152</ele>
        <time>2018-08-15T07:28:27Z</time>
      </trkpt>
      <trkpt lat="45.03842" lon="6.20923">
        <ele>1116.305</ele>
        <time>2018-08-15T07:28:32Z</time>
      </trkpt>
      <trkpt lat="45.03846" lon="6.2097">
        <ele>1116.5679</ele>
        <time>2018-08-15T07:28:38Z</time>
      </trkpt>
      <trkpt lat="45.03843" lon="6.21018">
        <ele>1117.7285</ele>
        <time>2018-08-15T07:28:44Z</time>
      </trkpt>
      <trkpt lat="45.03839" lon="6.2106">
        <ele>1118.9401</ele>
        <time>2018-08-15T07:28:50Z</time>
      </trkpt>
      <trkpt lat="45.03834" lon="6.21101">
        <ele>1120.2985</ele>
        <time>2018-08-15T07:28:56Z</time>
      </trkpt>
      <trkpt lat="45.0383" lon="6.21129">
        <ele>1120.1396</ele>
        <time>2018-08-15T07:29:01Z</time>
      </trkpt>
      <trkpt lat="45.03825" lon="6.21171">
        <ele>1119.8042</ele>
        <time>2018-08-15T07:29:07Z</time>
      </trkpt>
      <trkpt lat="45.03819" lon="6.2121">
        <ele>1122.925</ele>
        <time>2018-08-15T07:29:13Z</time>
      </trkpt>
      <trkpt lat="45.03811" lon="6.21241">
        <ele>1123.605</ele>
        <time>2018-08-15T07:29:19Z</time>
      </trkpt>
      <trkpt lat="45.03803" lon="6.21269">
        <ele>1122.3473</ele>
        <time>2018-08-15T07:29:25Z</time>
      </trkpt>
      <trkpt lat="45.03795" lon="6.21294">
        <ele>1116.5859</ele>
        <time>2018-08-15T07:29:30Z</time>
      </trkpt>
      <trkpt lat="45.03784" lon="6.21326">
        <ele>1103.4944</ele>
        <time>2018-08-15T07:29:36Z</time>
      </trkpt>
      <trkpt lat="45.03773" lon="6.2136">
        <ele>1088.2334</ele>
        <time>2018-08-15T07:29:42Z</time>
      </trkpt>
      <trkpt lat="45.03762" lon="6.21389">
        <ele>1085.4138</ele>
        <time>2018-08-15T07:29:48Z</time>
      </trkpt>
      <trkpt lat="45.03754" lon="6.21414">
        <ele>1082.3832</ele>
        <time>2018-08-15T07:29:53Z</time>
      </trkpt>
      <trkpt lat="45.03744" lon="6.21444">
        <ele>1078.4158</ele>
        <time>2018-08-15T07:29:59Z</time>
      </trkpt>
      <trkpt lat="45.03733" lon="6.2147">
        <ele>1074.8508</ele>
        <time>2018-08-15T07:30:05Z</time>
      </trkpt>
      <trkpt lat="45.03723" lon="6.21496">
        <ele>1071.8308</ele>
        <time>2018-08-15T07:30:11Z</time>
      </trkpt>
      <trkpt lat="45.03711" lon="6.21521">
        <ele>1069.5111</ele>
        <time>2018-08-15T07:30:17Z</time>
      </trkpt>
      <trkpt lat="45.03697" lon="6.21541">
        <ele>1067.8563</ele>
        <time>2018-08-15T07:30:23Z</time>
      </trkpt>
      <trkpt lat="45.03681" lon="6.21556">
        <ele>1066.9039</ele>
        <time>2018-08-15T07:30:29Z</time>
      </trkpt>
      <trkpt lat="45.03668" lon="6.21568">
        <ele>1066.7522</ele>
        <time>2018-08-15T07:30:34Z</time>
      </trkpt>
      <trkpt lat="45.03655" lon="6.21579">
        <ele>1067.1394</ele>
        <time>2018-08-15T07:30:39Z</time>
      </trkpt>
      <trkpt lat="45.03644" lon="6.21597">
        <ele>1067.9364</ele>
        <time>2018-08-15T07:30:45Z</time>
      </trkpt>
      <trkpt lat="45.03635" lon="6.21619">
        <ele>1068.7411</ele>
        <time>2018-08-15T07:30:51Z</time>
      </trkpt>
      <trkpt lat="45.03626" lon="6.21642">
        <ele>1069.473</ele>
        <time>2018-08-15T07:30:57Z</time>
      </trkpt>
      <trkpt lat="45.0362" lon="6.2166">
        <ele>1070.0928</ele>
        <time>2018-08-15T07:31:02Z</time>
      </trkpt>
      <trkpt lat="45.03614" lon="6.21681">
        <ele>1070.9266</ele>
        <time>2018-08-15T07:31:08Z</time>
      </trkpt>
      <trkpt lat="45.03611" lon="6.21703">
        <ele>1072.1469</ele>
        <time>2018-08-15T07:31:13Z</time>
      </trkpt>
      <trkpt lat="45.03609" lon="6.21726">
        <ele>1074.169</ele>
        <time>2018-08-15T07:31:19Z</time>
      </trkpt>
      <trkpt lat="45.03606" lon="6.21749">
        <ele>1076.1084</ele>
        <time>2018-08-15T07:31:25Z</time>
      </trkpt>
      <trkpt lat="45.03603" lon="6.21773">
        <ele>1077.6523</ele>
        <time>2018-08-15T07:31:31Z</time>
      </trkpt>
      <trkpt lat="45.03599" lon="6.21795">
        <ele>1079.2</ele>
        <time>2018-08-15T07:31:36Z</time>
      </trkpt>
      <trkpt lat="45.03595" lon="6.21819">
        <ele>1081.1377</ele>
        <time>2018-08-15T07:31:42Z</time>
      </trkpt>
      <trkpt lat="45.03594" lon="6.21837">
        <ele>1082.5013</ele>
        <time>2018-08-15T07:31:47Z</time>
      </trkpt>
      <trkpt lat="45.03597" lon="6.21859">
        <ele>1083.9086</ele>
        <time>2018-08-15T07:31:53Z</time>
      </trkpt>
      <trkpt lat="45.036" lon="6.21883">
        <ele>1085.2803</ele>
        <time>2018-08-15T07:31:59Z</time>
      </trkpt>
      <trkpt lat="45.03603" lon="6.21908">
        <ele>1087.1066</ele>
        <time>2018-08-15T07:32:05Z</time>
      </trkpt>
      <trkpt lat="45.03606" lon="6.21931">
        <ele>1089.3492</ele>
        <time>2018-08-15T07:32:11Z</time>
      </trkpt>
      <trkpt lat="45.03603" lon="6.2196">
        <ele>1092.9147</ele>
        <time>2018-08-15T07:32:16Z</time>
      </trkpt>
      <trkpt lat="45.03606" lon="6.21984">
        <ele>1098.3645</ele>
        <time>2018-08-15T07:32:22Z</time>
      </trkpt>
      <trkpt lat="45.03612" lon="6.22002">
        <ele>1103.0433</ele>
        <time>2018-08-15T07:32:27Z</time>
      </trkpt>
      <trkpt lat="45.03622" lon="6.2202">
        <ele>1108.6125</ele>
        <time>2018-08-15T07:32:33Z</time>
      </trkpt>
      <trkpt lat="45.03631" lon="6.22036">
        <ele>1113.0837</ele>
        <time>2018-08-15T07:32:38Z</time>
      </trkpt>
      <trkpt lat="45.03639" lon="6.22052">
        <ele>1117.364</ele>
        <time>2018-08-15T07:32:43Z</time>
      </trkpt>
      <trkpt lat="45.03645" lon="6.22073">
        <ele>1122.2249</ele>
        <time>2018-08-15T07:32:49Z</time>
      </trkpt>
      <trkpt lat="45.03648" lon="6.22091">
        <ele>1125.9524</ele>
        <time>2018-08-15T07:32:54Z</time>
      </trkpt>
      <trkpt lat="45.03647" lon="6.22114">
        <ele>1129.911</ele>
        <time>2018-08-15T07:33:00Z</time>
      </trkpt>
      <trkpt lat="45.03643" lon="6.22132">
        <ele>1132.8015</ele>
        <time>2018-08-15T07:33:05Z</time>
      </trkpt>
      <trkpt lat="45.03636" lon="6.22155">
        <ele>1135.9574</ele>
        <time>2018-08-15T07:33:11Z</time>
      </trkpt>
      <trkpt lat="45.03631" lon="6.22175">
        <ele>1138.901</ele>
        <time>2018-08-15T07:33:17Z</time>
      </trkpt>
      <trkpt lat="45.03625" lon="6.22197">
        <ele>1141.6483</ele>
        <time>2018-08-15T07:33:23Z</time>
      </trkpt>
      <trkpt lat="45.03621" lon="6.22215">
        <ele>1143.7786</ele>
        <time>2018-08-15T07:33:28Z</time>
      </trkpt>
      <trkpt lat="45.03617" lon="6.22235">
        <ele>1146.1285</ele>
        <time>2018-08-15T07:33:34Z</time>
      </trkpt>
      <trkpt lat="45.03613" lon="6.22254">
        <ele>1147.977</ele>
        <time>2018-08-15T07:33:39Z</time>
      </trkpt>
      <trkpt lat="45.0361" lon="6.22272">
        <ele>1149.8976</ele>
        <time>2018-08-15T07:33:44Z</time>
      </trkpt>
      <trkpt lat="45.03606" lon="6.22294">
        <ele>1152.0966</ele>
        <time>2018-08-15T07:33:50Z</time>
      </trkpt>
      <trkpt lat="45.03604" lon="6.22316">
        <ele>1154.2819</ele>
        <time>2018-08-15T07:33:56Z</time>
      </trkpt>
      <trkpt lat="45.03606" lon="6.22337">
        <ele>1156.3307</ele>
        <time>2018-08-15T07:34:02Z</time>
      </trkpt>
      <trkpt lat="45.03611" lon="6.22359">
        <ele>1158.2482</ele>
        <time>2018-08-15T07:34:08Z</time>
      </trkpt>
      <trkpt lat="45.03615" lon="6.2238">
        <ele>1160.1124</ele>
        <time>2018-08-15T07:34:14Z</time>
      </trkpt>
      <trkpt lat="45.03617" lon="6.22401">
        <ele>1161.8896</ele>
        <time>2018-08-15T07:34:20Z</time>
      </trkpt>
      <trkpt lat="45.03616" lon="6.22422">
        <ele>1163.3319</ele>
        <time>2018-08-15T07:34:26Z</time>
      </trkpt>
      <trkpt lat="45.03613" lon="6.22446">
        <ele>1164.7467</ele>
        <time>2018-08-15T07:34:32Z</time>
      </trkpt>
      <trkpt lat="45.03609" lon="6.22469">
        <ele>1166.2177</ele>
        <time>2018-08-15T07:34:38Z</time>
      </trkpt>
      <trkpt lat="45.03606" lon="6.22489">
        <ele>1167.7687</ele>
        <time>2018-08-15T07:34:44Z</time>
      </trkpt>
      <trkpt lat="45.03604" lon="6.22507">
        <ele>1168.8615</ele>
        <time>2018-08-15T07:34:49Z</time>
      </trkpt>
      <trkpt lat="45.03602" lon="6.22527">
        <ele>1170.08</ele>
        <time>2018-08-15T07:34:54Z</time>
      </trkpt>
      <trkpt lat="45.036" lon="6.22552">
        <ele>1171.8077</ele>
        <time>2018-08-15T07:35:00Z</time>
      </trkpt>
      <trkpt lat="45.036" lon="6.2256">
        <ele>1176.5426</ele>
        <time>2018-08-15T07:36:26Z</time>
      </trkpt>
      <trkpt lat="45.03603" lon="6.22581">
        <ele>1178.6757</ele>
        <time>2018-08-15T07:36:32Z</time>
      </trkpt>
      <trkpt lat="45.03606" lon="6.22605">
        <ele>1180.605</ele>
        <time>2018-08-15T07:36:38Z</time>
      </trkpt>
      <trkpt lat="45.0361" lon="6.22625">
        <ele>1182.0929</ele>
        <time>2018-08-15T07:36:43Z</time>
      </trkpt>
      <trkpt lat="45.03614" lon="6.22648">
        <ele>1183.8867</ele>
        <time>2018-08-15T07:36:49Z</time>
      </trkpt>
      <trkpt lat="45.03618" lon="6.22666">
        <ele>1185.3413</ele>
        <time>2018-08-15T07:36:54Z</time>
      </trkpt>
      <trkpt lat="45.03622" lon="6.22685">
        <ele>1186.7911</ele>
        <time>2018-08-15T07:36:59Z</time>
      </trkpt>
      <trkpt lat="45.03628" lon="6.22707">
        <ele>1188.4644</ele>
        <time>2018-08-15T07:37:05Z</time>
      </trkpt>
      <trkpt lat="45.03634" lon="6.22726">
        <ele>1189.8628</ele>
        <time>2018-08-15T07:37:10Z</time>
      </trkpt>
      <trkpt lat="45.03641" lon="6.22748">
        <ele>1191.5608</ele>
        <time>2018-08-15T07:37:16Z</time>
      </trkpt>
      <trkpt lat="45.03644" lon="6.22771">
        <ele>1193.0543</ele>
        <time>2018-08-15T07:37:22Z</time>
      </trkpt>
      <trkpt lat="45.03648" lon="6.22795">
        <ele>1194.2238</ele>
        <time>2018-08-15T07:37:28Z</time>
      </trkpt>
      <trkpt lat="45.03652" lon="6.22818">
        <ele>1195.0485</ele>
        <time>2018-08-15T07:37:34Z</time>
      </trkpt>
      <trkpt lat="45.03656" lon="6.22838">
        <ele>1195.5402</ele>
        <time>2018-08-15T07:37:39Z</time>
      </trkpt>
      <trkpt lat="45.03659" lon="6.22859">
        <ele>1195.925</ele>
        <time>2018-08-15T07:37:44Z</time>
      </trkpt>
      <trkpt lat="45.03661" lon="6.22879">
        <ele>1196.3323</ele>
        <time>2018-08-15T07:37:50Z</time>
      </trkpt>
      <trkpt lat="45.03663" lon="6.229">
        <ele>1196.5659</ele>
        <time>2018-08-15T07:37:56Z</time>
      </trkpt>
      <trkpt lat="45.03663" lon="6.22925">
        <ele>1196.7328</ele>
        <time>2018-08-15T07:38:02Z</time>
      </trkpt>
      <trkpt lat="45.03661" lon="6.22949">
        <ele>1197.1084</ele>
        <time>2018-08-15T07:38:07Z</time>
      </trkpt>
      <trkpt lat="45.03659" lon="6.22975">
        <ele>1197.9022</ele>
        <time>2018-08-15T07:38:13Z</time>
      </trkpt>
      <trkpt lat="45.03658" lon="6.22995">
        <ele>1198.6833</ele>
        <time>2018-08-15T07:38:18Z</time>
      </trkpt>
      <trkpt lat="45.03657" lon="6.23013">
        <ele>1199.4171</ele>
        <time>2018-08-15T07:38:23Z</time>
      </trkpt>
      <trkpt lat="45.03657" lon="6.23033">
        <ele>1200.1514</ele>
        <time>2018-08-15T07:38:28Z</time>
      </trkpt>
      <trkpt lat="45.03658" lon="6.23056">
        <ele>1200.9797</ele>
        <time>2018-08-15T07:38:34Z</time>
      </trkpt>
      <trkpt lat="45.03659" lon="6.23075">
        <ele>1201.6139</ele>
        <time>2018-08-15T07:38:39Z</time>
      </trkpt>
      <trkpt lat="45.03661" lon="6.23097">
        <ele>1202.1448</ele>
        <time>2018-08-15T07:38:44Z</time>
      </trkpt>
      <trkpt lat="45.03665" lon="6.23122">
        <ele>1202.6178</ele>
        <time>2018-08-15T07:38:50Z</time>
      </trkpt>
      <trkpt lat="45.0367" lon="6.23145">
        <ele>1203.1099</ele>
        <time>2018-08-15T07:38:56Z</time>
      </trkpt>
      <trkpt lat="45.03674" lon="6.2316">
        <ele>1203.6687</ele>
        <time>2018-08-15T07:39:01Z</time>
      </trkpt>
      <trkpt lat="45.03678" lon="6.23177">
        <ele>1204.3234</ele>
        <time>2018-08-15T07:39:06Z</time>
      </trkpt>
      <trkpt lat="45.03682" lon="6.23198">
        <ele>1205.0308</ele>
        <time>2018-08-15T07:39:12Z</time>
      </trkpt>
      <trkpt lat="45.03684" lon="6.23222">
        <ele>1205.6965</ele>
        <time>2018-08-15T07:39:18Z</time>
      </trkpt>
      <trkpt lat="45.03686" lon="6.23246">
        <ele>1206.5437</ele>
        <time>2018-08-15T07:39:24Z</time>
      </trkpt>
      <trkpt lat="45.03688" lon="6.23264">
        <ele>1207.5153</ele>
        <time>2018-08-15T07:39:29Z</time>
      </trkpt>
      <trkpt lat="45.03692" lon="6.23283">
        <ele>1208.6917</ele>
        <time>2018-08-15T07:39:34Z</time>
      </trkpt>
      <trkpt lat="45.03699" lon="6.23303">
        <ele>1210.1807</ele>
        <time>2018-08-15T07:39:40Z</time>
      </trkpt>
      <trkpt lat="45.03711" lon="6.23325">
        <ele>1211.7633</ele>
        <time>2018-08-15T07:39:46Z</time>
      </trkpt>
      <trkpt lat="45.03723" lon="6.23343">
        <ele>1213.0892</ele>
        <time>2018-08-15T07:39:51Z</time>
      </trkpt>
      <trkpt lat="45.03736" lon="6.2336">
        <ele>1214.3816</ele>
        <time>2018-08-15T07:39:56Z</time>
      </trkpt>
      <trkpt lat="45.03752" lon="6.23383">
        <ele>1219.8081</ele>
        <time>2018-08-15T07:40:02Z</time>
      </trkpt>
      <trkpt lat="45.03764" lon="6.23406">
        <ele>1224.7212</ele>
        <time>2018-08-15T07:40:07Z</time>
      </trkpt>
      <trkpt lat="45.03772" lon="6.2343">
        <ele>1227.1724</ele>
        <time>2018-08-15T07:40:12Z</time>
      </trkpt>
      <trkpt lat="45.03778" lon="6.23461">
        <ele>1228.1997</ele>
        <time>2018-08-15T07:40:18Z</time>
      </trkpt>
      <trkpt lat="45.03781" lon="6.23492">
        <ele>1228.0822</ele>
        <time>2018-08-15T07:40:24Z</time>
      </trkpt>
      <trkpt lat="45.0378" lon="6.23524">
        <ele>1226.1428</ele>
        <time>2018-08-15T07:40:30Z</time>
      </trkpt>
      <trkpt lat="45.03777" lon="6.23565">
        <ele>1223.4891</ele>
        <time>2018-08-15T07:40:36Z</time>
      </trkpt>
      <trkpt lat="45.03775" lon="6.23598">
        <ele>1225.3326</ele>
        <time>2018-08-15T07:40:41Z</time>
      </trkpt>
      <trkpt lat="45.03774" lon="6.23635">
        <ele>1226.706</ele>
        <time>2018-08-15T07:40:47Z</time>
      </trkpt>
      <trkpt lat="45.03773" lon="6.23664">
        <ele>1226.5195</ele>
        <time>2018-08-15T07:40:52Z</time>
      </trkpt>
      <trkpt lat="45.03771" lon="6.23701">
        <ele>1225.6378</ele>
        <time>2018-08-15T07:40:58Z</time>
      </trkpt>
      <trkpt lat="45.03767" lon="6.23734">
        <ele>1225.2388</ele>
        <time>2018-08-15T07:41:04Z</time>
      </trkpt>
      <trkpt lat="45.03761" lon="6.23759">
        <ele>1225.2219</ele>
        <time>2018-08-15T07:41:09Z</time>
      </trkpt>
      <trkpt lat="45.03754" lon="6.23792">
        <ele>1225.1432</ele>
        <time>2018-08-15T07:41:15Z</time>
      </trkpt>
      <trkpt lat="45.03748" lon="6.23823">
        <ele>1226.4404</ele>
        <time>2018-08-15T07:41:20Z</time>
      </trkpt>
      <trkpt lat="45.03746" lon="6.23852">
        <ele>1228.095</ele>
        <time>2018-08-15T07:41:25Z</time>
      </trkpt>
      <trkpt lat="45.03747" lon="6.2388">
        <ele>1233.2026</ele>
        <time>2018-08-15T07:41:30Z</time>
      </trkpt>
      <trkpt lat="45.0375" lon="6.23911">
        <ele>1233.5356</ele>
        <time>2018-08-15T07:41:36Z</time>
      </trkpt>
      <trkpt lat="45.03754" lon="6.23943">
        <ele>1235.3422</ele>
        <time>2018-08-15T07:41:42Z</time>
      </trkpt>
      <trkpt lat="45.03759" lon="6.23977">
        <ele>1236.1328</ele>
        <time>2018-08-15T07:41:48Z</time>
      </trkpt>
      <trkpt lat="45.03762" lon="6.24011">
        <ele>1237.1351</ele>
        <time>2018-08-15T07:41:54Z</time>
      </trkpt>
      <trkpt lat="45.03766" lon="6.24044">
        <ele>1237.4982</ele>
        <time>2018-08-15T07:42:00Z</time>
      </trkpt>
      <trkpt lat="45.03769" lon="6.2407">
        <ele>1238.1217</ele>
        <time>2018-08-15T07:42:05Z</time>
      </trkpt>
      <trkpt lat="45.03771" lon="6.24099">
        <ele>1239.0403</ele>
        <time>2018-08-15T07:42:11Z</time>
      </trkpt>
      <trkpt lat="45.03772" lon="6.2412">
        <ele>1239.775</ele>
        <time>2018-08-15T07:42:16Z</time>
      </trkpt>
      <trkpt lat="45.03776" lon="6.2415">
        <ele>1240.3656</ele>
        <time>2018-08-15T07:42:22Z</time>
      </trkpt>
      <trkpt lat="45.03781" lon="6.24174">
        <ele>1241.0535</ele>
        <time>2018-08-15T07:42:28Z</time>
      </trkpt>
      <trkpt lat="45.04037" lon="6.25979">
        <ele>1279.1069</ele>
        <time>2018-08-15T07:48:33Z</time>
      </trkpt>
      <trkpt lat="45.04054" lon="6.25995">
        <ele>1286.1606</ele>
        <time>2018-08-15T07:48:38Z</time>
      </trkpt>
      <trkpt lat="45.04077" lon="6.26016">
        <ele>1298.0525</ele>
        <time>2018-08-15T07:48:44Z</time>
      </trkpt>
      <trkpt lat="45.04101" lon="6.26041">
        <ele>1305.7275</ele>
        <time>2018-08-15T07:48:50Z</time>
      </trkpt>
      <trkpt lat="45.04123" lon="6.2607">
        <ele>1309.6644</ele>
        <time>2018-08-15T07:48:56Z</time>
      </trkpt>
      <trkpt lat="45.04137" lon="6.26098">
        <ele>1312.0189</ele>
        <time>2018-08-15T07:49:01Z</time>
      </trkpt>
      <trkpt lat="45.04149" lon="6.26127">
        <ele>1314.8337</ele>
        <time>2018-08-15T07:49:06Z</time>
      </trkpt>
      <trkpt lat="45.04159" lon="6.26165">
        <ele>1317.0795</ele>
        <time>2018-08-15T07:49:12Z</time>
      </trkpt>
      <trkpt lat="45.04169" lon="6.26209">
        <ele>1320.0897</ele>
        <time>2018-08-15T07:49:18Z</time>
      </trkpt>
      <trkpt lat="45.04178" lon="6.26246">
        <ele>1320.4603</ele>
        <time>2018-08-15T07:49:23Z</time>
      </trkpt>
      <trkpt lat="45.04187" lon="6.26289">
        <ele>1320.4683</ele>
        <time>2018-08-15T07:49:29Z</time>
      </trkpt>
      <trkpt lat="45.04194" lon="6.26327">
        <ele>1319.5436</ele>
        <time>2018-08-15T07:49:34Z</time>
      </trkpt>
      <trkpt lat="45.04202" lon="6.2636">
        <ele>1318.8933</ele>
        <time>2018-08-15T07:49:39Z</time>
      </trkpt>
      <trkpt lat="45.04211" lon="6.264">
        <ele>1316.3784</ele>
        <time>2018-08-15T07:49:45Z</time>
      </trkpt>
      <trkpt lat="45.04218" lon="6.26436">
        <ele>1315.6406</ele>
        <time>2018-08-15T07:49:50Z</time>
      </trkpt>
      <trkpt lat="45.04225" lon="6.26464">
        <ele>1315.1548</ele>
        <time>2018-08-15T07:49:55Z</time>
      </trkpt>
      <trkpt lat="45.04232" lon="6.26496">
        <ele>1315.6385</ele>
        <time>2018-08-15T07:50:00Z</time>
      </trkpt>
      <trkpt lat="45.0424" lon="6.26535">
        <ele>1320.0645</ele>
        <time>2018-08-15T07:50:06Z</time>
      </trkpt>
      <trkpt lat="45.04246" lon="6.26566">
        <ele>1322.3345</ele>
        <time>2018-08-15T07:50:11Z</time>
      </trkpt>
      <trkpt lat="45.04253" lon="6.26604">
        <ele>1326.7572</ele>
        <time>2018-08-15T07:50:17Z</time>
      </trkpt>
      <trkpt lat="45.04259" lon="6.26636">
        <ele>1331.0393</ele>
        <time>2018-08-15T07:50:22Z</time>
      </trkpt>
      <trkpt lat="45.04266" lon="6.26668">
        <ele>1333.1631</ele>
        <time>2018-08-15T07:50:28Z</time>
      </trkpt>
      <trkpt lat="45.04272" lon="6.26702">
        <ele>1331.7604</ele>
        <time>2018-08-15T07:50:34Z</time>
      </trkpt>
      <trkpt lat="45.04276" lon="6.26731">
        <ele>1330.412</ele>
        <time>2018-08-15T07:50:39Z</time>
      </trkpt>
      <trkpt lat="45.04282" lon="6.26763">
        <ele>1329.3684</ele>
        <time>2018-08-15T07:50:45Z</time>
      </trkpt>
      <trkpt lat="45.04286" lon="6.26789">
        <ele>1327.8168</ele>
        <time>2018-08-15T07:50:50Z</time>
      </trkpt>
      <trkpt lat="45.04289" lon="6.26817">
        <ele>1325.2246</ele>
        <time>2018-08-15T07:50:55Z</time>
      </trkpt>
      <trkpt lat="45.04288" lon="6.26849">
        <ele>1323.9098</ele>
        <time>2018-08-15T07:51:01Z</time>
      </trkpt>
      <trkpt lat="45.04282" lon="6.26873">
        <ele>1323.6176</ele>
        <time>2018-08-15T07:51:06Z</time>
      </trkpt>
      <trkpt lat="45.04277" lon="6.26898">
        <ele>1323.497</ele>
        <time>2018-08-15T07:51:11Z</time>
      </trkpt>
      <trkpt lat="45.04273" lon="6.26922">
        <ele>1323.6993</ele>
        <time>2018-08-15T07:51:16Z</time>
      </trkpt>
      <trkpt lat="45.04267" lon="6.2695">
        <ele>1324.4827</ele>
        <time>2018-08-15T07:51:22Z</time>
      </trkpt>
      <trkpt lat="45.04261" lon="6.26978">
        <ele>1325.4238</ele>
        <time>2018-08-15T07:51:28Z</time>
      </trkpt>
      <trkpt lat="45.04256" lon="6.27007">
        <ele>1326.6454</ele>
        <time>2018-08-15T07:51:34Z</time>
      </trkpt>
      <trkpt lat="45.04253" lon="6.27027">
        <ele>1327.6549</ele>
        <time>2018-08-15T07:51:39Z</time>
      </trkpt>
      <trkpt lat="45.04249" lon="6.27057">
        <ele>1328.8333</ele>
        <time>2018-08-15T07:51:45Z</time>
      </trkpt>
      <trkpt lat="45.04246" lon="6.27083">
        <ele>1329.8627</ele>
        <time>2018-08-15T07:51:50Z</time>
      </trkpt>
      <trkpt lat="45.04244" lon="6.27108">
        <ele>1330.8893</ele>
        <time>2018-08-15T07:51:55Z</time>
      </trkpt>
      <trkpt lat="45.04241" lon="6.27136">
        <ele>1332.4343</ele>
        <time>2018-08-15T07:52:01Z</time>
      </trkpt>
      <trkpt lat="45.04239" lon="6.27165">
        <ele>1334.2361</ele>
        <time>2018-08-15T07:52:07Z</time>
      </trkpt>
      <trkpt lat="45.04237" lon="6.27186">
        <ele>1335.7886</ele>
        <time>2018-08-15T07:52:12Z</time>
      </trkpt>
      <trkpt lat="45.04236" lon="6.27213">
        <ele>1337.212</ele>
        <time>2018-08-15T07:52:17Z</time>
      </trkpt>
      <trkpt lat="45.04235" lon="6.27237">
        <ele>1338.5908</ele>
        <time>2018-08-15T07:52:22Z</time>
      </trkpt>
      <trkpt lat="45.04235" lon="6.27266">
        <ele>1340.3639</ele>
        <time>2018-08-15T07:52:28Z</time>
      </trkpt>
      <trkpt lat="45.04237" lon="6.27299">
        <ele>1347.2733</ele>
        <time>2018-08-15T07:52:34Z</time>
      </trkpt>
      <trkpt lat="45.0424" lon="6.27325">
        <ele>1348.2496</ele>
        <time>2018-08-15T07:52:39Z</time>
      </trkpt>
      <trkpt lat="45.04245" lon="6.27355">
        <ele>1352.2283</ele>
        <time>2018-08-15T07:52:45Z</time>
      </trkpt>
      <trkpt lat="45.0425" lon="6.27378">
        <ele>1352.78</ele>
        <time>2018-08-15T07:52:50Z</time>
      </trkpt>
      <trkpt lat="45.04256" lon="6.27403">
        <ele>1353.2617</ele>
        <time>2018-08-15T07:52:55Z</time>
      </trkpt>
      <trkpt lat="45.04263" lon="6.27429">
        <ele>1353.8324</ele>
        <time>2018-08-15T07:53:01Z</time>
      </trkpt>
      <trkpt lat="45.04269" lon="6.27454">
        <ele>1354.096</ele>
        <time>2018-08-15T07:53:06Z</time>
      </trkpt>
      <trkpt lat="45.04275" lon="6.27482">
        <ele>1354.189</ele>
        <time>2018-08-15T07:53:12Z</time>
      </trkpt>
      <trkpt lat="45.0428" lon="6.27509">
        <ele>1354.2872</ele>
        <time>2018-08-15T07:53:18Z</time>
      </trkpt>
      <trkpt lat="45.04283" lon="6.27533">
        <ele>1354.2552</ele>
        <time>2018-08-15T07:53:23Z</time>
      </trkpt>
      <trkpt lat="45.04284" lon="6.27561">
        <ele>1354.0347</ele>
        <time>2018-08-15T07:53:29Z</time>
      </trkpt>
      <trkpt lat="45.04285" lon="6.27585">
        <ele>1353.5757</ele>
        <time>2018-08-15T07:53:34Z</time>
      </trkpt>
      <trkpt lat="45.04285" lon="6.27614">
        <ele>1352.9987</ele>
        <time>2018-08-15T07:53:40Z</time>
      </trkpt>
      <trkpt lat="45.04285" lon="6.27645">
        <ele>1352.4224</ele>
        <time>2018-08-15T07:53:46Z</time>
      </trkpt>
      <trkpt lat="45.04288" lon="6.2767">
        <ele>1352.1366</ele>
        <time>2018-08-15T07:53:51Z</time>
      </trkpt>
      <trkpt lat="45.04292" lon="6.27692">
        <ele>1352.2888</ele>
        <time>2018-08-15T07:53:56Z</time>
      </trkpt>
      <trkpt lat="45.043" lon="6.27717">
        <ele>1353.0781</ele>
        <time>2018-08-15T07:54:02Z</time>
      </trkpt>
      <trkpt lat="45.04309" lon="6.27742">
        <ele>1354.1278</ele>
        <time>2018-08-15T07:54:08Z</time>
      </trkpt>
      <trkpt lat="45.04318" lon="6.27765">
        <ele>1354.9518</ele>
        <time>2018-08-15T07:54:13Z</time>
      </trkpt>
      <trkpt lat="45.04323" lon="6.27793">
        <ele>1356.12</ele>
        <time>2018-08-15T07:54:19Z</time>
      </trkpt>
      <trkpt lat="45.04326" lon="6.27818">
        <ele>1357.0458</ele>
        <time>2018-08-15T07:54:24Z</time>
      </trkpt>
      <trkpt lat="45.04323" lon="6.27848">
        <ele>1357.7292</ele>
        <time>2018-08-15T07:54:30Z</time>
      </trkpt>
      <trkpt lat="45.04316" lon="6.27871">
        <ele>1358.2198</ele>
        <time>2018-08-15T07:54:35Z</time>
      </trkpt>
      <trkpt lat="45.04309" lon="6.27896">
        <ele>1359.0753</ele>
        <time>2018-08-15T07:54:41Z</time>
      </trkpt>
      <trkpt lat="45.04304" lon="6.27917">
        <ele>1359.9246</ele>
        <time>2018-08-15T07:54:46Z</time>
      </trkpt>
      <trkpt lat="45.04304" lon="6.27944">
        <ele>1361.0385</ele>
        <time>2018-08-15T07:54:52Z</time>
      </trkpt>
      <trkpt lat="45.04306" lon="6.27975">
        <ele>1362.1307</ele>
        <time>2018-08-15T07:54:58Z</time>
      </trkpt>
      <trkpt lat="45.0431" lon="6.28003">
        <ele>1363.0798</ele>
        <time>2018-08-15T07:55:04Z</time>
      </trkpt>
      <trkpt lat="45.04315" lon="6.28031">
        <ele>1363.9009</ele>
        <time>2018-08-15T07:55:10Z</time>
      </trkpt>
      <trkpt lat="45.0432" lon="6.28053">
        <ele>1364.561</ele>
        <time>2018-08-15T07:55:15Z</time>
      </trkpt>
      <trkpt lat="45.04329" lon="6.28079">
        <ele>1365.4662</ele>
        <time>2018-08-15T07:55:21Z</time>
      </trkpt>
      <trkpt lat="45.04336" lon="6.28107">
        <ele>1366.5067</ele>
        <time>2018-08-15T07:55:27Z</time>
      </trkpt>
      <trkpt lat="45.04341" lon="6.28132">
        <ele>1367.0331</ele>
        <time>2018-08-15T07:55:32Z</time>
      </trkpt>
      <trkpt lat="45.04345" lon="6.28156">
        <ele>1367.531</ele>
        <time>2018-08-15T07:55:37Z</time>
      </trkpt>
      <trkpt lat="45.0435" lon="6.28187">
        <ele>1368.0554</ele>
        <time>2018-08-15T07:55:43Z</time>
      </trkpt>
      <trkpt lat="45.04355" lon="6.28214">
        <ele>1368.3718</ele>
        <time>2018-08-15T07:55:49Z</time>
      </trkpt>
      <trkpt lat="45.04361" lon="6.2824">
        <ele>1368.8754</ele>
        <time>2018-08-15T07:55:55Z</time>
      </trkpt>
      <trkpt lat="45.04368" lon="6.28263">
        <ele>1371.0768</ele>
        <time>2018-08-15T07:56:00Z</time>
      </trkpt>
      <trkpt lat="45.04377" lon="6.28288">
        <ele>1373.1367</ele>
        <time>2018-08-15T07:56:05Z</time>
      </trkpt>
      <trkpt lat="45.04391" lon="6.2832">
        <ele>1374.8256</ele>
        <time>2018-08-15T07:56:11Z</time>
      </trkpt>
      <trkpt lat="45.04402" lon="6.28347">
        <ele>1375.8191</ele>
        <time>2018-08-15T07:56:16Z</time>
      </trkpt>
      <trkpt lat="45.04414" lon="6.28384">
        <ele>1377.3807</ele>
        <time>2018-08-15T07:56:22Z</time>
      </trkpt>
      <trkpt lat="45.04422" lon="6.28426">
        <ele>1378.808</ele>
        <time>2018-08-15T07:56:28Z</time>
      </trkpt>
      <trkpt lat="45.04422" lon="6.28469">
        <ele>1378.651</ele>
        <time>2018-08-15T07:56:34Z</time>
      </trkpt>
      <trkpt lat="45.04413" lon="6.28508">
        <ele>1379.903</ele>
        <time>2018-08-15T07:56:40Z</time>
      </trkpt>
      <trkpt lat="45.04401" lon="6.28547">
        <ele>1382.0826</ele>
        <time>2018-08-15T07:56:46Z</time>
      </trkpt>
      <trkpt lat="45.04392" lon="6.28575">
        <ele>1384.281</ele>
        <time>2018-08-15T07:56:51Z</time>
      </trkpt>
      <trkpt lat="45.04383" lon="6.28601">
        <ele>1386.7698</ele>
        <time>2018-08-15T07:56:56Z</time>
      </trkpt>
      <trkpt lat="45.04373" lon="6.28628">
        <ele>1387.6803</ele>
        <time>2018-08-15T07:57:02Z</time>
      </trkpt>
      <trkpt lat="45.04365" lon="6.2865">
        <ele>1388.7627</ele>
        <time>2018-08-15T07:57:07Z</time>
      </trkpt>
      <trkpt lat="45.04357" lon="6.28671">
        <ele>1390.2341</ele>
        <time>2018-08-15T07:57:12Z</time>
      </trkpt>
      <trkpt lat="45.04349" lon="6.28684">
        <ele>1397.0695</ele>
        <time>2018-08-15T07:57:35Z</time>
      </trkpt>
      <trkpt lat="45.04347" lon="6.28698">
        <ele>1399.3776</ele>
        <time>2018-08-15T07:57:40Z</time>
      </trkpt>
      <trkpt lat="45.04345" lon="6.28722">
        <ele>1401.759</ele>
        <time>2018-08-15T07:57:46Z</time>
      </trkpt>
      <trkpt lat="45.04345" lon="6.28747">
        <ele>1403.9884</ele>
        <time>2018-08-15T07:57:52Z</time>
      </trkpt>
      <trkpt lat="45.04344" lon="6.28773">
        <ele>1405.6016</ele>
        <time>2018-08-15T07:57:57Z</time>
      </trkpt>
      <trkpt lat="45.04344" lon="6.28794">
        <ele>1407.0769</ele>
        <time>2018-08-15T07:58:02Z</time>
      </trkpt>
      <trkpt lat="45.04344" lon="6.28815">
        <ele>1408.7018</ele>
        <time>2018-08-15T07:58:08Z</time>
      </trkpt>
      <trkpt lat="45.04342" lon="6.28839">
        <ele>1409.9061</ele>
        <time>2018-08-15T07:58:14Z</time>
      </trkpt>
      <trkpt lat="45.0434" lon="6.28862">
        <ele>1410.6616</ele>
        <time>2018-08-15T07:58:20Z</time>
      </trkpt>
      <trkpt lat="45.04335" lon="6.28887">
        <ele>1411.3729</ele>
        <time>2018-08-15T07:58:26Z</time>
      </trkpt>
      <trkpt lat="45.04331" lon="6.28907">
        <ele>1412.0555</ele>
        <time>2018-08-15T07:58:31Z</time>
      </trkpt>
      <trkpt lat="45.04329" lon="6.28925">
        <ele>1412.723</ele>
        <time>2018-08-15T07:58:36Z</time>
      </trkpt>
      <trkpt lat="45.04327" lon="6.28951">
        <ele>1413.6455</ele>
        <time>2018-08-15T07:58:42Z</time>
      </trkpt>
      <trkpt lat="45.04329" lon="6.28972">
        <ele>1414.333</ele>
        <time>2018-08-15T07:58:47Z</time>
      </trkpt>
      <trkpt lat="45.0433" lon="6.28994">
        <ele>1414.7734</ele>
        <time>2018-08-15T07:58:53Z</time>
      </trkpt>
      <trkpt lat="45.04327" lon="6.29018">
        <ele>1414.6112</ele>
        <time>2018-08-15T07:58:59Z</time>
      </trkpt>
      <trkpt lat="45.04324" lon="6.29037">
        <ele>1414.5605</ele>
        <time>2018-08-15T07:59:04Z</time>
      </trkpt>
      <trkpt lat="45.0432" lon="6.29061">
        <ele>1414.724</ele>
        <time>2018-08-15T07:59:10Z</time>
      </trkpt>
      <trkpt lat="45.0432" lon="6.29086">
        <ele>1415.0208</ele>
        <time>2018-08-15T07:59:16Z</time>
      </trkpt>
      <trkpt lat="45.04322" lon="6.29112">
        <ele>1415.789</ele>
        <time>2018-08-15T07:59:22Z</time>
      </trkpt>
      <trkpt lat="45.04322" lon="6.29137">
        <ele>1416.9116</ele>
        <time>2018-08-15T07:59:28Z</time>
      </trkpt>
      <trkpt lat="45.04325" lon="6.29162">
        <ele>1417.9468</ele>
        <time>2018-08-15T07:59:34Z</time>
      </trkpt>
      <trkpt lat="45.04326" lon="6.29187">
        <ele>1419.2163</ele>
        <time>2018-08-15T07:59:40Z</time>
      </trkpt>
      <trkpt lat="45.04327" lon="6.29212">
        <ele>1420.5203</ele>
        <time>2018-08-15T07:59:46Z</time>
      </trkpt>
      <trkpt lat="45.04329" lon="6.29238">
        <ele>1421.958</ele>
        <time>2018-08-15T07:59:52Z</time>
      </trkpt>
      <trkpt lat="45.04331" lon="6.29258">
        <ele>1423.2777</ele>
        <time>2018-08-15T07:59:57Z</time>
      </trkpt>
      <trkpt lat="45.04336" lon="6.29281">
        <ele>1424.9077</ele>
        <time>2018-08-15T08:00:03Z</time>
      </trkpt>
      <trkpt lat="45.04343" lon="6.29305">
        <ele>1426.4784</ele>
        <time>2018-08-15T08:00:09Z</time>
      </trkpt>
      <trkpt lat="45.04349" lon="6.29322">
        <ele>1427.7739</ele>
        <time>2018-08-15T08:00:14Z</time>
      </trkpt>
      <trkpt lat="45.04358" lon="6.29343">
        <ele>1429.315</ele>
        <time>2018-08-15T08:00:20Z</time>
      </trkpt>
      <trkpt lat="45.04366" lon="6.29364">
        <ele>1430.8368</ele>
        <time>2018-08-15T08:00:26Z</time>
      </trkpt>
      <trkpt lat="45.04373" lon="6.29383">
        <ele>1432.2327</ele>
        <time>2018-08-15T08:00:31Z</time>
      </trkpt>
      <trkpt lat="45.0438" lon="6.29404">
        <ele>1434.0457</ele>
        <time>2018-08-15T08:00:37Z</time>
      </trkpt>
      <trkpt lat="45.04387" lon="6.29425">
        <ele>1435.8217</ele>
        <time>2018-08-15T08:00:43Z</time>
      </trkpt>
      <trkpt lat="45.04392" lon="6.29443">
        <ele>1437.1742</ele>
        <time>2018-08-15T08:00:48Z</time>
      </trkpt>
      <trkpt lat="45.04397" lon="6.29464">
        <ele>1438.5405</ele>
        <time>2018-08-15T08:00:54Z</time>
      </trkpt>
      <trkpt lat="45.04402" lon="6.29485">
        <ele>1439.6959</ele>
        <time>2018-08-15T08:01:00Z</time>
      </trkpt>
      <trkpt lat="45.04407" lon="6.29502">
        <ele>1440.4718</ele>
        <time>2018-08-15T08:01:05Z</time>
      </trkpt>
      <trkpt lat="45.04412" lon="6.29521">
        <ele>1441.2157</ele>
        <time>2018-08-15T08:01:11Z</time>
      </trkpt>
      <trkpt lat="45.04416" lon="6.29537">
        <ele>1441.8322</ele>
        <time>2018-08-15T08:01:16Z</time>
      </trkpt>
      <trkpt lat="45.04419" lon="6.29555">
        <ele>1442.5148</ele>
        <time>2018-08-15T08:01:22Z</time>
      </trkpt>
      <trkpt lat="45.04423" lon="6.29572">
        <ele>1443.0671</ele>
        <time>2018-08-15T08:01:27Z</time>
      </trkpt>
      <trkpt lat="45.04428" lon="6.29593">
        <ele>1443.7535</ele>
        <time>2018-08-15T08:01:33Z</time>
      </trkpt>
      <trkpt lat="45.04434" lon="6.29609">
        <ele>1444.372</ele>
        <time>2018-08-15T08:01:38Z</time>
      </trkpt>
      <trkpt lat="45.0444" lon="6.29625">
        <ele>1445.0449</ele>
        <time>2018-08-15T08:01:43Z</time>
      </trkpt>
      <trkpt lat="45.04447" lon="6.29645">
        <ele>1445.8694</ele>
        <time>2018-08-15T08:01:49Z</time>
      </trkpt>
      <trkpt lat="45.04452" lon="6.29662">
        <ele>1446.5629</ele>
        <time>2018-08-15T08:01:54Z</time>
      </trkpt>
      <trkpt lat="45.04457" lon="6.29682">
        <ele>1447.2798</ele>
        <time>2018-08-15T08:01:59Z</time>
      </trkpt>
      <trkpt lat="45.04459" lon="6.29704">
        <ele>1448.185</ele>
        <time>2018-08-15T08:02:05Z</time>
      </trkpt>
      <trkpt lat="45.04459" lon="6.29724">
        <ele>1448.9423</ele>
        <time>2018-08-15T08:02:10Z</time>
      </trkpt>
      <trkpt lat="45.04459" lon="6.29751">
        <ele>1449.857</ele>
        <time>2018-08-15T08:02:16Z</time>
      </trkpt>
      <trkpt lat="45.0446" lon="6.29776">
        <ele>1450.9556</ele>
        <time>2018-08-15T08:02:22Z</time>
      </trkpt>
      <trkpt lat="45.0446" lon="6.29802">
        <ele>1452.2089</ele>
        <time>2018-08-15T08:02:28Z</time>
      </trkpt>
      <trkpt lat="45.04457" lon="6.29825">
        <ele>1453.7367</ele>
        <time>2018-08-15T08:02:34Z</time>
      </trkpt>
      <trkpt lat="45.04453" lon="6.29846">
        <ele>1455.3572</ele>
        <time>2018-08-15T08:02:40Z</time>
      </trkpt>
      <trkpt lat="45.04451" lon="6.29865">
        <ele>1456.5671</ele>
        <time>2018-08-15T08:02:45Z</time>
      </trkpt>
      <trkpt lat="45.04448" lon="6.29886">
        <ele>1457.7206</ele>
        <time>2018-08-15T08:02:51Z</time>
      </trkpt>
      <trkpt lat="45.04446" lon="6.2991">
        <ele>1459.0476</ele>
        <time>2018-08-15T08:02:57Z</time>
      </trkpt>
      <trkpt lat="45.04445" lon="6.2993">
        <ele>1460.2333</ele>
        <time>2018-08-15T08:03:02Z</time>
      </trkpt>
      <trkpt lat="45.04447" lon="6.29952">
        <ele>1461.5035</ele>
        <time>2018-08-15T08:03:07Z</time>
      </trkpt>
      <trkpt lat="45.04447" lon="6.29975">
        <ele>1462.9287</ele>
        <time>2018-08-15T08:03:13Z</time>
      </trkpt>
      <trkpt lat="45.04444" lon="6.29998">
        <ele>1464.1152</ele>
        <time>2018-08-15T08:03:19Z</time>
      </trkpt>
      <trkpt lat="45.04441" lon="6.30017">
        <ele>1465.1371</ele>
        <time>2018-08-15T08:03:24Z</time>
      </trkpt>
      <trkpt lat="45.04438" lon="6.30041">
        <ele>1466.2566</ele>
        <time>2018-08-15T08:03:30Z</time>
      </trkpt>
      <trkpt lat="45.04437" lon="6.30064">
        <ele>1467.2058</ele>
        <time>2018-08-15T08:03:36Z</time>
      </trkpt>
      <trkpt lat="45.04437" lon="6.30086">
        <ele>1468.0709</ele>
        <time>2018-08-15T08:03:42Z</time>
      </trkpt>
      <trkpt lat="45.04437" lon="6.30114">
        <ele>1468.8577</ele>
        <time>2018-08-15T08:03:48Z</time>
      </trkpt>
      <trkpt lat="45.0444" lon="6.30141">
        <ele>1469.7238</ele>
        <time>2018-08-15T08:03:54Z</time>
      </trkpt>
      <trkpt lat="45.04446" lon="6.30167">
        <ele>1470.5314</ele>
        <time>2018-08-15T08:04:00Z</time>
      </trkpt>
      <trkpt lat="45.04451" lon="6.30192">
        <ele>1471.9666</ele>
        <time>2018-08-15T08:04:05Z</time>
      </trkpt>
      <trkpt lat="45.04462" lon="6.30223">
        <ele>1476.4186</ele>
        <time>2018-08-15T08:04:11Z</time>
      </trkpt>
      <trkpt lat="45.04477" lon="6.30253">
        <ele>1479.3583</ele>
        <time>2018-08-15T08:04:17Z</time>
      </trkpt>
      <trkpt lat="45.04495" lon="6.30274">
        <ele>1477.4519</ele>
        <time>2018-08-15T08:04:23Z</time>
      </trkpt>
      <trkpt lat="45.04511" lon="6.30299">
        <ele>1474.5548</ele>
        <time>2018-08-15T08:04:29Z</time>
      </trkpt>
      <trkpt lat="45.04525" lon="6.3032">
        <ele>1476.8326</ele>
        <time>2018-08-15T08:04:34Z</time>
      </trkpt>
      <trkpt lat="45.04538" lon="6.30343">
        <ele>1478.2705</ele>
        <time>2018-08-15T08:04:39Z</time>
      </trkpt>
      <trkpt lat="45.0453" lon="6.30379">
        <ele>1480.4762</ele>
        <time>2018-08-15T08:04:45Z</time>
      </trkpt>
      <trkpt lat="45.04518" lon="6.30406">
        <ele>1480.8207</ele>
        <time>2018-08-15T08:04:51Z</time>
      </trkpt>
      <trkpt lat="45.04508" lon="6.30429">
        <ele>1481.2343</ele>
        <time>2018-08-15T08:04:57Z</time>
      </trkpt>
      <trkpt lat="45.04503" lon="6.30452">
        <ele>1481.4487</ele>
        <time>2018-08-15T08:05:02Z</time>
      </trkpt>
      <trkpt lat="45.04503" lon="6.30482">
        <ele>1481.726</ele>
        <time>2018-08-15T08:05:08Z</time>
      </trkpt>
      <trkpt lat="45.04507" lon="6.30506">
        <ele>1482.096</ele>
        <time>2018-08-15T08:05:13Z</time>
      </trkpt>
      <trkpt lat="45.04508" lon="6.30535">
        <ele>1482.3639</ele>
        <time>2018-08-15T08:05:19Z</time>
      </trkpt>
      <trkpt lat="45.04506" lon="6.30567">
        <ele>1482.2478</ele>
        <time>2018-08-15T08:05:25Z</time>
      </trkpt>
      <trkpt lat="45.04504" lon="6.30595">
        <ele>1481.7446</ele>
        <time>2018-08-15T08:05:31Z</time>
      </trkpt>
      <trkpt lat="45.04504" lon="6.30619">
        <ele>1481.4192</ele>
        <time>2018-08-15T08:05:36Z</time>
      </trkpt>
      <trkpt lat="45.04501" lon="6.30634">
        <ele>1481.5875</ele>
        <time>2018-08-15T08:05:44Z</time>
      </trkpt>
      <trkpt lat="45.04507" lon="6.30636">
        <ele>1489.1887</ele>
        <time>2018-08-15T08:07:16Z</time>
      </trkpt>
      <trkpt lat="45.04515" lon="6.30647">
        <ele>1490.0703</ele>
        <time>2018-08-15T08:07:21Z</time>
      </trkpt>
      <trkpt lat="45.04533" lon="6.30666">
        <ele>1490.9764</ele>
        <time>2018-08-15T08:07:27Z</time>
      </trkpt>
      <trkpt lat="45.04546" lon="6.30678">
        <ele>1491.9141</ele>
        <time>2018-08-15T08:07:32Z</time>
      </trkpt>
      <trkpt lat="45.04566" lon="6.30695">
        <ele>1497.2507</ele>
        <time>2018-08-15T08:07:38Z</time>
      </trkpt>
      <trkpt lat="45.04588" lon="6.30715">
        <ele>1501.2983</ele>
        <time>2018-08-15T08:07:44Z</time>
      </trkpt>
      <trkpt lat="45.0461" lon="6.30732">
        <ele>1501.278</ele>
        <time>2018-08-15T08:07:50Z</time>
      </trkpt>
      <trkpt lat="45.04629" lon="6.30755">
        <ele>1501.4111</ele>
        <time>2018-08-15T08:07:56Z</time>
      </trkpt>
      <trkpt lat="45.04633" lon="6.30781">
        <ele>1501.591</ele>
        <time>2018-08-15T08:08:01Z</time>
      </trkpt>
      <trkpt lat="45.04644" lon="6.30808">
        <ele>1501.3926</ele>
        <time>2018-08-15T08:08:07Z</time>
      </trkpt>
      <trkpt lat="45.04652" lon="6.30819">
        <ele>1501.0961</ele>
        <time>2018-08-15T08:08:13Z</time>
      </trkpt>
      <trkpt lat="45.04657" lon="6.30818">
        <ele>1491.0653</ele>
        <time>2018-08-15T08:10:24Z</time>
      </trkpt>
      <trkpt lat="45.04652" lon="6.3082">
        <ele>1491.046</ele>
        <time>2018-08-15T08:10:34Z</time>
      </trkpt>
      <trkpt lat="45.04649" lon="6.30827">
        <ele>1492.7123</ele>
        <time>2018-08-15T08:22:56Z</time>
      </trkpt>
      <trkpt lat="45.0465" lon="6.30854">
        <ele>1493.7249</ele>
        <time>2018-08-15T08:23:02Z</time>
      </trkpt>
      <trkpt lat="45.04654" lon="6.30882">
        <ele>1494.567</ele>
        <time>2018-08-15T08:23:08Z</time>
      </trkpt>
      <trkpt lat="45.04658" lon="6.30903">
        <ele>1495.2745</ele>
        <time>2018-08-15T08:23:13Z</time>
      </trkpt>
      <trkpt lat="45.04662" lon="6.30927">
        <ele>1496.053</ele>
        <time>2018-08-15T08:23:19Z</time>
      </trkpt>
      <trkpt lat="45.04665" lon="6.30952">
        <ele>1496.9648</ele>
        <time>2018-08-15T08:23:24Z</time>
      </trkpt>
      <trkpt lat="45.04669" lon="6.30974">
        <ele>1497.9395</ele>
        <time>2018-08-15T08:23:29Z</time>
      </trkpt>
      <trkpt lat="45.04673" lon="6.30997">
        <ele>1498.722</ele>
        <time>2018-08-15T08:23:34Z</time>
      </trkpt>
      <trkpt lat="45.04675" lon="6.31022">
        <ele>1499.3423</ele>
        <time>2018-08-15T08:23:39Z</time>
      </trkpt>
      <trkpt lat="45.04674" lon="6.31051">
        <ele>1500.0322</ele>
        <time>2018-08-15T08:23:45Z</time>
      </trkpt>
      <trkpt lat="45.04673" lon="6.31082">
        <ele>1500.5803</ele>
        <time>2018-08-15T08:23:51Z</time>
      </trkpt>
      <trkpt lat="45.04669" lon="6.31111">
        <ele>1501.0145</ele>
        <time>2018-08-15T08:23:57Z</time>
      </trkpt>
      <trkpt lat="45.04663" lon="6.31139">
        <ele>1501.3569</ele>
        <time>2018-08-15T08:24:03Z</time>
      </trkpt>
      <trkpt lat="45.04655" lon="6.31166">
        <ele>1501.5569</ele>
        <time>2018-08-15T08:24:09Z</time>
      </trkpt>
      <trkpt lat="45.04655" lon="6.3119">
        <ele>1501.0613</ele>
        <time>2018-08-15T08:24:17Z</time>
      </trkpt>
      <trkpt lat="45.04847" lon="6.31439">
        <ele>1497.4364</ele>
        <time>2018-08-15T08:25:20Z</time>
      </trkpt>
      <trkpt lat="45.04859" lon="6.31449">
        <ele>1498.9678</ele>
        <time>2018-08-15T08:25:25Z</time>
      </trkpt>
      <trkpt lat="45.04873" lon="6.31468">
        <ele>1499.6992</ele>
        <time>2018-08-15T08:25:31Z</time>
      </trkpt>
      <trkpt lat="45.049" lon="6.31508">
        <ele>1500.8828</ele>
        <time>2018-08-15T08:25:37Z</time>
      </trkpt>
      <trkpt lat="45.04902" lon="6.31548">
        <ele>1502.0186</ele>
        <time>2018-08-15T08:25:43Z</time>
      </trkpt>
      <trkpt lat="45.04887" lon="6.31576">
        <ele>1503.2031</ele>
        <time>2018-08-15T08:25:49Z</time>
      </trkpt>
      <trkpt lat="45.0487" lon="6.3159">
        <ele>1505.1608</ele>
        <time>2018-08-15T08:25:54Z</time>
      </trkpt>
      <trkpt lat="45.04852" lon="6.31605">
        <ele>1505.6577</ele>
        <time>2018-08-15T08:25:59Z</time>
      </trkpt>
      <trkpt lat="45.04838" lon="6.31617">
        <ele>1506.7743</ele>
        <time>2018-08-15T08:26:05Z</time>
      </trkpt>
      <trkpt lat="45.04821" lon="6.31633">
        <ele>1508.3489</ele>
        <time>2018-08-15T08:26:11Z</time>
      </trkpt>
      <trkpt lat="45.0481" lon="6.31646">
        <ele>1510.1515</ele>
        <time>2018-08-15T08:26:17Z</time>
      </trkpt>
      <trkpt lat="45.04797" lon="6.31664">
        <ele>1511.6388</ele>
        <time>2018-08-15T08:26:23Z</time>
      </trkpt>
      <trkpt lat="45.04788" lon="6.31678">
        <ele>1512.7992</ele>
        <time>2018-08-15T08:26:28Z</time>
      </trkpt>
      <trkpt lat="45.04776" lon="6.31697">
        <ele>1513.9972</ele>
        <time>2018-08-15T08:26:34Z</time>
      </trkpt>
      <trkpt lat="45.04767" lon="6.31716">
        <ele>1515.0872</ele>
        <time>2018-08-15T08:26:40Z</time>
      </trkpt>
      <trkpt lat="45.04764" lon="6.31735">
        <ele>1516.0453</ele>
        <time>2018-08-15T08:26:45Z</time>
      </trkpt>
      <trkpt lat="45.04767" lon="6.31761">
        <ele>1517.3276</ele>
        <time>2018-08-15T08:26:51Z</time>
      </trkpt>
      <trkpt lat="45.04775" lon="6.3178">
        <ele>1518.5099</ele>
        <time>2018-08-15T08:26:56Z</time>
      </trkpt>
      <trkpt lat="45.04787" lon="6.31793">
        <ele>1519.7856</ele>
        <time>2018-08-15T08:27:01Z</time>
      </trkpt>
      <trkpt lat="45.04803" lon="6.31808">
        <ele>1521.27</ele>
        <time>2018-08-15T08:27:07Z</time>
      </trkpt>
      <trkpt lat="45.04814" lon="6.31829">
        <ele>1522.576</ele>
        <time>2018-08-15T08:27:13Z</time>
      </trkpt>
      <trkpt lat="45.04819" lon="6.31849">
        <ele>1523.7139</ele>
        <time>2018-08-15T08:27:18Z</time>
      </trkpt>
      <trkpt lat="45.04823" lon="6.31868">
        <ele>1525.0303</ele>
        <time>2018-08-15T08:27:23Z</time>
      </trkpt>
      <trkpt lat="45.04827" lon="6.31889">
        <ele>1526.652</ele>
        <time>2018-08-15T08:27:28Z</time>
      </trkpt>
      <trkpt lat="45.0483" lon="6.3191">
        <ele>1528.8188</ele>
        <time>2018-08-15T08:27:33Z</time>
      </trkpt>
      <trkpt lat="45.04831" lon="6.31934">
        <ele>1531.4071</ele>
        <time>2018-08-15T08:27:38Z</time>
      </trkpt>
      <trkpt lat="45.04832" lon="6.31964">
        <ele>1534.3108</ele>
        <time>2018-08-15T08:27:44Z</time>
      </trkpt>
      <trkpt lat="45.04829" lon="6.31994">
        <ele>1536.9967</ele>
        <time>2018-08-15T08:27:50Z</time>
      </trkpt>
      <trkpt lat="45.04823" lon="6.32017">
        <ele>1538.9766</ele>
        <time>2018-08-15T08:27:56Z</time>
      </trkpt>
      <trkpt lat="45.04818" lon="6.3204">
        <ele>1539.893</ele>
        <time>2018-08-15T08:28:02Z</time>
      </trkpt>
      <trkpt lat="45.04816" lon="6.32061">
        <ele>1540.272</ele>
        <time>2018-08-15T08:28:07Z</time>
      </trkpt>
      <trkpt lat="45.04814" lon="6.32084">
        <ele>1540.7493</ele>
        <time>2018-08-15T08:28:13Z</time>
      </trkpt>
      <trkpt lat="45.04815" lon="6.32112">
        <ele>1541.298</ele>
        <time>2018-08-15T08:28:19Z</time>
      </trkpt>
      <trkpt lat="45.04814" lon="6.32131">
        <ele>1541.8298</ele>
        <time>2018-08-15T08:28:24Z</time>
      </trkpt>
      <trkpt lat="45.04814" lon="6.32158">
        <ele>1542.6055</ele>
        <time>2018-08-15T08:28:30Z</time>
      </trkpt>
      <trkpt lat="45.04816" lon="6.32184">
        <ele>1543.4714</ele>
        <time>2018-08-15T08:28:36Z</time>
      </trkpt>
      <trkpt lat="45.04819" lon="6.32205">
        <ele>1544.2183</ele>
        <time>2018-08-15T08:28:42Z</time>
      </trkpt>
      <trkpt lat="45.04575" lon="6.32838">
        <ele>1551.9008</ele>
        <time>2018-08-15T08:31:31Z</time>
      </trkpt>
      <trkpt lat="45.04573" lon="6.32854">
        <ele>1555.6936</ele>
        <time>2018-08-15T08:31:36Z</time>
      </trkpt>
      <trkpt lat="45.04565" lon="6.32867">
        <ele>1557.5021</ele>
        <time>2018-08-15T08:31:42Z</time>
      </trkpt>
      <trkpt lat="45.04554" lon="6.3289">
        <ele>1558.9589</ele>
        <time>2018-08-15T08:31:47Z</time>
      </trkpt>
      <trkpt lat="45.04549" lon="6.32908">
        <ele>1561.2162</ele>
        <time>2018-08-15T08:31:53Z</time>
      </trkpt>
      <trkpt lat="45.04548" lon="6.32924">
        <ele>1563.7117</ele>
        <time>2018-08-15T08:31:59Z</time>
      </trkpt>
      <trkpt lat="45.04559" lon="6.3294">
        <ele>1568.5175</ele>
        <time>2018-08-15T08:32:05Z</time>
      </trkpt>
      <trkpt lat="45.04572" lon="6.32939">
        <ele>1569.7603</ele>
        <time>2018-08-15T08:32:10Z</time>
      </trkpt>
      <trkpt lat="45.04582" lon="6.32925">
        <ele>1570.8693</ele>
        <time>2018-08-15T08:32:15Z</time>
      </trkpt>
      <trkpt lat="45.04588" lon="6.329">
        <ele>1572.3164</ele>
        <time>2018-08-15T08:32:21Z</time>
      </trkpt>
      <trkpt lat="45.04594" lon="6.32884">
        <ele>1573.4692</ele>
        <time>2018-08-15T08:32:26Z</time>
      </trkpt>
      <trkpt lat="45.04606" lon="6.32878">
        <ele>1574.5593</ele>
        <time>2018-08-15T08:32:31Z</time>
      </trkpt>
      <trkpt lat="45.04618" lon="6.32891">
        <ele>1575.8431</ele>
        <time>2018-08-15T08:32:37Z</time>
      </trkpt>
      <trkpt lat="45.04622" lon="6.32909">
        <ele>1576.8386</ele>
        <time>2018-08-15T08:32:42Z</time>
      </trkpt>
      <trkpt lat="45.04622" lon="6.32932">
        <ele>1578.0359</ele>
        <time>2018-08-15T08:32:48Z</time>
      </trkpt>
      <trkpt lat="45.04622" lon="6.3295">
        <ele>1579.1436</ele>
        <time>2018-08-15T08:32:53Z</time>
      </trkpt>
      <trkpt lat="45.04621" lon="6.32976">
        <ele>1580.5195</ele>
        <time>2018-08-15T08:32:59Z</time>
      </trkpt>
      <trkpt lat="45.04621" lon="6.33004">
        <ele>1581.808</ele>
        <time>2018-08-15T08:33:05Z</time>
      </trkpt>
      <trkpt lat="45.0462" lon="6.33029">
        <ele>1582.8068</ele>
        <time>2018-08-15T08:33:10Z</time>
      </trkpt>
      <trkpt lat="45.04619" lon="6.33051">
        <ele>1583.8038</ele>
        <time>2018-08-15T08:33:15Z</time>
      </trkpt>
      <trkpt lat="45.04618" lon="6.3308">
        <ele>1584.8787</ele>
        <time>2018-08-15T08:33:21Z</time>
      </trkpt>
      <trkpt lat="45.04615" lon="6.3311">
        <ele>1585.8904</ele>
        <time>2018-08-15T08:33:27Z</time>
      </trkpt>
      <trkpt lat="45.0461" lon="6.33134">
        <ele>1586.6998</ele>
        <time>2018-08-15T08:33:32Z</time>
      </trkpt>
      <trkpt lat="45.04599" lon="6.33161">
        <ele>1587.8147</ele>
        <time>2018-08-15T08:33:38Z</time>
      </trkpt>
      <trkpt lat="45.04584" lon="6.33174">
        <ele>1588.8723</ele>
        <time>2018-08-15T08:33:43Z</time>
      </trkpt>
      <trkpt lat="45.04567" lon="6.33184">
        <ele>1590.2322</ele>
        <time>2018-08-15T08:33:49Z</time>
      </trkpt>
      <trkpt lat="45.04547" lon="6.33191">
        <ele>1591.6656</ele>
        <time>2018-08-15T08:33:55Z</time>
      </trkpt>
      <trkpt lat="45.04531" lon="6.33192">
        <ele>1592.9247</ele>
        <time>2018-08-15T08:34:00Z</time>
      </trkpt>
      <trkpt lat="45.04511" lon="6.33193">
        <ele>1594.2909</ele>
        <time>2018-08-15T08:34:06Z</time>
      </trkpt>
      <trkpt lat="45.04493" lon="6.33189">
        <ele>1595.6189</ele>
        <time>2018-08-15T08:34:12Z</time>
      </trkpt>
      <trkpt lat="45.0448" lon="6.33184">
        <ele>1596.6974</ele>
        <time>2018-08-15T08:34:17Z</time>
      </trkpt>
      <trkpt lat="45.04466" lon="6.33176">
        <ele>1597.9729</ele>
        <time>2018-08-15T08:34:23Z</time>
      </trkpt>
      <trkpt lat="45.04455" lon="6.33167">
        <ele>1599.0193</ele>
        <time>2018-08-15T08:34:28Z</time>
      </trkpt>
      <trkpt lat="45.04442" lon="6.33157">
        <ele>1600.0099</ele>
        <time>2018-08-15T08:34:33Z</time>
      </trkpt>
      <trkpt lat="45.04427" lon="6.33147">
        <ele>1601.138</ele>
        <time>2018-08-15T08:34:39Z</time>
      </trkpt>
      <trkpt lat="45.04413" lon="6.33137">
        <ele>1602.023</ele>
        <time>2018-08-15T08:34:44Z</time>
      </trkpt>
      <trkpt lat="45.04398" lon="6.33127">
        <ele>1603.1686</ele>
        <time>2018-08-15T08:34:50Z</time>
      </trkpt>
      <trkpt lat="45.04379" lon="6.33122">
        <ele>1604.3679</ele>
        <time>2018-08-15T08:34:56Z</time>
      </trkpt>
      <trkpt lat="45.04363" lon="6.33127">
        <ele>1605.4984</ele>
        <time>2018-08-15T08:35:02Z</time>
      </trkpt>
      <trkpt lat="45.04348" lon="6.33142">
        <ele>1606.8723</ele>
        <time>2018-08-15T08:35:08Z</time>
      </trkpt>
      <trkpt lat="45.04338" lon="6.33155">
        <ele>1608.0486</ele>
        <time>2018-08-15T08:35:13Z</time>
      </trkpt>
      <trkpt lat="45.0433" lon="6.33172">
        <ele>1609.1311</ele>
        <time>2018-08-15T08:35:18Z</time>
      </trkpt>
      <trkpt lat="45.04321" lon="6.3319">
        <ele>1610.5233</ele>
        <time>2018-08-15T08:35:24Z</time>
      </trkpt>
      <trkpt lat="45.04316" lon="6.33206">
        <ele>1612.054</ele>
        <time>2018-08-15T08:35:30Z</time>
      </trkpt>
      <trkpt lat="45.04316" lon="6.33223">
        <ele>1613.5725</ele>
        <time>2018-08-15T08:35:36Z</time>
      </trkpt>
      <trkpt lat="45.04321" lon="6.3324">
        <ele>1615.1151</ele>
        <time>2018-08-15T08:35:42Z</time>
      </trkpt>
      <trkpt lat="45.04331" lon="6.33255">
        <ele>1616.6108</ele>
        <time>2018-08-15T08:35:48Z</time>
      </trkpt>
      <trkpt lat="45.0434" lon="6.33268">
        <ele>1617.7068</ele>
        <time>2018-08-15T08:35:53Z</time>
      </trkpt>
      <trkpt lat="45.04353" lon="6.33285">
        <ele>1618.8983</ele>
        <time>2018-08-15T08:35:59Z</time>
      </trkpt>
      <trkpt lat="45.04364" lon="6.333">
        <ele>1619.8156</ele>
        <time>2018-08-15T08:36:04Z</time>
      </trkpt>
      <trkpt lat="45.04378" lon="6.33317">
        <ele>1620.8796</ele>
        <time>2018-08-15T08:36:10Z</time>
      </trkpt>
      <trkpt lat="45.04392" lon="6.33333">
        <ele>1621.9142</ele>
        <time>2018-08-15T08:36:16Z</time>
      </trkpt>
      <trkpt lat="45.04409" lon="6.33344">
        <ele>1622.8303</ele>
        <time>2018-08-15T08:36:22Z</time>
      </trkpt>
      <trkpt lat="45.04427" lon="6.33349">
        <ele>1623.7052</ele>
        <time>2018-08-15T08:36:28Z</time>
      </trkpt>
      <trkpt lat="45.04447" lon="6.33351">
        <ele>1624.4058</ele>
        <time>2018-08-15T08:36:34Z</time>
      </trkpt>
      <trkpt lat="45.04464" lon="6.3335">
        <ele>1625.1577</ele>
        <time>2018-08-15T08:36:40Z</time>
      </trkpt>
      <trkpt lat="45.0448" lon="6.33348">
        <ele>1625.8196</ele>
        <time>2018-08-15T08:36:45Z</time>
      </trkpt>
      <trkpt lat="45.04495" lon="6.33346">
        <ele>1626.578</ele>
        <time>2018-08-15T08:36:50Z</time>
      </trkpt>
      <trkpt lat="45.04515" lon="6.33345">
        <ele>1627.5256</ele>
        <time>2018-08-15T08:36:56Z</time>
      </trkpt>
      <trkpt lat="45.04535" lon="6.33345">
        <ele>1628.4125</ele>
        <time>2018-08-15T08:37:02Z</time>
      </trkpt>
      <trkpt lat="45.04554" lon="6.33344">
        <ele>1629.2112</ele>
        <time>2018-08-15T08:37:08Z</time>
      </trkpt>
      <trkpt lat="45.0457" lon="6.33343">
        <ele>1629.8446</ele>
        <time>2018-08-15T08:37:13Z</time>
      </trkpt>
      <trkpt lat="45.04583" lon="6.33353">
        <ele>1630.4513</ele>
        <time>2018-08-15T08:37:18Z</time>
      </trkpt>
      <trkpt lat="45.04573" lon="6.33371">
        <ele>1631.1703</ele>
        <time>2018-08-15T08:37:24Z</time>
      </trkpt>
      <trkpt lat="45.04557" lon="6.33373">
        <ele>1631.8376</ele>
        <time>2018-08-15T08:37:30Z</time>
      </trkpt>
      <trkpt lat="45.04543" lon="6.33375">
        <ele>1632.3694</ele>
        <time>2018-08-15T08:37:35Z</time>
      </trkpt>
      <trkpt lat="45.04527" lon="6.33378">
        <ele>1633.0051</ele>
        <time>2018-08-15T08:37:41Z</time>
      </trkpt>
      <trkpt lat="45.04512" lon="6.33385">
        <ele>1633.6947</ele>
        <time>2018-08-15T08:37:47Z</time>
      </trkpt>
      <trkpt lat="45.04496" lon="6.33399">
        <ele>1634.9191</ele>
        <time>2018-08-15T08:37:53Z</time>
      </trkpt>
      <trkpt lat="45.04481" lon="6.33415">
        <ele>1636.4803</ele>
        <time>2018-08-15T08:37:59Z</time>
      </trkpt>
      <trkpt lat="45.04468" lon="6.33431">
        <ele>1637.9589</ele>
        <time>2018-08-15T08:38:05Z</time>
      </trkpt>
      <trkpt lat="45.04454" lon="6.33448">
        <ele>1639.3921</ele>
        <time>2018-08-15T08:38:11Z</time>
      </trkpt>
      <trkpt lat="45.04445" lon="6.33461">
        <ele>1640.6838</ele>
        <time>2018-08-15T08:38:16Z</time>
      </trkpt>
      <trkpt lat="45.04436" lon="6.33478">
        <ele>1642.2303</ele>
        <time>2018-08-15T08:38:22Z</time>
      </trkpt>
      <trkpt lat="45.0443" lon="6.33495">
        <ele>1643.7526</ele>
        <time>2018-08-15T08:38:28Z</time>
      </trkpt>
      <trkpt lat="45.04426" lon="6.33514">
        <ele>1645.4552</ele>
        <time>2018-08-15T08:38:34Z</time>
      </trkpt>
      <trkpt lat="45.04424" lon="6.33533">
        <ele>1646.8278</ele>
        <time>2018-08-15T08:38:40Z</time>
      </trkpt>
      <trkpt lat="45.04423" lon="6.33555">
        <ele>1648.0295</ele>
        <time>2018-08-15T08:38:46Z</time>
      </trkpt>
      <trkpt lat="45.04423" lon="6.33576">
        <ele>1649.0751</ele>
        <time>2018-08-15T08:38:52Z</time>
      </trkpt>
      <trkpt lat="45.04424" lon="6.33595">
        <ele>1650.2676</ele>
        <time>2018-08-15T08:38:58Z</time>
      </trkpt>
      <trkpt lat="45.04422" lon="6.33619">
        <ele>1651.438</ele>
        <time>2018-08-15T08:39:04Z</time>
      </trkpt>
      <trkpt lat="45.04421" lon="6.33637">
        <ele>1652.2484</ele>
        <time>2018-08-15T08:39:09Z</time>
      </trkpt>
      <trkpt lat="45.0442" lon="6.33657">
        <ele>1653.0654</ele>
        <time>2018-08-15T08:39:14Z</time>
      </trkpt>
      <trkpt lat="45.04417" lon="6.33673">
        <ele>1653.7922</ele>
        <time>2018-08-15T08:39:19Z</time>
      </trkpt>
      <trkpt lat="45.04411" lon="6.33695">
        <ele>1654.6235</ele>
        <time>2018-08-15T08:39:25Z</time>
      </trkpt>
      <trkpt lat="45.04405" lon="6.33713">
        <ele>1655.3254</ele>
        <time>2018-08-15T08:39:30Z</time>
      </trkpt>
      <trkpt lat="45.04395" lon="6.33734">
        <ele>1656.1107</ele>
        <time>2018-08-15T08:39:36Z</time>
      </trkpt>
      <trkpt lat="45.04385" lon="6.33753">
        <ele>1656.678</ele>
        <time>2018-08-15T08:39:41Z</time>
      </trkpt>
      <trkpt lat="45.04373" lon="6.33768">
        <ele>1657.4207</ele>
        <time>2018-08-15T08:39:46Z</time>
      </trkpt>
      <trkpt lat="45.04359" lon="6.33782">
        <ele>1658.5084</ele>
        <time>2018-08-15T08:39:51Z</time>
      </trkpt>
      <trkpt lat="45.04343" lon="6.33799">
        <ele>1659.8196</ele>
        <time>2018-08-15T08:39:57Z</time>
      </trkpt>
      <trkpt lat="45.04331" lon="6.33812">
        <ele>1660.6305</ele>
        <time>2018-08-15T08:40:02Z</time>
      </trkpt>
      <trkpt lat="45.04316" lon="6.33826">
        <ele>1661.7179</ele>
        <time>2018-08-15T08:40:08Z</time>
      </trkpt>
      <trkpt lat="45.04302" lon="6.3384">
        <ele>1663.0239</ele>
        <time>2018-08-15T08:40:14Z</time>
      </trkpt>
      <trkpt lat="45.04289" lon="6.33854">
        <ele>1664.4061</ele>
        <time>2018-08-15T08:40:19Z</time>
      </trkpt>
      <trkpt lat="45.04275" lon="6.33869">
        <ele>1666.2737</ele>
        <time>2018-08-15T08:40:25Z</time>
      </trkpt>
      <trkpt lat="45.04266" lon="6.33884">
        <ele>1667.5479</ele>
        <time>2018-08-15T08:40:30Z</time>
      </trkpt>
      <trkpt lat="45.04257" lon="6.33907">
        <ele>1668.7382</ele>
        <time>2018-08-15T08:40:36Z</time>
      </trkpt>
      <trkpt lat="45.04251" lon="6.33929">
        <ele>1669.8503</ele>
        <time>2018-08-15T08:40:42Z</time>
      </trkpt>
      <trkpt lat="45.04244" lon="6.33947">
        <ele>1670.7291</ele>
        <time>2018-08-15T08:40:47Z</time>
      </trkpt>
      <trkpt lat="45.04235" lon="6.33963">
        <ele>1671.5496</ele>
        <time>2018-08-15T08:40:52Z</time>
      </trkpt>
      <trkpt lat="45.04225" lon="6.33975">
        <ele>1672.3811</ele>
        <time>2018-08-15T08:40:57Z</time>
      </trkpt>
      <trkpt lat="45.04211" lon="6.33983">
        <ele>1673.4832</ele>
        <time>2018-08-15T08:41:03Z</time>
      </trkpt>
      <trkpt lat="45.04199" lon="6.33991">
        <ele>1674.477</ele>
        <time>2018-08-15T08:41:08Z</time>
      </trkpt>
      <trkpt lat="45.04185" lon="6.34007">
        <ele>1675.7186</ele>
        <time>2018-08-15T08:41:14Z</time>
      </trkpt>
      <trkpt lat="45.04174" lon="6.34026">
        <ele>1676.9711</ele>
        <time>2018-08-15T08:41:20Z</time>
      </trkpt>
      <trkpt lat="45.04165" lon="6.34045">
        <ele>1678.2625</ele>
        <time>2018-08-15T08:41:26Z</time>
      </trkpt>
      <trkpt lat="45.04158" lon="6.34061">
        <ele>1679.3376</ele>
        <time>2018-08-15T08:41:31Z</time>
      </trkpt>
      <trkpt lat="45.04149" lon="6.34076">
        <ele>1680.3643</ele>
        <time>2018-08-15T08:41:36Z</time>
      </trkpt>
      <trkpt lat="45.04138" lon="6.34092">
        <ele>1681.6355</ele>
        <time>2018-08-15T08:41:42Z</time>
      </trkpt>
      <trkpt lat="45.04131" lon="6.34109">
        <ele>1682.9305</ele>
        <time>2018-08-15T08:41:48Z</time>
      </trkpt>
      <trkpt lat="45.04126" lon="6.34128">
        <ele>1684.2501</ele>
        <time>2018-08-15T08:41:54Z</time>
      </trkpt>
      <trkpt lat="45.04124" lon="6.34146">
        <ele>1685.5802</ele>
        <time>2018-08-15T08:42:00Z</time>
      </trkpt>
      <trkpt lat="45.04125" lon="6.34167">
        <ele>1686.7965</ele>
        <time>2018-08-15T08:42:06Z</time>
      </trkpt>
      <trkpt lat="45.04128" lon="6.3419">
        <ele>1687.984</ele>
        <time>2018-08-15T08:42:12Z</time>
      </trkpt>
      <trkpt lat="45.04131" lon="6.34209">
        <ele>1688.9497</ele>
        <time>2018-08-15T08:42:17Z</time>
      </trkpt>
      <trkpt lat="45.04134" lon="6.34227">
        <ele>1689.9384</ele>
        <time>2018-08-15T08:42:22Z</time>
      </trkpt>
      <trkpt lat="45.04137" lon="6.34252">
        <ele>1690.9868</ele>
        <time>2018-08-15T08:42:28Z</time>
      </trkpt>
      <trkpt lat="45.0414" lon="6.34276">
        <ele>1691.8694</ele>
        <time>2018-08-15T08:42:34Z</time>
      </trkpt>
      <trkpt lat="45.04142" lon="6.34296">
        <ele>1692.6526</ele>
        <time>2018-08-15T08:42:39Z</time>
      </trkpt>
      <trkpt lat="45.04143" lon="6.34316">
        <ele>1693.5001</ele>
        <time>2018-08-15T08:42:44Z</time>
      </trkpt>
      <trkpt lat="45.0414" lon="6.34339">
        <ele>1694.4425</ele>
        <time>2018-08-15T08:42:50Z</time>
      </trkpt>
      <trkpt lat="45.04135" lon="6.34361">
        <ele>1695.3726</ele>
        <time>2018-08-15T08:42:56Z</time>
      </trkpt>
      <trkpt lat="45.04131" lon="6.34378">
        <ele>1696.164</ele>
        <time>2018-08-15T08:43:01Z</time>
      </trkpt>
      <trkpt lat="45.04126" lon="6.34398">
        <ele>1697.106</ele>
        <time>2018-08-15T08:43:07Z</time>
      </trkpt>
      <trkpt lat="45.04121" lon="6.34418">
        <ele>1698.047</ele>
        <time>2018-08-15T08:43:13Z</time>
      </trkpt>
      <trkpt lat="45.04116" lon="6.3444">
        <ele>1699.0208</ele>
        <time>2018-08-15T08:43:19Z</time>
      </trkpt>
      <trkpt lat="45.04112" lon="6.34458">
        <ele>1699.9001</ele>
        <time>2018-08-15T08:43:24Z</time>
      </trkpt>
      <trkpt lat="45.04108" lon="6.34476">
        <ele>1700.8276</ele>
        <time>2018-08-15T08:43:29Z</time>
      </trkpt>
      <trkpt lat="45.04104" lon="6.34493">
        <ele>1701.7183</ele>
        <time>2018-08-15T08:43:34Z</time>
      </trkpt>
      <trkpt lat="45.04102" lon="6.34514">
        <ele>1703.0729</ele>
        <time>2018-08-15T08:43:40Z</time>
      </trkpt>
      <trkpt lat="45.04101" lon="6.34537">
        <ele>1704.3066</ele>
        <time>2018-08-15T08:43:46Z</time>
      </trkpt>
      <trkpt lat="45.04102" lon="6.34554">
        <ele>1705.2882</ele>
        <time>2018-08-15T08:43:51Z</time>
      </trkpt>
      <trkpt lat="45.04105" lon="6.34571">
        <ele>1706.2434</ele>
        <time>2018-08-15T08:43:56Z</time>
      </trkpt>
      <trkpt lat="45.04109" lon="6.34588">
        <ele>1707.2047</ele>
        <time>2018-08-15T08:44:01Z</time>
      </trkpt>
      <trkpt lat="45.04115" lon="6.34602">
        <ele>1708.1708</ele>
        <time>2018-08-15T08:44:06Z</time>
      </trkpt>
      <trkpt lat="45.04124" lon="6.3462">
        <ele>1709.2474</ele>
        <time>2018-08-15T08:44:12Z</time>
      </trkpt>
      <trkpt lat="45.04133" lon="6.34637">
        <ele>1710.1749</ele>
        <time>2018-08-15T08:44:17Z</time>
      </trkpt>
      <trkpt lat="45.0414" lon="6.34654">
        <ele>1711.3474</ele>
        <time>2018-08-15T08:44:23Z</time>
      </trkpt>
      <trkpt lat="45.04144" lon="6.34674">
        <ele>1712.6116</ele>
        <time>2018-08-15T08:44:29Z</time>
      </trkpt>
      <trkpt lat="45.04146" lon="6.34692">
        <ele>1713.6257</ele>
        <time>2018-08-15T08:44:34Z</time>
      </trkpt>
      <trkpt lat="45.04145" lon="6.34711">
        <ele>1714.614</ele>
        <time>2018-08-15T08:44:39Z</time>
      </trkpt>
      <trkpt lat="45.04141" lon="6.34732">
        <ele>1715.7922</ele>
        <time>2018-08-15T08:44:45Z</time>
      </trkpt>
      <trkpt lat="45.04134" lon="6.34754">
        <ele>1716.9944</ele>
        <time>2018-08-15T08:44:51Z</time>
      </trkpt>
      <trkpt lat="45.04127" lon="6.34769">
        <ele>1718.2357</ele>
        <time>2018-08-15T08:44:56Z</time>
      </trkpt>
      <trkpt lat="45.0412" lon="6.34788">
        <ele>1719.7375</ele>
        <time>2018-08-15T08:45:02Z</time>
      </trkpt>
      <trkpt lat="45.04115" lon="6.34809">
        <ele>1721.005</ele>
        <time>2018-08-15T08:45:08Z</time>
      </trkpt>
      <trkpt lat="45.04114" lon="6.34824">
        <ele>1722.2686</ele>
        <time>2018-08-15T08:45:13Z</time>
      </trkpt>
      <trkpt lat="45.04115" lon="6.34848">
        <ele>1723.9493</ele>
        <time>2018-08-15T08:45:19Z</time>
      </trkpt>
      <trkpt lat="45.04114" lon="6.34867">
        <ele>1725.1129</ele>
        <time>2018-08-15T08:45:24Z</time>
      </trkpt>
      <trkpt lat="45.04115" lon="6.34889">
        <ele>1726.3373</ele>
        <time>2018-08-15T08:45:30Z</time>
      </trkpt>
      <trkpt lat="45.04116" lon="6.34913">
        <ele>1727.4857</ele>
        <time>2018-08-15T08:45:36Z</time>
      </trkpt>
      <trkpt lat="45.04117" lon="6.34932">
        <ele>1728.4049</ele>
        <time>2018-08-15T08:45:41Z</time>
      </trkpt>
      <trkpt lat="45.04118" lon="6.34956">
        <ele>1729.4547</ele>
        <time>2018-08-15T08:45:47Z</time>
      </trkpt>
      <trkpt lat="45.0412" lon="6.34978">
        <ele>1730.6138</ele>
        <time>2018-08-15T08:45:53Z</time>
      </trkpt>
      <trkpt lat="45.04123" lon="6.35004">
        <ele>1732.0818</ele>
        <time>2018-08-15T08:45:59Z</time>
      </trkpt>
      <trkpt lat="45.04124" lon="6.35029">
        <ele>1733.3109</ele>
        <time>2018-08-15T08:46:05Z</time>
      </trkpt>
      <trkpt lat="45.04125" lon="6.35049">
        <ele>1734.153</ele>
        <time>2018-08-15T08:46:10Z</time>
      </trkpt>
      <trkpt lat="45.04121" lon="6.35071">
        <ele>1735.0609</ele>
        <time>2018-08-15T08:46:16Z</time>
      </trkpt>
      <trkpt lat="45.04116" lon="6.35086">
        <ele>1735.878</ele>
        <time>2018-08-15T08:46:21Z</time>
      </trkpt>
      <trkpt lat="45.0411" lon="6.35107">
        <ele>1736.8877</ele>
        <time>2018-08-15T08:46:27Z</time>
      </trkpt>
      <trkpt lat="45.04106" lon="6.35127">
        <ele>1737.8964</ele>
        <time>2018-08-15T08:46:33Z</time>
      </trkpt>
      <trkpt lat="45.04108" lon="6.3515">
        <ele>1738.9414</ele>
        <time>2018-08-15T08:46:39Z</time>
      </trkpt>
      <trkpt lat="45.04112" lon="6.3517">
        <ele>1740.0336</ele>
        <time>2018-08-15T08:46:45Z</time>
      </trkpt>
      <trkpt lat="45.04118" lon="6.35189">
        <ele>1741.0936</ele>
        <time>2018-08-15T08:46:51Z</time>
      </trkpt>
      <trkpt lat="45.04123" lon="6.35206">
        <ele>1742.1229</ele>
        <time>2018-08-15T08:46:56Z</time>
      </trkpt>
      <trkpt lat="45.04127" lon="6.35228">
        <ele>1743.383</ele>
        <time>2018-08-15T08:47:02Z</time>
      </trkpt>
      <trkpt lat="45.0413" lon="6.35249">
        <ele>1744.4003</ele>
        <time>2018-08-15T08:47:08Z</time>
      </trkpt>
      <trkpt lat="45.04133" lon="6.35266">
        <ele>1745.2927</ele>
        <time>2018-08-15T08:47:13Z</time>
      </trkpt>
      <trkpt lat="45.04137" lon="6.3529">
        <ele>1746.4575</ele>
        <time>2018-08-15T08:47:19Z</time>
      </trkpt>
      <trkpt lat="45.04141" lon="6.35309">
        <ele>1747.5789</ele>
        <time>2018-08-15T08:47:24Z</time>
      </trkpt>
      <trkpt lat="45.04146" lon="6.35332">
        <ele>1749.0187</ele>
        <time>2018-08-15T08:47:30Z</time>
      </trkpt>
      <trkpt lat="45.0415" lon="6.3535">
        <ele>1750.1799</ele>
        <time>2018-08-15T08:47:35Z</time>
      </trkpt>
      <trkpt lat="45.04156" lon="6.35371">
        <ele>1751.3951</ele>
        <time>2018-08-15T08:47:41Z</time>
      </trkpt>
      <trkpt lat="45.04164" lon="6.35393">
        <ele>1752.4275</ele>
        <time>2018-08-15T08:47:47Z</time>
      </trkpt>
      <trkpt lat="45.04173" lon="6.35412">
        <ele>1753.2568</ele>
        <time>2018-08-15T08:47:53Z</time>
      </trkpt>
      <trkpt lat="45.04183" lon="6.3543">
        <ele>1754.0193</ele>
        <time>2018-08-15T08:47:59Z</time>
      </trkpt>
      <trkpt lat="45.04195" lon="6.35446">
        <ele>1754.8812</ele>
        <time>2018-08-15T08:48:05Z</time>
      </trkpt>
      <trkpt lat="45.04209" lon="6.3546">
        <ele>1755.8978</ele>
        <time>2018-08-15T08:48:11Z</time>
      </trkpt>
      <trkpt lat="45.04222" lon="6.35474">
        <ele>1756.9836</ele>
        <time>2018-08-15T08:48:17Z</time>
      </trkpt>
      <trkpt lat="45.04233" lon="6.35486">
        <ele>1757.9307</ele>
        <time>2018-08-15T08:48:22Z</time>
      </trkpt>
      <trkpt lat="45.04242" lon="6.35506">
        <ele>1759.0653</ele>
        <time>2018-08-15T08:48:28Z</time>
      </trkpt>
      <trkpt lat="45.04244" lon="6.35523">
        <ele>1760.0994</ele>
        <time>2018-08-15T08:48:33Z</time>
      </trkpt>
      <trkpt lat="45.0424" lon="6.35542">
        <ele>1761.1052</ele>
        <time>2018-08-15T08:48:38Z</time>
      </trkpt>
      <trkpt lat="45.0423" lon="6.35562">
        <ele>1762.3564</ele>
        <time>2018-08-15T08:48:44Z</time>
      </trkpt>
      <trkpt lat="45.0422" lon="6.35577">
        <ele>1763.3319</ele>
        <time>2018-08-15T08:48:49Z</time>
      </trkpt>
      <trkpt lat="45.04208" lon="6.35593">
        <ele>1764.398</ele>
        <time>2018-08-15T08:48:55Z</time>
      </trkpt>
      <trkpt lat="45.04196" lon="6.35607">
        <ele>1765.2471</ele>
        <time>2018-08-15T08:49:01Z</time>
      </trkpt>
      <trkpt lat="45.04183" lon="6.35617">
        <ele>1766.0671</ele>
        <time>2018-08-15T08:49:07Z</time>
      </trkpt>
      <trkpt lat="45.04167" lon="6.3562">
        <ele>1766.9801</ele>
        <time>2018-08-15T08:49:13Z</time>
      </trkpt>
      <trkpt lat="45.04152" lon="6.35626">
        <ele>1768.0483</ele>
        <time>2018-08-15T08:49:19Z</time>
      </trkpt>
      <trkpt lat="45.04138" lon="6.35633">
        <ele>1769.1887</ele>
        <time>2018-08-15T08:49:25Z</time>
      </trkpt>
      <trkpt lat="45.04124" lon="6.35644">
        <ele>1770.3666</ele>
        <time>2018-08-15T08:49:31Z</time>
      </trkpt>
      <trkpt lat="45.04112" lon="6.3566">
        <ele>1771.5651</ele>
        <time>2018-08-15T08:49:37Z</time>
      </trkpt>
      <trkpt lat="45.041" lon="6.35682">
        <ele>1772.7383</ele>
        <time>2018-08-15T08:49:43Z</time>
      </trkpt>
      <trkpt lat="45.04091" lon="6.357">
        <ele>1773.865</ele>
        <time>2018-08-15T08:49:49Z</time>
      </trkpt>
      <trkpt lat="45.0408" lon="6.35716">
        <ele>1774.652</ele>
        <time>2018-08-15T08:49:54Z</time>
      </trkpt>
      <trkpt lat="45.04065" lon="6.35734">
        <ele>1779.4584</ele>
        <time>2018-08-15T08:49:59Z</time>
      </trkpt>
      <trkpt lat="45.04044" lon="6.35758">
        <ele>1781.6104</ele>
        <time>2018-08-15T08:50:05Z</time>
      </trkpt>
      <trkpt lat="45.04022" lon="6.35779">
        <ele>1782.3125</ele>
        <time>2018-08-15T08:50:11Z</time>
      </trkpt>
      <trkpt lat="45.04009" lon="6.35796">
        <ele>1782.6346</ele>
        <time>2018-08-15T08:50:17Z</time>
      </trkpt>
      <trkpt lat="45.04001" lon="6.35814">
        <ele>1783.274</ele>
        <time>2018-08-15T08:50:23Z</time>
      </trkpt>
      <trkpt lat="45.03996" lon="6.35837">
        <ele>1784.0264</ele>
        <time>2018-08-15T08:50:29Z</time>
      </trkpt>
      <trkpt lat="45.03993" lon="6.35855">
        <ele>1784.7305</ele>
        <time>2018-08-15T08:50:34Z</time>
      </trkpt>
      <trkpt lat="45.03989" lon="6.35875">
        <ele>1785.6519</ele>
        <time>2018-08-15T08:50:40Z</time>
      </trkpt>
      <trkpt lat="45.03985" lon="6.35891">
        <ele>1786.4205</ele>
        <time>2018-08-15T08:50:45Z</time>
      </trkpt>
      <trkpt lat="45.03981" lon="6.35911">
        <ele>1787.3867</ele>
        <time>2018-08-15T08:50:51Z</time>
      </trkpt>
      <trkpt lat="45.03978" lon="6.35929">
        <ele>1788.3064</ele>
        <time>2018-08-15T08:50:57Z</time>
      </trkpt>
      <trkpt lat="45.03974" lon="6.35948">
        <ele>1789.2329</ele>
        <time>2018-08-15T08:51:03Z</time>
      </trkpt>
      <trkpt lat="45.03969" lon="6.35962">
        <ele>1790.0465</ele>
        <time>2018-08-15T08:51:08Z</time>
      </trkpt>
      <trkpt lat="45.03965" lon="6.35975">
        <ele>1790.846</ele>
        <time>2018-08-15T08:51:13Z</time>
      </trkpt>
      <trkpt lat="45.03957" lon="6.3599">
        <ele>1791.8551</ele>
        <time>2018-08-15T08:51:19Z</time>
      </trkpt>
      <trkpt lat="45.03949" lon="6.36">
        <ele>1792.7242</ele>
        <time>2018-08-15T08:51:24Z</time>
      </trkpt>
      <trkpt lat="45.03938" lon="6.36009">
        <ele>1793.6156</ele>
        <time>2018-08-15T08:51:29Z</time>
      </trkpt>
      <trkpt lat="45.03927" lon="6.36019">
        <ele>1794.4526</ele>
        <time>2018-08-15T08:51:34Z</time>
      </trkpt>
      <trkpt lat="45.03914" lon="6.3603">
        <ele>1795.4125</ele>
        <time>2018-08-15T08:51:40Z</time>
      </trkpt>
      <trkpt lat="45.03904" lon="6.36038">
        <ele>1796.2256</ele>
        <time>2018-08-15T08:51:45Z</time>
      </trkpt>
      <trkpt lat="45.03892" lon="6.36049">
        <ele>1797.1958</ele>
        <time>2018-08-15T08:51:51Z</time>
      </trkpt>
      <trkpt lat="45.03883" lon="6.36061">
        <ele>1798.0084</ele>
        <time>2018-08-15T08:51:56Z</time>
      </trkpt>
      <trkpt lat="45.03874" lon="6.36075">
        <ele>1798.8334</ele>
        <time>2018-08-15T08:52:01Z</time>
      </trkpt>
      <trkpt lat="45.03866" lon="6.36093">
        <ele>1799.8889</ele>
        <time>2018-08-15T08:52:07Z</time>
      </trkpt>
      <trkpt lat="45.0386" lon="6.36113">
        <ele>1800.8685</ele>
        <time>2018-08-15T08:52:13Z</time>
      </trkpt>
      <trkpt lat="45.03857" lon="6.36135">
        <ele>1801.834</ele>
        <time>2018-08-15T08:52:19Z</time>
      </trkpt>
      <trkpt lat="45.03856" lon="6.36154">
        <ele>1802.6987</ele>
        <time>2018-08-15T08:52:24Z</time>
      </trkpt>
      <trkpt lat="45.03855" lon="6.36176">
        <ele>1803.9105</ele>
        <time>2018-08-15T08:52:30Z</time>
      </trkpt>
      <trkpt lat="45.03854" lon="6.36194">
        <ele>1804.8226</ele>
        <time>2018-08-15T08:52:35Z</time>
      </trkpt>
      <trkpt lat="45.03857" lon="6.36215">
        <ele>1805.892</ele>
        <time>2018-08-15T08:52:41Z</time>
      </trkpt>
      <trkpt lat="45.03864" lon="6.36235">
        <ele>1806.9934</ele>
        <time>2018-08-15T08:52:47Z</time>
      </trkpt>
      <trkpt lat="45.03872" lon="6.36252">
        <ele>1807.8956</ele>
        <time>2018-08-15T08:52:52Z</time>
      </trkpt>
      <trkpt lat="45.03879" lon="6.36265">
        <ele>1808.7932</ele>
        <time>2018-08-15T08:52:57Z</time>
      </trkpt>
      <trkpt lat="45.03889" lon="6.36284">
        <ele>1809.8914</ele>
        <time>2018-08-15T08:53:03Z</time>
      </trkpt>
      <trkpt lat="45.03894" lon="6.36305">
        <ele>1810.9928</ele>
        <time>2018-08-15T08:53:09Z</time>
      </trkpt>
      <trkpt lat="45.03889" lon="6.36328">
        <ele>1812.0157</ele>
        <time>2018-08-15T08:53:15Z</time>
      </trkpt>
      <trkpt lat="45.03878" lon="6.36342">
        <ele>1812.854</ele>
        <time>2018-08-15T08:53:20Z</time>
      </trkpt>
      <trkpt lat="45.03863" lon="6.36353">
        <ele>1813.7047</ele>
        <time>2018-08-15T08:53:25Z</time>
      </trkpt>
      <trkpt lat="45.03847" lon="6.36364">
        <ele>1814.8234</ele>
        <time>2018-08-15T08:53:31Z</time>
      </trkpt>
      <trkpt lat="45.03833" lon="6.36373">
        <ele>1815.7568</ele>
        <time>2018-08-15T08:53:36Z</time>
      </trkpt>
      <trkpt lat="45.03818" lon="6.36382">
        <ele>1816.882</ele>
        <time>2018-08-15T08:53:42Z</time>
      </trkpt>
      <trkpt lat="45.03805" lon="6.36388">
        <ele>1817.8225</ele>
        <time>2018-08-15T08:53:47Z</time>
      </trkpt>
      <trkpt lat="45.0379" lon="6.36395">
        <ele>1818.9664</ele>
        <time>2018-08-15T08:53:53Z</time>
      </trkpt>
      <trkpt lat="45.03778" lon="6.36401">
        <ele>1820.0981</ele>
        <time>2018-08-15T08:53:59Z</time>
      </trkpt>
      <trkpt lat="45.03766" lon="6.3641">
        <ele>1821.0128</ele>
        <time>2018-08-15T08:54:04Z</time>
      </trkpt>
      <trkpt lat="45.03755" lon="6.36421">
        <ele>1821.95</ele>
        <time>2018-08-15T08:54:09Z</time>
      </trkpt>
      <trkpt lat="45.03743" lon="6.36436">
        <ele>1823.0256</ele>
        <time>2018-08-15T08:54:15Z</time>
      </trkpt>
      <trkpt lat="45.03733" lon="6.36456">
        <ele>1823.9938</ele>
        <time>2018-08-15T08:54:21Z</time>
      </trkpt>
      <trkpt lat="45.03723" lon="6.36481">
        <ele>1824.9363</ele>
        <time>2018-08-15T08:54:27Z</time>
      </trkpt>
      <trkpt lat="45.03717" lon="6.365">
        <ele>1825.7936</ele>
        <time>2018-08-15T08:54:32Z</time>
      </trkpt>
      <trkpt lat="45.0371" lon="6.36518">
        <ele>1826.7136</ele>
        <time>2018-08-15T08:54:37Z</time>
      </trkpt>
      <trkpt lat="45.03703" lon="6.3654">
        <ele>1827.8462</ele>
        <time>2018-08-15T08:54:43Z</time>
      </trkpt>
      <trkpt lat="45.03695" lon="6.36561">
        <ele>1828.9562</ele>
        <time>2018-08-15T08:54:49Z</time>
      </trkpt>
      <trkpt lat="45.03689" lon="6.36579">
        <ele>1829.8307</ele>
        <time>2018-08-15T08:54:54Z</time>
      </trkpt>
      <trkpt lat="45.03682" lon="6.36599">
        <ele>1830.924</ele>
        <time>2018-08-15T08:55:00Z</time>
      </trkpt>
      <trkpt lat="45.03675" lon="6.36617">
        <ele>1831.8345</ele>
        <time>2018-08-15T08:55:05Z</time>
      </trkpt>
      <trkpt lat="45.03668" lon="6.36638">
        <ele>1832.9272</ele>
        <time>2018-08-15T08:55:11Z</time>
      </trkpt>
      <trkpt lat="45.0366" lon="6.36661">
        <ele>1833.9022</ele>
        <time>2018-08-15T08:55:17Z</time>
      </trkpt>
      <trkpt lat="45.03652" lon="6.36682">
        <ele>1834.8146</ele>
        <time>2018-08-15T08:55:23Z</time>
      </trkpt>
      <trkpt lat="45.03645" lon="6.36702">
        <ele>1835.7585</ele>
        <time>2018-08-15T08:55:29Z</time>
      </trkpt>
      <trkpt lat="45.03638" lon="6.36722">
        <ele>1836.708</ele>
        <time>2018-08-15T08:55:35Z</time>
      </trkpt>
      <trkpt lat="45.0363" lon="6.36736">
        <ele>1837.4889</ele>
        <time>2018-08-15T08:55:40Z</time>
      </trkpt>
      <trkpt lat="45.03618" lon="6.3675">
        <ele>1838.4319</ele>
        <time>2018-08-15T08:55:46Z</time>
      </trkpt>
      <trkpt lat="45.03605" lon="6.36761">
        <ele>1839.3871</ele>
        <time>2018-08-15T08:55:52Z</time>
      </trkpt>
      <trkpt lat="45.03594" lon="6.36768">
        <ele>1840.184</ele>
        <time>2018-08-15T08:55:57Z</time>
      </trkpt>
      <trkpt lat="45.03582" lon="6.3678">
        <ele>1841.1423</ele>
        <time>2018-08-15T08:56:03Z</time>
      </trkpt>
      <trkpt lat="45.03576" lon="6.36799">
        <ele>1842.1155</ele>
        <time>2018-08-15T08:56:09Z</time>
      </trkpt>
      <trkpt lat="45.03578" lon="6.36821">
        <ele>1843.1139</ele>
        <time>2018-08-15T08:56:15Z</time>
      </trkpt>
      <trkpt lat="45.03589" lon="6.36836">
        <ele>1844.1072</ele>
        <time>2018-08-15T08:56:21Z</time>
      </trkpt>
      <trkpt lat="45.03603" lon="6.36835">
        <ele>1844.9418</ele>
        <time>2018-08-15T08:56:26Z</time>
      </trkpt>
      <trkpt lat="45.03621" lon="6.3682">
        <ele>1845.9066</ele>
        <time>2018-08-15T08:56:32Z</time>
      </trkpt>
      <trkpt lat="45.03636" lon="6.36805">
        <ele>1848.039</ele>
        <time>2018-08-15T08:56:37Z</time>
      </trkpt>
      <trkpt lat="45.03654" lon="6.36785">
        <ele>1851.2046</ele>
        <time>2018-08-15T08:56:43Z</time>
      </trkpt>
      <trkpt lat="45.03666" lon="6.36766">
        <ele>1851.5776</ele>
        <time>2018-08-15T08:56:48Z</time>
      </trkpt>
      <trkpt lat="45.03679" lon="6.36741">
        <ele>1852.0536</ele>
        <time>2018-08-15T08:56:54Z</time>
      </trkpt>
      <trkpt lat="45.03691" lon="6.36721">
        <ele>1852.5365</ele>
        <time>2018-08-15T08:57:00Z</time>
      </trkpt>
      <trkpt lat="45.03706" lon="6.36704">
        <ele>1853.0442</ele>
        <time>2018-08-15T08:57:06Z</time>
      </trkpt>
      <trkpt lat="45.0372" lon="6.36689">
        <ele>1853.5724</ele>
        <time>2018-08-15T08:57:12Z</time>
      </trkpt>
      <trkpt lat="45.03736" lon="6.36673">
        <ele>1854.1315</ele>
        <time>2018-08-15T08:57:18Z</time>
      </trkpt>
      <trkpt lat="45.03753" lon="6.36656">
        <ele>1854.7139</ele>
        <time>2018-08-15T08:57:24Z</time>
      </trkpt>
      <trkpt lat="45.03769" lon="6.36639">
        <ele>1855.3458</ele>
        <time>2018-08-15T08:57:30Z</time>
      </trkpt>
      <trkpt lat="45.03784" lon="6.36621">
        <ele>1856.0138</ele>
        <time>2018-08-15T08:57:36Z</time>
      </trkpt>
      <trkpt lat="45.03796" lon="6.36602">
        <ele>1858.4897</ele>
        <time>2018-08-15T08:57:41Z</time>
      </trkpt>
      <trkpt lat="45.03807" lon="6.36569">
        <ele>1861.6328</ele>
        <time>2018-08-15T08:57:47Z</time>
      </trkpt>
      <trkpt lat="45.03816" lon="6.36541">
        <ele>1862.7443</ele>
        <time>2018-08-15T08:57:52Z</time>
      </trkpt>
      <trkpt lat="45.03838" lon="6.36536">
        <ele>1863.1156</ele>
        <time>2018-08-15T08:57:58Z</time>
      </trkpt>
      <trkpt lat="45.03846" lon="6.36565">
        <ele>1863.1848</ele>
        <time>2018-08-15T08:58:04Z</time>
      </trkpt>
      <trkpt lat="45.03833" lon="6.3659">
        <ele>1863.3141</ele>
        <time>2018-08-15T08:58:10Z</time>
      </trkpt>
      <trkpt lat="45.03819" lon="6.3661">
        <ele>1863.6481</ele>
        <time>2018-08-15T08:58:16Z</time>
      </trkpt>
      <trkpt lat="45.03809" lon="6.36625">
        <ele>1864.0569</ele>
        <time>2018-08-15T08:58:21Z</time>
      </trkpt>
      <trkpt lat="45.03797" lon="6.36643">
        <ele>1864.6685</ele>
        <time>2018-08-15T08:58:27Z</time>
      </trkpt>
      <trkpt lat="45.03787" lon="6.36659">
        <ele>1865.239</ele>
        <time>2018-08-15T08:58:32Z</time>
      </trkpt>
      <trkpt lat="45.03777" lon="6.36676">
        <ele>1866.0027</ele>
        <time>2018-08-15T08:58:38Z</time>
      </trkpt>
      <trkpt lat="45.03768" lon="6.36693">
        <ele>1866.8375</ele>
        <time>2018-08-15T08:58:44Z</time>
      </trkpt>
      <trkpt lat="45.03759" lon="6.36712">
        <ele>1867.693</ele>
        <time>2018-08-15T08:58:50Z</time>
      </trkpt>
      <trkpt lat="45.03751" lon="6.36732">
        <ele>1868.5697</ele>
        <time>2018-08-15T08:58:56Z</time>
      </trkpt>
      <trkpt lat="45.03743" lon="6.3675">
        <ele>1869.4945</ele>
        <time>2018-08-15T08:59:02Z</time>
      </trkpt>
      <trkpt lat="45.03736" lon="6.3677">
        <ele>1870.4131</ele>
        <time>2018-08-15T08:59:08Z</time>
      </trkpt>
      <trkpt lat="45.0373" lon="6.36791">
        <ele>1871.3169</ele>
        <time>2018-08-15T08:59:14Z</time>
      </trkpt>
      <trkpt lat="45.03725" lon="6.36812">
        <ele>1872.2144</ele>
        <time>2018-08-15T08:59:20Z</time>
      </trkpt>
      <trkpt lat="45.0372" lon="6.36831">
        <ele>1872.9478</ele>
        <time>2018-08-15T08:59:25Z</time>
      </trkpt>
      <trkpt lat="45.03711" lon="6.36849">
        <ele>1873.672</ele>
        <time>2018-08-15T08:59:30Z</time>
      </trkpt>
      <trkpt lat="45.03701" lon="6.36865">
        <ele>1874.5945</ele>
        <time>2018-08-15T08:59:36Z</time>
      </trkpt>
      <trkpt lat="45.03692" lon="6.36878">
        <ele>1875.3763</ele>
        <time>2018-08-15T08:59:41Z</time>
      </trkpt>
      <trkpt lat="45.03683" lon="6.36893">
        <ele>1876.3456</ele>
        <time>2018-08-15T08:59:47Z</time>
      </trkpt>
      <trkpt lat="45.03676" lon="6.36908">
        <ele>1877.1904</ele>
        <time>2018-08-15T08:59:52Z</time>
      </trkpt>
      <trkpt lat="45.0367" lon="6.36923">
        <ele>1878.0453</ele>
        <time>2018-08-15T08:59:57Z</time>
      </trkpt>
      <trkpt lat="45.03663" lon="6.36941">
        <ele>1879.0476</ele>
        <time>2018-08-15T09:00:03Z</time>
      </trkpt>
      <trkpt lat="45.03658" lon="6.36955">
        <ele>1879.8813</ele>
        <time>2018-08-15T09:00:08Z</time>
      </trkpt>
      <trkpt lat="45.03651" lon="6.36974">
        <ele>1880.8137</ele>
        <time>2018-08-15T09:00:14Z</time>
      </trkpt>
      <trkpt lat="45.03644" lon="6.36991">
        <ele>1881.6542</ele>
        <time>2018-08-15T09:00:20Z</time>
      </trkpt>
      <trkpt lat="45.03635" lon="6.37012">
        <ele>1882.4796</ele>
        <time>2018-08-15T09:00:26Z</time>
      </trkpt>
      <trkpt lat="45.03626" lon="6.37028">
        <ele>1883.218</ele>
        <time>2018-08-15T09:00:31Z</time>
      </trkpt>
      <trkpt lat="45.03617" lon="6.37045">
        <ele>1883.9813</ele>
        <time>2018-08-15T09:00:36Z</time>
      </trkpt>
      <trkpt lat="45.03608" lon="6.37061">
        <ele>1884.7781</ele>
        <time>2018-08-15T09:00:41Z</time>
      </trkpt>
      <trkpt lat="45.03595" lon="6.37077">
        <ele>1885.7538</ele>
        <time>2018-08-15T09:00:47Z</time>
      </trkpt>
      <trkpt lat="45.03583" lon="6.37093">
        <ele>1886.7881</ele>
        <time>2018-08-15T09:00:53Z</time>
      </trkpt>
      <trkpt lat="45.03568" lon="6.37109">
        <ele>1887.9509</ele>
        <time>2018-08-15T09:00:59Z</time>
      </trkpt>
      <trkpt lat="45.03557" lon="6.37123">
        <ele>1888.956</ele>
        <time>2018-08-15T09:01:04Z</time>
      </trkpt>
      <trkpt lat="45.03546" lon="6.37136">
        <ele>1889.9888</ele>
        <time>2018-08-15T09:01:09Z</time>
      </trkpt>
      <trkpt lat="45.03535" lon="6.37149">
        <ele>1891.0273</ele>
        <time>2018-08-15T09:01:14Z</time>
      </trkpt>
      <trkpt lat="45.03521" lon="6.37162">
        <ele>1892.2468</ele>
        <time>2018-08-15T09:01:20Z</time>
      </trkpt>
      <trkpt lat="45.03511" lon="6.37174">
        <ele>1893.2297</ele>
        <time>2018-08-15T09:01:25Z</time>
      </trkpt>
      <trkpt lat="45.03501" lon="6.37186">
        <ele>1894.1825</ele>
        <time>2018-08-15T09:01:30Z</time>
      </trkpt>
      <trkpt lat="45.03488" lon="6.37201">
        <ele>1895.3855</ele>
        <time>2018-08-15T09:01:36Z</time>
      </trkpt>
      <trkpt lat="45.03479" lon="6.37213">
        <ele>1896.426</ele>
        <time>2018-08-15T09:01:41Z</time>
      </trkpt>
      <trkpt lat="45.03471" lon="6.3723">
        <ele>1897.5017</ele>
        <time>2018-08-15T09:01:46Z</time>
      </trkpt>
      <trkpt lat="45.03464" lon="6.37251">
        <ele>1898.8381</ele>
        <time>2018-08-15T09:01:52Z</time>
      </trkpt>
      <trkpt lat="45.03459" lon="6.37269">
        <ele>1899.9702</ele>
        <time>2018-08-15T09:01:57Z</time>
      </trkpt>
      <trkpt lat="45.03453" lon="6.37291">
        <ele>1901.3223</ele>
        <time>2018-08-15T09:02:03Z</time>
      </trkpt>
      <trkpt lat="45.03449" lon="6.37314">
        <ele>1902.6622</ele>
        <time>2018-08-15T09:02:09Z</time>
      </trkpt>
      <trkpt lat="45.03447" lon="6.37337">
        <ele>1903.9438</ele>
        <time>2018-08-15T09:02:15Z</time>
      </trkpt>
      <trkpt lat="45.03446" lon="6.37361">
        <ele>1905.1946</ele>
        <time>2018-08-15T09:02:21Z</time>
      </trkpt>
      <trkpt lat="45.03446" lon="6.37385">
        <ele>1906.4141</ele>
        <time>2018-08-15T09:02:27Z</time>
      </trkpt>
      <trkpt lat="45.03445" lon="6.37408">
        <ele>1907.6276</ele>
        <time>2018-08-15T09:02:33Z</time>
      </trkpt>
      <trkpt lat="45.03445" lon="6.3743">
        <ele>1908.6199</ele>
        <time>2018-08-15T09:02:38Z</time>
      </trkpt>
      <trkpt lat="45.03442" lon="6.3745">
        <ele>1909.6166</ele>
        <time>2018-08-15T09:02:43Z</time>
      </trkpt>
      <trkpt lat="45.03436" lon="6.37469">
        <ele>1910.7104</ele>
        <time>2018-08-15T09:02:49Z</time>
      </trkpt>
      <trkpt lat="45.03428" lon="6.37486">
        <ele>1911.7584</ele>
        <time>2018-08-15T09:02:55Z</time>
      </trkpt>
      <trkpt lat="45.03419" lon="6.37502">
        <ele>1912.8076</ele>
        <time>2018-08-15T09:03:01Z</time>
      </trkpt>
      <trkpt lat="45.03411" lon="6.37517">
        <ele>1913.8226</ele>
        <time>2018-08-15T09:03:07Z</time>
      </trkpt>
      <trkpt lat="45.03402" lon="6.37534">
        <ele>1914.854</ele>
        <time>2018-08-15T09:03:13Z</time>
      </trkpt>
      <trkpt lat="45.03392" lon="6.37551">
        <ele>1915.9463</ele>
        <time>2018-08-15T09:03:19Z</time>
      </trkpt>
      <trkpt lat="45.03385" lon="6.37565">
        <ele>1916.8713</ele>
        <time>2018-08-15T09:03:24Z</time>
      </trkpt>
      <trkpt lat="45.03377" lon="6.37582">
        <ele>1917.9792</ele>
        <time>2018-08-15T09:03:30Z</time>
      </trkpt>
      <trkpt lat="45.0337" lon="6.376">
        <ele>1919.0696</ele>
        <time>2018-08-15T09:03:36Z</time>
      </trkpt>
      <trkpt lat="45.03363" lon="6.37615">
        <ele>1919.9734</ele>
        <time>2018-08-15T09:03:41Z</time>
      </trkpt>
      <trkpt lat="45.03359" lon="6.37626">
        <ele>1921.5123</ele>
        <time>2018-08-15T09:04:07Z</time>
      </trkpt>
      <trkpt lat="45.03356" lon="6.37642">
        <ele>1922.3889</ele>
        <time>2018-08-15T09:04:12Z</time>
      </trkpt>
      <trkpt lat="45.03349" lon="6.37663">
        <ele>1923.4366</ele>
        <time>2018-08-15T09:04:18Z</time>
      </trkpt>
      <trkpt lat="45.03342" lon="6.37684">
        <ele>1924.4884</ele>
        <time>2018-08-15T09:04:24Z</time>
      </trkpt>
      <trkpt lat="45.03336" lon="6.37704">
        <ele>1925.5635</ele>
        <time>2018-08-15T09:04:30Z</time>
      </trkpt>
      <trkpt lat="45.0333" lon="6.3772">
        <ele>1926.4795</ele>
        <time>2018-08-15T09:04:35Z</time>
      </trkpt>
      <trkpt lat="45.03324" lon="6.37739">
        <ele>1927.583</ele>
        <time>2018-08-15T09:04:41Z</time>
      </trkpt>
      <trkpt lat="45.03316" lon="6.37759">
        <ele>1928.7017</ele>
        <time>2018-08-15T09:04:47Z</time>
      </trkpt>
      <trkpt lat="45.03308" lon="6.37778">
        <ele>1929.8463</ele>
        <time>2018-08-15T09:04:53Z</time>
      </trkpt>
      <trkpt lat="45.033" lon="6.37798">
        <ele>1930.9963</ele>
        <time>2018-08-15T09:04:59Z</time>
      </trkpt>
      <trkpt lat="45.03292" lon="6.37818">
        <ele>1932.1256</ele>
        <time>2018-08-15T09:05:05Z</time>
      </trkpt>
      <trkpt lat="45.03285" lon="6.37837">
        <ele>1933.281</ele>
        <time>2018-08-15T09:05:11Z</time>
      </trkpt>
      <trkpt lat="45.03278" lon="6.37857">
        <ele>1934.4342</ele>
        <time>2018-08-15T09:05:17Z</time>
      </trkpt>
      <trkpt lat="45.03271" lon="6.37878">
        <ele>1935.61</ele>
        <time>2018-08-15T09:05:23Z</time>
      </trkpt>
      <trkpt lat="45.03265" lon="6.37898">
        <ele>1936.8025</ele>
        <time>2018-08-15T09:05:29Z</time>
      </trkpt>
      <trkpt lat="45.03259" lon="6.37918">
        <ele>1937.9818</ele>
        <time>2018-08-15T09:05:35Z</time>
      </trkpt>
      <trkpt lat="45.03253" lon="6.37938">
        <ele>1939.1753</ele>
        <time>2018-08-15T09:05:41Z</time>
      </trkpt>
      <trkpt lat="45.03247" lon="6.37955">
        <ele>1940.1593</ele>
        <time>2018-08-15T09:05:46Z</time>
      </trkpt>
      <trkpt lat="45.03242" lon="6.37972">
        <ele>1941.1284</ele>
        <time>2018-08-15T09:05:51Z</time>
      </trkpt>
      <trkpt lat="45.03237" lon="6.37992">
        <ele>1942.2928</ele>
        <time>2018-08-15T09:05:57Z</time>
      </trkpt>
      <trkpt lat="45.03231" lon="6.38013">
        <ele>1943.4458</ele>
        <time>2018-08-15T09:06:03Z</time>
      </trkpt>
      <trkpt lat="45.03226" lon="6.38033">
        <ele>1944.5803</ele>
        <time>2018-08-15T09:06:09Z</time>
      </trkpt>
      <trkpt lat="45.03221" lon="6.38054">
        <ele>1945.7108</ele>
        <time>2018-08-15T09:06:15Z</time>
      </trkpt>
      <trkpt lat="45.03216" lon="6.38075">
        <ele>1946.845</ele>
        <time>2018-08-15T09:06:21Z</time>
      </trkpt>
      <trkpt lat="45.03213" lon="6.38097">
        <ele>1948.025</ele>
        <time>2018-08-15T09:06:27Z</time>
      </trkpt>
      <trkpt lat="45.0321" lon="6.38116">
        <ele>1949.0475</ele>
        <time>2018-08-15T09:06:32Z</time>
      </trkpt>
      <trkpt lat="45.03207" lon="6.38139">
        <ele>1950.259</ele>
        <time>2018-08-15T09:06:38Z</time>
      </trkpt>
      <trkpt lat="45.03204" lon="6.38161">
        <ele>1951.427</ele>
        <time>2018-08-15T09:06:44Z</time>
      </trkpt>
      <trkpt lat="45.03202" lon="6.3818">
        <ele>1952.4125</ele>
        <time>2018-08-15T09:06:49Z</time>
      </trkpt>
      <trkpt lat="45.03199" lon="6.38201">
        <ele>1953.5787</ele>
        <time>2018-08-15T09:06:55Z</time>
      </trkpt>
      <trkpt lat="45.03197" lon="6.38222">
        <ele>1954.7764</ele>
        <time>2018-08-15T09:07:01Z</time>
      </trkpt>
      <trkpt lat="45.03195" lon="6.3824">
        <ele>1955.8129</ele>
        <time>2018-08-15T09:07:06Z</time>
      </trkpt>
      <trkpt lat="45.03194" lon="6.38261">
        <ele>1957.0599</ele>
        <time>2018-08-15T09:07:12Z</time>
      </trkpt>
      <trkpt lat="45.03195" lon="6.38283">
        <ele>1958.2727</ele>
        <time>2018-08-15T09:07:18Z</time>
      </trkpt>
      <trkpt lat="45.03199" lon="6.38301">
        <ele>1959.2096</ele>
        <time>2018-08-15T09:07:23Z</time>
      </trkpt>
      <trkpt lat="45.03206" lon="6.38318">
        <ele>1960.1155</ele>
        <time>2018-08-15T09:07:28Z</time>
      </trkpt>
      <trkpt lat="45.03219" lon="6.38337">
        <ele>1961.1416</ele>
        <time>2018-08-15T09:07:34Z</time>
      </trkpt>
      <trkpt lat="45.03232" lon="6.38351">
        <ele>1962.0266</ele>
        <time>2018-08-15T09:07:39Z</time>
      </trkpt>
      <trkpt lat="45.03251" lon="6.38363">
        <ele>1963.1426</ele>
        <time>2018-08-15T09:07:45Z</time>
      </trkpt>
      <trkpt lat="45.03267" lon="6.3837">
        <ele>1964.0842</ele>
        <time>2018-08-15T09:07:50Z</time>
      </trkpt>
      <trkpt lat="45.03286" lon="6.38378">
        <ele>1965.2281</ele>
        <time>2018-08-15T09:07:56Z</time>
      </trkpt>
      <trkpt lat="45.03303" lon="6.38393">
        <ele>1966.3615</ele>
        <time>2018-08-15T09:08:02Z</time>
      </trkpt>
      <trkpt lat="45.03316" lon="6.38415">
        <ele>1968.9065</ele>
        <time>2018-08-15T09:08:08Z</time>
      </trkpt>
      <trkpt lat="45.03324" lon="6.38438">
        <ele>1969.7905</ele>
        <time>2018-08-15T09:08:14Z</time>
      </trkpt>
      <trkpt lat="45.0333" lon="6.38462">
        <ele>1970.7369</ele>
        <time>2018-08-15T09:08:20Z</time>
      </trkpt>
      <trkpt lat="45.03336" lon="6.38488">
        <ele>1971.726</ele>
        <time>2018-08-15T09:08:26Z</time>
      </trkpt>
      <trkpt lat="45.03341" lon="6.38513">
        <ele>1972.7262</ele>
        <time>2018-08-15T09:08:32Z</time>
      </trkpt>
      <trkpt lat="45.03342" lon="6.38536">
        <ele>1973.5514</ele>
        <time>2018-08-15T09:08:37Z</time>
      </trkpt>
      <trkpt lat="45.03341" lon="6.38559">
        <ele>1974.367</ele>
        <time>2018-08-15T09:08:42Z</time>
      </trkpt>
      <trkpt lat="45.03336" lon="6.38585">
        <ele>1975.3555</ele>
        <time>2018-08-15T09:08:48Z</time>
      </trkpt>
      <trkpt lat="45.0333" lon="6.3861">
        <ele>1976.4042</ele>
        <time>2018-08-15T09:08:54Z</time>
      </trkpt>
      <trkpt lat="45.03323" lon="6.38634">
        <ele>1977.5026</ele>
        <time>2018-08-15T09:09:00Z</time>
      </trkpt>
      <trkpt lat="45.03317" lon="6.38658">
        <ele>1978.6127</ele>
        <time>2018-08-15T09:09:06Z</time>
      </trkpt>
      <trkpt lat="45.0331" lon="6.38681">
        <ele>1979.7656</ele>
        <time>2018-08-15T09:09:12Z</time>
      </trkpt>
      <trkpt lat="45.03304" lon="6.38705">
        <ele>1980.9086</ele>
        <time>2018-08-15T09:09:18Z</time>
      </trkpt>
      <trkpt lat="45.03297" lon="6.38729">
        <ele>1982.0509</ele>
        <time>2018-08-15T09:09:24Z</time>
      </trkpt>
      <trkpt lat="45.03292" lon="6.38751">
        <ele>1983.1876</ele>
        <time>2018-08-15T09:09:30Z</time>
      </trkpt>
      <trkpt lat="45.03286" lon="6.38774">
        <ele>1984.295</ele>
        <time>2018-08-15T09:09:36Z</time>
      </trkpt>
      <trkpt lat="45.03281" lon="6.38796">
        <ele>1985.4254</ele>
        <time>2018-08-15T09:09:42Z</time>
      </trkpt>
      <trkpt lat="45.03277" lon="6.38816">
        <ele>1986.3854</ele>
        <time>2018-08-15T09:09:47Z</time>
      </trkpt>
      <trkpt lat="45.03274" lon="6.3884">
        <ele>1987.5509</ele>
        <time>2018-08-15T09:09:53Z</time>
      </trkpt>
      <trkpt lat="45.0327" lon="6.38864">
        <ele>1988.7302</ele>
        <time>2018-08-15T09:09:59Z</time>
      </trkpt>
      <trkpt lat="45.03267" lon="6.38884">
        <ele>1989.7324</ele>
        <time>2018-08-15T09:10:04Z</time>
      </trkpt>
      <trkpt lat="45.03263" lon="6.38909">
        <ele>1990.9248</ele>
        <time>2018-08-15T09:10:10Z</time>
      </trkpt>
      <trkpt lat="45.03259" lon="6.38935">
        <ele>1992.1161</ele>
        <time>2018-08-15T09:10:16Z</time>
      </trkpt>
      <trkpt lat="45.03256" lon="6.38958">
        <ele>1993.319</ele>
        <time>2018-08-15T09:10:22Z</time>
      </trkpt>
      <trkpt lat="45.03253" lon="6.38982">
        <ele>1994.552</ele>
        <time>2018-08-15T09:10:28Z</time>
      </trkpt>
      <trkpt lat="45.03249" lon="6.39005">
        <ele>1995.8162</ele>
        <time>2018-08-15T09:10:34Z</time>
      </trkpt>
      <trkpt lat="45.03248" lon="6.39029">
        <ele>1997.1058</ele>
        <time>2018-08-15T09:10:40Z</time>
      </trkpt>
      <trkpt lat="45.03247" lon="6.39053">
        <ele>1998.4252</ele>
        <time>2018-08-15T09:10:46Z</time>
      </trkpt>
      <trkpt lat="45.03247" lon="6.39073">
        <ele>1999.5393</ele>
        <time>2018-08-15T09:10:51Z</time>
      </trkpt>
      <trkpt lat="45.03249" lon="6.39097">
        <ele>2000.8807</ele>
        <time>2018-08-15T09:10:57Z</time>
      </trkpt>
      <trkpt lat="45.03253" lon="6.3912">
        <ele>2002.2255</ele>
        <time>2018-08-15T09:11:03Z</time>
      </trkpt>
      <trkpt lat="45.03258" lon="6.3914">
        <ele>2003.3379</ele>
        <time>2018-08-15T09:11:08Z</time>
      </trkpt>
      <trkpt lat="45.03264" lon="6.39165">
        <ele>2004.6289</ele>
        <time>2018-08-15T09:11:14Z</time>
      </trkpt>
      <trkpt lat="45.0327" lon="6.39191">
        <ele>2005.8823</ele>
        <time>2018-08-15T09:11:20Z</time>
      </trkpt>
      <trkpt lat="45.03275" lon="6.39213">
        <ele>2006.8854</ele>
        <time>2018-08-15T09:11:25Z</time>
      </trkpt>
      <trkpt lat="45.03281" lon="6.3924">
        <ele>2008.063</ele>
        <time>2018-08-15T09:11:31Z</time>
      </trkpt>
      <trkpt lat="45.03287" lon="6.39268">
        <ele>2012.1622</ele>
        <time>2018-08-15T09:11:37Z</time>
      </trkpt>
      <trkpt lat="45.03293" lon="6.39303">
        <ele>2016.989</ele>
        <time>2018-08-15T09:11:43Z</time>
      </trkpt>
      <trkpt lat="45.03295" lon="6.39336">
        <ele>2018.4395</ele>
        <time>2018-08-15T09:11:48Z</time>
      </trkpt>
      <trkpt lat="45.03292" lon="6.39378">
        <ele>2019.1786</ele>
        <time>2018-08-15T09:11:54Z</time>
      </trkpt>
      <trkpt lat="45.03287" lon="6.39422">
        <ele>2019.7958</ele>
        <time>2018-08-15T09:12:00Z</time>
      </trkpt>
      <trkpt lat="45.03283" lon="6.39458">
        <ele>2020.1602</ele>
        <time>2018-08-15T09:12:05Z</time>
      </trkpt>
      <trkpt lat="45.0328" lon="6.39497">
        <ele>2020.3014</ele>
        <time>2018-08-15T09:12:10Z</time>
      </trkpt>
      <trkpt lat="45.03281" lon="6.39545">
        <ele>2020.7614</ele>
        <time>2018-08-15T09:12:16Z</time>
      </trkpt>
      <trkpt lat="45.03287" lon="6.39599">
        <ele>2022.1299</ele>
        <time>2018-08-15T09:12:22Z</time>
      </trkpt>
      <trkpt lat="45.03293" lon="6.39652">
        <ele>2022.5514</ele>
        <time>2018-08-15T09:12:28Z</time>
      </trkpt>
      <trkpt lat="45.03298" lon="6.39695">
        <ele>2022.8209</ele>
        <time>2018-08-15T09:12:33Z</time>
      </trkpt>
      <trkpt lat="45.03306" lon="6.39744">
        <ele>2023.341</ele>
        <time>2018-08-15T09:12:39Z</time>
      </trkpt>
      <trkpt lat="45.03317" lon="6.39784">
        <ele>2023.7627</ele>
        <time>2018-08-15T09:12:44Z</time>
      </trkpt>
      <trkpt lat="45.03328" lon="6.39823">
        <ele>2024.221</ele>
        <time>2018-08-15T09:12:49Z</time>
      </trkpt>
      <trkpt lat="45.03339" lon="6.39859">
        <ele>2024.9275</ele>
        <time>2018-08-15T09:12:54Z</time>
      </trkpt>
      <trkpt lat="45.0335" lon="6.399">
        <ele>2025.9148</ele>
        <time>2018-08-15T09:13:00Z</time>
      </trkpt>
      <trkpt lat="45.03359" lon="6.3994">
        <ele>2026.9261</ele>
        <time>2018-08-15T09:13:06Z</time>
      </trkpt>
      <trkpt lat="45.03366" lon="6.39977">
        <ele>2028.0012</ele>
        <time>2018-08-15T09:13:12Z</time>
      </trkpt>
      <trkpt lat="45.03372" lon="6.40014">
        <ele>2028.9878</ele>
        <time>2018-08-15T09:13:18Z</time>
      </trkpt>
      <trkpt lat="45.03374" lon="6.4005">
        <ele>2029.8448</ele>
        <time>2018-08-15T09:13:24Z</time>
      </trkpt>
      <trkpt lat="45.03376" lon="6.40087">
        <ele>2030.6731</ele>
        <time>2018-08-15T09:13:30Z</time>
      </trkpt>
      <trkpt lat="45.03376" lon="6.40115">
        <ele>2031.6031</ele>
        <time>2018-08-15T09:13:35Z</time>
      </trkpt>
      <trkpt lat="45.03374" lon="6.40141">
        <ele>2031.9758</ele>
        <time>2018-08-15T09:13:40Z</time>
      </trkpt>
      <trkpt lat="45.03372" lon="6.40171">
        <ele>2032.2463</ele>
        <time>2018-08-15T09:13:46Z</time>
      </trkpt>
      <trkpt lat="45.03367" lon="6.40199">
        <ele>2032.6008</ele>
        <time>2018-08-15T09:13:52Z</time>
      </trkpt>
      <trkpt lat="45.03362" lon="6.40225">
        <ele>2033.0233</ele>
        <time>2018-08-15T09:13:58Z</time>
      </trkpt>
      <trkpt lat="45.03358" lon="6.40249">
        <ele>2033.5303</ele>
        <time>2018-08-15T09:14:04Z</time>
      </trkpt>
      <trkpt lat="45.03353" lon="6.40272">
        <ele>2034.1265</ele>
        <time>2018-08-15T09:14:10Z</time>
      </trkpt>
      <trkpt lat="45.03348" lon="6.40294">
        <ele>2034.691</ele>
        <time>2018-08-15T09:14:16Z</time>
      </trkpt>
      <trkpt lat="45.03343" lon="6.40317">
        <ele>2035.2272</ele>
        <time>2018-08-15T09:14:22Z</time>
      </trkpt>
      <trkpt lat="45.03339" lon="6.40338">
        <ele>2035.8739</ele>
        <time>2018-08-15T09:14:28Z</time>
      </trkpt>
      <trkpt lat="45.03335" lon="6.40359">
        <ele>2036.6259</ele>
        <time>2018-08-15T09:14:34Z</time>
      </trkpt>
      <trkpt lat="45.03332" lon="6.40379">
        <ele>2037.4365</ele>
        <time>2018-08-15T09:14:40Z</time>
      </trkpt>
      <trkpt lat="45.03328" lon="6.40399">
        <ele>2038.2855</ele>
        <time>2018-08-15T09:14:46Z</time>
      </trkpt>
      <trkpt lat="45.03326" lon="6.40419">
        <ele>2039.1691</ele>
        <time>2018-08-15T09:14:52Z</time>
      </trkpt>
      <trkpt lat="45.03325" lon="6.4044">
        <ele>2040.0618</ele>
        <time>2018-08-15T09:14:58Z</time>
      </trkpt>
      <trkpt lat="45.03326" lon="6.4046">
        <ele>2040.9689</ele>
        <time>2018-08-15T09:15:04Z</time>
      </trkpt>
      <trkpt lat="45.03332" lon="6.4048">
        <ele>2041.8712</ele>
        <time>2018-08-15T09:15:10Z</time>
      </trkpt>
      <trkpt lat="45.0334" lon="6.40499">
        <ele>2042.7742</ele>
        <time>2018-08-15T09:15:16Z</time>
      </trkpt>
      <trkpt lat="45.03352" lon="6.40515">
        <ele>2043.7115</ele>
        <time>2018-08-15T09:15:22Z</time>
      </trkpt>
      <trkpt lat="45.03366" lon="6.40527">
        <ele>2044.7018</ele>
        <time>2018-08-15T09:15:28Z</time>
      </trkpt>
      <trkpt lat="45.0338" lon="6.40534">
        <ele>2045.75</ele>
        <time>2018-08-15T09:15:34Z</time>
      </trkpt>
      <trkpt lat="45.03395" lon="6.40538">
        <ele>2046.8556</ele>
        <time>2018-08-15T09:15:40Z</time>
      </trkpt>
      <trkpt lat="45.0341" lon="6.40535">
        <ele>2047.972</ele>
        <time>2018-08-15T09:15:46Z</time>
      </trkpt>
      <trkpt lat="45.03423" lon="6.40529">
        <ele>2048.85</ele>
        <time>2018-08-15T09:15:51Z</time>
      </trkpt>
      <trkpt lat="45.03438" lon="6.4052">
        <ele>2049.852</ele>
        <time>2018-08-15T09:15:57Z</time>
      </trkpt>
      <trkpt lat="45.03452" lon="6.40514">
        <ele>2050.6558</ele>
        <time>2018-08-15T09:16:02Z</time>
      </trkpt>
      <trkpt lat="45.0347" lon="6.40508">
        <ele>2051.5312</ele>
        <time>2018-08-15T09:16:08Z</time>
      </trkpt>
      <trkpt lat="45.03489" lon="6.40509">
        <ele>2052.5073</ele>
        <time>2018-08-15T09:16:14Z</time>
      </trkpt>
      <trkpt lat="45.03505" lon="6.40512">
        <ele>2053.4258</ele>
        <time>2018-08-15T09:16:20Z</time>
      </trkpt>
      <trkpt lat="45.03525" lon="6.40516">
        <ele>2057.2358</ele>
        <time>2018-08-15T09:16:26Z</time>
      </trkpt>
      <trkpt lat="45.03551" lon="6.40509">
        <ele>2062.0237</ele>
        <time>2018-08-15T09:16:32Z</time>
      </trkpt>
      <trkpt lat="45.0357" lon="6.40491">
        <ele>2062.695</ele>
        <time>2018-08-15T09:16:37Z</time>
      </trkpt>
      <trkpt lat="45.03591" lon="6.40474">
        <ele>2062.8691</ele>
        <time>2018-08-15T09:16:43Z</time>
      </trkpt>
      <trkpt lat="45.03609" lon="6.4046">
        <ele>2064.0764</ele>
        <time>2018-08-15T09:16:48Z</time>
      </trkpt>
      <trkpt lat="45.03631" lon="6.40445">
        <ele>2064.9104</ele>
        <time>2018-08-15T09:16:54Z</time>
      </trkpt>
      <trkpt lat="45.03652" lon="6.40429">
        <ele>2065.8823</ele>
        <time>2018-08-15T09:17:00Z</time>
      </trkpt>
      <trkpt lat="45.03671" lon="6.40412">
        <ele>2066.24</ele>
        <time>2018-08-15T09:17:06Z</time>
      </trkpt>
      <trkpt lat="45.03686" lon="6.40389">
        <ele>2067.8013</ele>
        <time>2018-08-15T09:17:12Z</time>
      </trkpt>
      <trkpt lat="45.037" lon="6.40363">
        <ele>2069.0496</ele>
        <time>2018-08-15T09:17:18Z</time>
      </trkpt>
      <trkpt lat="45.03712" lon="6.4033">
        <ele>2069.818</ele>
        <time>2018-08-15T09:17:24Z</time>
      </trkpt>
      <trkpt lat="45.03726" lon="6.40296">
        <ele>2070.2397</ele>
        <time>2018-08-15T09:17:30Z</time>
      </trkpt>
      <trkpt lat="45.03747" lon="6.4028">
        <ele>2070.859</ele>
        <time>2018-08-15T09:17:36Z</time>
      </trkpt>
      <trkpt lat="45.03763" lon="6.40281">
        <ele>2071.0208</ele>
        <time>2018-08-15T09:17:41Z</time>
      </trkpt>
      <trkpt lat="45.03781" lon="6.40286">
        <ele>2071.3738</ele>
        <time>2018-08-15T09:17:47Z</time>
      </trkpt>
      <trkpt lat="45.03796" lon="6.4029">
        <ele>2071.6365</ele>
        <time>2018-08-15T09:17:52Z</time>
      </trkpt>
      <trkpt lat="45.0381" lon="6.40281">
        <ele>2071.887</ele>
        <time>2018-08-15T09:17:58Z</time>
      </trkpt>
      <trkpt lat="45.03818" lon="6.40261">
        <ele>2072.1355</ele>
        <time>2018-08-15T09:18:03Z</time>
      </trkpt>
      <trkpt lat="45.03822" lon="6.40238">
        <ele>2072.6716</ele>
        <time>2018-08-15T09:18:09Z</time>
      </trkpt>
      <trkpt lat="45.03828" lon="6.40213">
        <ele>2073.5276</ele>
        <time>2018-08-15T09:18:15Z</time>
      </trkpt>
      <trkpt lat="45.03834" lon="6.40195">
        <ele>2074.4106</ele>
        <time>2018-08-15T09:18:20Z</time>
      </trkpt>
      <trkpt lat="45.0384" lon="6.40175">
        <ele>2075.464</ele>
        <time>2018-08-15T09:18:26Z</time>
      </trkpt>
      <trkpt lat="45.03846" lon="6.40153">
        <ele>2076.5437</ele>
        <time>2018-08-15T09:18:32Z</time>
      </trkpt>
      <trkpt lat="45.03851" lon="6.40134">
        <ele>2077.633</ele>
        <time>2018-08-15T09:18:38Z</time>
      </trkpt>
      <trkpt lat="45.03856" lon="6.40114">
        <ele>2078.7715</ele>
        <time>2018-08-15T09:18:44Z</time>
      </trkpt>
      <trkpt lat="45.03861" lon="6.40099">
        <ele>2079.8572</ele>
        <time>2018-08-15T09:18:49Z</time>
      </trkpt>
      <trkpt lat="45.03871" lon="6.40087">
        <ele>2081.0703</ele>
        <time>2018-08-15T09:18:55Z</time>
      </trkpt>
      <trkpt lat="45.03882" lon="6.40078">
        <ele>2081.9783</ele>
        <time>2018-08-15T09:19:00Z</time>
      </trkpt>
      <trkpt lat="45.03896" lon="6.40072">
        <ele>2082.9436</ele>
        <time>2018-08-15T09:19:06Z</time>
      </trkpt>
      <trkpt lat="45.03907" lon="6.4007">
        <ele>2083.6797</ele>
        <time>2018-08-15T09:19:11Z</time>
      </trkpt>
      <trkpt lat="45.0392" lon="6.40071">
        <ele>2084.6619</ele>
        <time>2018-08-15T09:19:17Z</time>
      </trkpt>
      <trkpt lat="45.0393" lon="6.40074">
        <ele>2085.5442</ele>
        <time>2018-08-15T09:19:22Z</time>
      </trkpt>
      <trkpt lat="45.03941" lon="6.40079">
        <ele>2086.5403</ele>
        <time>2018-08-15T09:19:27Z</time>
      </trkpt>
      <trkpt lat="45.03955" lon="6.40086">
        <ele>2087.7778</ele>
        <time>2018-08-15T09:19:33Z</time>
      </trkpt>
      <trkpt lat="45.03965" lon="6.40091">
        <ele>2088.7751</ele>
        <time>2018-08-15T09:19:38Z</time>
      </trkpt>
      <trkpt lat="45.03977" lon="6.40097">
        <ele>2090.0586</ele>
        <time>2018-08-15T09:19:44Z</time>
      </trkpt>
      <trkpt lat="45.03988" lon="6.40104">
        <ele>2091.1584</ele>
        <time>2018-08-15T09:19:49Z</time>
      </trkpt>
      <trkpt lat="45.04001" lon="6.4011">
        <ele>2092.4849</ele>
        <time>2018-08-15T09:19:55Z</time>
      </trkpt>
      <trkpt lat="45.04011" lon="6.40117">
        <ele>2093.674</ele>
        <time>2018-08-15T09:20:00Z</time>
      </trkpt>
      <trkpt lat="45.04022" lon="6.40128">
        <ele>2095.2717</ele>
        <time>2018-08-15T09:20:06Z</time>
      </trkpt>
      <trkpt lat="45.04032" lon="6.40137">
        <ele>2096.5862</ele>
        <time>2018-08-15T09:20:11Z</time>
      </trkpt>
      <trkpt lat="45.04044" lon="6.40152">
        <ele>2098.0977</ele>
        <time>2018-08-15T09:20:17Z</time>
      </trkpt>
      <trkpt lat="45.04049" lon="6.40157">
        <ele>2099.6096</ele>
        <time>2018-08-15T09:20:22Z</time>
      </trkpt>
      <trkpt lat="45.04068" lon="6.40168">
        <ele>2101.2998</ele>
        <time>2018-08-15T09:20:28Z</time>
      </trkpt>
      <trkpt lat="45.04081" lon="6.40165">
        <ele>2102.3125</ele>
        <time>2018-08-15T09:20:34Z</time>
      </trkpt>
      <trkpt lat="45.04086" lon="6.40146">
        <ele>2103.0352</ele>
        <time>2018-08-15T09:20:40Z</time>
      </trkpt>
      <trkpt lat="45.04082" lon="6.40127">
        <ele>2103.5957</ele>
        <time>2018-08-15T09:20:46Z</time>
      </trkpt>
      <trkpt lat="45.04067" lon="6.40114">
        <ele>2103.8962</ele>
        <time>2018-08-15T09:20:52Z</time>
      </trkpt>
      <trkpt lat="45.0405" lon="6.40108">
        <ele>2104.1465</ele>
        <time>2018-08-15T09:20:58Z</time>
      </trkpt>
      <trkpt lat="45.04036" lon="6.40099">
        <ele>2104.4377</ele>
        <time>2018-08-15T09:21:04Z</time>
      </trkpt>
      <trkpt lat="45.04026" lon="6.40089">
        <ele>2104.7344</ele>
        <time>2018-08-15T09:21:09Z</time>
      </trkpt>
      <trkpt lat="45.04017" lon="6.40078">
        <ele>2105.0903</ele>
        <time>2018-08-15T09:21:14Z</time>
      </trkpt>
      <trkpt lat="45.04006" lon="6.40064">
        <ele>2105.5676</ele>
        <time>2018-08-15T09:21:20Z</time>
      </trkpt>
      <trkpt lat="45.03996" lon="6.40051">
        <ele>2106.106</ele>
        <time>2018-08-15T09:21:26Z</time>
      </trkpt>
      <trkpt lat="45.03985" lon="6.40037">
        <ele>2106.6875</ele>
        <time>2018-08-15T09:21:32Z</time>
      </trkpt>
      <trkpt lat="45.03976" lon="6.40027">
        <ele>2107.2017</ele>
        <time>2018-08-15T09:21:37Z</time>
      </trkpt>
      <trkpt lat="45.03966" lon="6.40013">
        <ele>2107.892</ele>
        <time>2018-08-15T09:21:43Z</time>
      </trkpt>
      <trkpt lat="45.03957" lon="6.40002">
        <ele>2108.5283</ele>
        <time>2018-08-15T09:21:48Z</time>
      </trkpt>
      <trkpt lat="45.03947" lon="6.39988">
        <ele>2109.3337</ele>
        <time>2018-08-15T09:21:54Z</time>
      </trkpt>
      <trkpt lat="45.03937" lon="6.39975">
        <ele>2110.186</ele>
        <time>2018-08-15T09:22:00Z</time>
      </trkpt>
      <trkpt lat="45.03927" lon="6.39961">
        <ele>2111.0598</ele>
        <time>2018-08-15T09:22:06Z</time>
      </trkpt>
      <trkpt lat="45.03916" lon="6.39947">
        <ele>2111.9307</ele>
        <time>2018-08-15T09:22:12Z</time>
      </trkpt>
      <trkpt lat="45.03908" lon="6.39935">
        <ele>2112.6091</ele>
        <time>2018-08-15T09:22:17Z</time>
      </trkpt>
      <trkpt lat="45.03898" lon="6.39922">
        <ele>2113.413</ele>
        <time>2018-08-15T09:22:22Z</time>
      </trkpt>
      <trkpt lat="45.03887" lon="6.39911">
        <ele>2114.9565</ele>
        <time>2018-08-15T09:22:28Z</time>
      </trkpt>
      <trkpt lat="45.03877" lon="6.39899">
        <ele>2116.6423</ele>
        <time>2018-08-15T09:22:34Z</time>
      </trkpt>
      <trkpt lat="45.03868" lon="6.39886">
        <ele>2118.1846</ele>
        <time>2018-08-15T09:22:40Z</time>
      </trkpt>
      <trkpt lat="45.03858" lon="6.39874">
        <ele>2119.7861</ele>
        <time>2018-08-15T09:22:46Z</time>
      </trkpt>
      <trkpt lat="45.03848" lon="6.39862">
        <ele>2121.5955</ele>
        <time>2018-08-15T09:22:52Z</time>
      </trkpt>
      <trkpt lat="45.03837" lon="6.39849">
        <ele>2123.3071</ele>
        <time>2018-08-15T09:22:58Z</time>
      </trkpt>
      <trkpt lat="45.03825" lon="6.39837">
        <ele>2124.9465</ele>
        <time>2018-08-15T09:23:04Z</time>
      </trkpt>
      <trkpt lat="45.03811" lon="6.39829">
        <ele>2126.312</ele>
        <time>2018-08-15T09:23:10Z</time>
      </trkpt>
      <trkpt lat="45.03796" lon="6.3983">
        <ele>2127.2766</ele>
        <time>2018-08-15T09:23:16Z</time>
      </trkpt>
      <trkpt lat="45.03781" lon="6.39832">
        <ele>2128.215</ele>
        <time>2018-08-15T09:23:22Z</time>
      </trkpt>
      <trkpt lat="45.03765" lon="6.39832">
        <ele>2129.3115</ele>
        <time>2018-08-15T09:23:28Z</time>
      </trkpt>
      <trkpt lat="45.03752" lon="6.39825">
        <ele>2130.3857</ele>
        <time>2018-08-15T09:23:34Z</time>
      </trkpt>
      <trkpt lat="45.03739" lon="6.39813">
        <ele>2131.4731</ele>
        <time>2018-08-15T09:23:40Z</time>
      </trkpt>
      <trkpt lat="45.03732" lon="6.39797">
        <ele>2132.5063</ele>
        <time>2018-08-15T09:23:46Z</time>
      </trkpt>
      <trkpt lat="45.03728" lon="6.3978">
        <ele>2133.7104</ele>
        <time>2018-08-15T09:23:52Z</time>
      </trkpt>
      <trkpt lat="45.03728" lon="6.39757">
        <ele>2134.966</ele>
        <time>2018-08-15T09:23:58Z</time>
      </trkpt>
      <trkpt lat="45.03728" lon="6.39738">
        <ele>2136.1394</ele>
        <time>2018-08-15T09:24:04Z</time>
      </trkpt>
      <trkpt lat="45.03731" lon="6.39716">
        <ele>2136.9795</ele>
        <time>2018-08-15T09:24:10Z</time>
      </trkpt>
      <trkpt lat="45.03731" lon="6.39696">
        <ele>2137.867</ele>
        <time>2018-08-15T09:24:16Z</time>
      </trkpt>
      <trkpt lat="45.03735" lon="6.39673">
        <ele>2138.6335</ele>
        <time>2018-08-15T09:24:22Z</time>
      </trkpt>
      <trkpt lat="45.03737" lon="6.39654">
        <ele>2139.357</ele>
        <time>2018-08-15T09:24:28Z</time>
      </trkpt>
      <trkpt lat="45.03741" lon="6.39633">
        <ele>2140.1533</ele>
        <time>2018-08-15T09:24:34Z</time>
      </trkpt>
      <trkpt lat="45.03745" lon="6.39614">
        <ele>2141.0742</ele>
        <time>2018-08-15T09:24:40Z</time>
      </trkpt>
      <trkpt lat="45.0375" lon="6.39596">
        <ele>2142.0078</ele>
        <time>2018-08-15T09:24:46Z</time>
      </trkpt>
      <trkpt lat="45.03756" lon="6.39579">
        <ele>2142.926</ele>
        <time>2018-08-15T09:24:52Z</time>
      </trkpt>
      <trkpt lat="45.03763" lon="6.39563">
        <ele>2143.8176</ele>
        <time>2018-08-15T09:24:58Z</time>
      </trkpt>
      <trkpt lat="45.03769" lon="6.39549">
        <ele>2144.588</ele>
        <time>2018-08-15T09:25:03Z</time>
      </trkpt>
      <trkpt lat="45.03776" lon="6.39533">
        <ele>2145.5474</ele>
        <time>2018-08-15T09:25:09Z</time>
      </trkpt>
      <trkpt lat="45.03782" lon="6.39518">
        <ele>2146.3591</ele>
        <time>2018-08-15T09:25:14Z</time>
      </trkpt>
      <trkpt lat="45.0379" lon="6.39502">
        <ele>2147.2727</ele>
        <time>2018-08-15T09:25:20Z</time>
      </trkpt>
      <trkpt lat="45.03797" lon="6.39485">
        <ele>2148.1</ele>
        <time>2018-08-15T09:25:26Z</time>
      </trkpt>
      <trkpt lat="45.03801" lon="6.39466">
        <ele>2148.9668</ele>
        <time>2018-08-15T09:25:32Z</time>
      </trkpt>
      <trkpt lat="45.03805" lon="6.39448">
        <ele>2149.761</ele>
        <time>2018-08-15T09:25:38Z</time>
      </trkpt>
      <trkpt lat="45.03806" lon="6.39429">
        <ele>2150.526</ele>
        <time>2018-08-15T09:25:43Z</time>
      </trkpt>
      <trkpt lat="45.03808" lon="6.3941">
        <ele>2151.3962</ele>
        <time>2018-08-15T09:25:49Z</time>
      </trkpt>
      <trkpt lat="45.03808" lon="6.39392">
        <ele>2152.3008</ele>
        <time>2018-08-15T09:25:54Z</time>
      </trkpt>
      <trkpt lat="45.0381" lon="6.39373">
        <ele>2153.4253</ele>
        <time>2018-08-15T09:26:00Z</time>
      </trkpt>
      <trkpt lat="45.03807" lon="6.39353">
        <ele>2154.7297</ele>
        <time>2018-08-15T09:26:06Z</time>
      </trkpt>
      <trkpt lat="45.03803" lon="6.39329">
        <ele>2156.14</ele>
        <time>2018-08-15T09:26:12Z</time>
      </trkpt>
      <trkpt lat="45.03803" lon="6.39307">
        <ele>2157.2805</ele>
        <time>2018-08-15T09:26:18Z</time>
      </trkpt>
      <trkpt lat="45.03811" lon="6.39292">
        <ele>2158.266</ele>
        <time>2018-08-15T09:26:23Z</time>
      </trkpt>
      <trkpt lat="45.03825" lon="6.39296">
        <ele>2159.0696</ele>
        <time>2018-08-15T09:26:28Z</time>
      </trkpt>
      <trkpt lat="45.03828" lon="6.39322">
        <ele>2159.9172</ele>
        <time>2018-08-15T09:26:34Z</time>
      </trkpt>
      <trkpt lat="45.03826" lon="6.39345">
        <ele>2161.0034</ele>
        <time>2018-08-15T09:26:40Z</time>
      </trkpt>
      <trkpt lat="45.03826" lon="6.39365">
        <ele>2161.9685</ele>
        <time>2018-08-15T09:26:45Z</time>
      </trkpt>
      <trkpt lat="45.03827" lon="6.39386">
        <ele>2163.0566</ele>
        <time>2018-08-15T09:26:50Z</time>
      </trkpt>
      <trkpt lat="45.0383" lon="6.39407">
        <ele>2164.4565</ele>
        <time>2018-08-15T09:26:56Z</time>
      </trkpt>
      <trkpt lat="45.03833" lon="6.39432">
        <ele>2165.793</ele>
        <time>2018-08-15T09:27:02Z</time>
      </trkpt>
      <trkpt lat="45.03836" lon="6.39452">
        <ele>2166.825</ele>
        <time>2018-08-15T09:27:07Z</time>
      </trkpt>
      <trkpt lat="45.03838" lon="6.39476">
        <ele>2168.0996</ele>
        <time>2018-08-15T09:27:13Z</time>
      </trkpt>
      <trkpt lat="45.0384" lon="6.39494">
        <ele>2169.4492</ele>
        <time>2018-08-15T09:27:18Z</time>
      </trkpt>
      <trkpt lat="45.03845" lon="6.39515">
        <ele>2171.1704</ele>
        <time>2018-08-15T09:27:24Z</time>
      </trkpt>
      <trkpt lat="45.03852" lon="6.39535">
        <ele>2172.9314</ele>
        <time>2018-08-15T09:27:30Z</time>
      </trkpt>
      <trkpt lat="45.0386" lon="6.39549">
        <ele>2174.369</ele>
        <time>2018-08-15T09:27:35Z</time>
      </trkpt>
      <trkpt lat="45.03869" lon="6.39565">
        <ele>2175.9956</ele>
        <time>2018-08-15T09:27:41Z</time>
      </trkpt>
      <trkpt lat="45.0388" lon="6.39583">
        <ele>2177.6755</ele>
        <time>2018-08-15T09:27:47Z</time>
      </trkpt>
      <trkpt lat="45.03891" lon="6.39604">
        <ele>2179.31</ele>
        <time>2018-08-15T09:27:53Z</time>
      </trkpt>
      <trkpt lat="45.03901" lon="6.39616">
        <ele>2180.836</ele>
        <time>2018-08-15T09:27:59Z</time>
      </trkpt>
      <trkpt lat="45.03912" lon="6.39632">
        <ele>2181.926</ele>
        <time>2018-08-15T09:28:05Z</time>
      </trkpt>
      <trkpt lat="45.03919" lon="6.39646">
        <ele>2182.878</ele>
        <time>2018-08-15T09:28:10Z</time>
      </trkpt>
      <trkpt lat="45.03928" lon="6.39663">
        <ele>2184.2664</ele>
        <time>2018-08-15T09:28:16Z</time>
      </trkpt>
      <trkpt lat="45.03939" lon="6.39678">
        <ele>2185.7468</ele>
        <time>2018-08-15T09:28:22Z</time>
      </trkpt>
      <trkpt lat="45.03946" lon="6.3969">
        <ele>2186.9954</ele>
        <time>2018-08-15T09:28:27Z</time>
      </trkpt>
      <trkpt lat="45.03956" lon="6.39705">
        <ele>2188.326</ele>
        <time>2018-08-15T09:28:33Z</time>
      </trkpt>
      <trkpt lat="45.03965" lon="6.39721">
        <ele>2189.7366</ele>
        <time>2018-08-15T09:28:39Z</time>
      </trkpt>
      <trkpt lat="45.03973" lon="6.39733">
        <ele>2190.913</ele>
        <time>2018-08-15T09:28:44Z</time>
      </trkpt>
      <trkpt lat="45.03983" lon="6.39746">
        <ele>2192.287</ele>
        <time>2018-08-15T09:28:50Z</time>
      </trkpt>
      <trkpt lat="45.03993" lon="6.39755">
        <ele>2193.552</ele>
        <time>2018-08-15T09:28:56Z</time>
      </trkpt>
      <trkpt lat="45.04003" lon="6.39765">
        <ele>2194.671</ele>
        <time>2018-08-15T09:29:01Z</time>
      </trkpt>
      <trkpt lat="45.04016" lon="6.39775">
        <ele>2196.0068</ele>
        <time>2018-08-15T09:29:07Z</time>
      </trkpt>
      <trkpt lat="45.04026" lon="6.39784">
        <ele>2197.065</ele>
        <time>2018-08-15T09:29:12Z</time>
      </trkpt>
      <trkpt lat="45.04036" lon="6.39795">
        <ele>2198.2505</ele>
        <time>2018-08-15T09:29:17Z</time>
      </trkpt>
      <trkpt lat="45.04049" lon="6.39808">
        <ele>2199.8657</ele>
        <time>2018-08-15T09:29:23Z</time>
      </trkpt>
      <trkpt lat="45.04061" lon="6.39818">
        <ele>2201.4395</ele>
        <time>2018-08-15T09:29:29Z</time>
      </trkpt>
      <trkpt lat="45.0407" lon="6.39825">
        <ele>2202.525</ele>
        <time>2018-08-15T09:29:34Z</time>
      </trkpt>
      <trkpt lat="45.04083" lon="6.39837">
        <ele>2203.6794</ele>
        <time>2018-08-15T09:29:40Z</time>
      </trkpt>
      <trkpt lat="45.04095" lon="6.39848">
        <ele>2204.782</ele>
        <time>2018-08-15T09:29:46Z</time>
      </trkpt>
      <trkpt lat="45.04108" lon="6.39862">
        <ele>2205.8901</ele>
        <time>2018-08-15T09:29:51Z</time>
      </trkpt>
      <trkpt lat="45.04119" lon="6.39872">
        <ele>2207.3955</ele>
        <time>2018-08-15T09:29:57Z</time>
      </trkpt>
      <trkpt lat="45.04132" lon="6.39882">
        <ele>2208.8406</ele>
        <time>2018-08-15T09:30:03Z</time>
      </trkpt>
      <trkpt lat="45.04143" lon="6.39889">
        <ele>2209.956</ele>
        <time>2018-08-15T09:30:08Z</time>
      </trkpt>
      <trkpt lat="45.04157" lon="6.39895">
        <ele>2211.333</ele>
        <time>2018-08-15T09:30:14Z</time>
      </trkpt>
      <trkpt lat="45.0417" lon="6.39903">
        <ele>2212.6523</ele>
        <time>2018-08-15T09:30:20Z</time>
      </trkpt>
      <trkpt lat="45.04182" lon="6.39911">
        <ele>2213.9475</ele>
        <time>2018-08-15T09:30:26Z</time>
      </trkpt>
      <trkpt lat="45.04193" lon="6.39923">
        <ele>2215.051</ele>
        <time>2018-08-15T09:30:31Z</time>
      </trkpt>
      <trkpt lat="45.04205" lon="6.39938">
        <ele>2216.598</ele>
        <time>2018-08-15T09:30:37Z</time>
      </trkpt>
      <trkpt lat="45.04216" lon="6.39952">
        <ele>2218.2139</ele>
        <time>2018-08-15T09:30:43Z</time>
      </trkpt>
      <trkpt lat="45.04226" lon="6.39966">
        <ele>2219.7632</ele>
        <time>2018-08-15T09:30:49Z</time>
      </trkpt>
      <trkpt lat="45.04236" lon="6.39979">
        <ele>2221.1816</ele>
        <time>2018-08-15T09:30:54Z</time>
      </trkpt>
      <trkpt lat="45.04246" lon="6.39993">
        <ele>2222.8367</ele>
        <time>2018-08-15T09:31:00Z</time>
      </trkpt>
      <trkpt lat="45.04255" lon="6.40006">
        <ele>2224.0664</ele>
        <time>2018-08-15T09:31:05Z</time>
      </trkpt>
      <trkpt lat="45.04263" lon="6.40018">
        <ele>2225.2354</ele>
        <time>2018-08-15T09:31:10Z</time>
      </trkpt>
      <trkpt lat="45.04272" lon="6.40033">
        <ele>2226.6348</ele>
        <time>2018-08-15T09:31:16Z</time>
      </trkpt>
      <trkpt lat="45.04283" lon="6.40051">
        <ele>2228.0947</ele>
        <time>2018-08-15T09:31:22Z</time>
      </trkpt>
      <trkpt lat="45.04291" lon="6.40064">
        <ele>2229.3696</ele>
        <time>2018-08-15T09:31:27Z</time>
      </trkpt>
      <trkpt lat="45.043" lon="6.40082">
        <ele>2230.9539</ele>
        <time>2018-08-15T09:31:33Z</time>
      </trkpt>
      <trkpt lat="45.04309" lon="6.40102">
        <ele>2232.516</ele>
        <time>2018-08-15T09:31:39Z</time>
      </trkpt>
      <trkpt lat="45.04318" lon="6.40121">
        <ele>2233.9436</ele>
        <time>2018-08-15T09:31:45Z</time>
      </trkpt>
      <trkpt lat="45.04326" lon="6.40139">
        <ele>2235.2317</ele>
        <time>2018-08-15T09:31:51Z</time>
      </trkpt>
      <trkpt lat="45.04333" lon="6.40155">
        <ele>2236.2976</ele>
        <time>2018-08-15T09:31:57Z</time>
      </trkpt>
      <trkpt lat="45.0434" lon="6.4017">
        <ele>2237.2183</ele>
        <time>2018-08-15T09:32:03Z</time>
      </trkpt>
      <trkpt lat="45.04349" lon="6.40184">
        <ele>2238.1265</ele>
        <time>2018-08-15T09:32:09Z</time>
      </trkpt>
      <trkpt lat="45.04357" lon="6.40188">
        <ele>2239.187</ele>
        <time>2018-08-15T09:32:15Z</time>
      </trkpt>
      <trkpt lat="45.04369" lon="6.40186">
        <ele>2240.2007</ele>
        <time>2018-08-15T09:32:21Z</time>
      </trkpt>
      <trkpt lat="45.04382" lon="6.40183">
        <ele>2241.006</ele>
        <time>2018-08-15T09:32:27Z</time>
      </trkpt>
      <trkpt lat="45.04392" lon="6.40171">
        <ele>2241.6523</ele>
        <time>2018-08-15T09:32:33Z</time>
      </trkpt>
      <trkpt lat="45.04399" lon="6.40157">
        <ele>2242.1924</ele>
        <time>2018-08-15T09:32:38Z</time>
      </trkpt>
      <trkpt lat="45.04408" lon="6.40138">
        <ele>2242.8816</ele>
        <time>2018-08-15T09:32:44Z</time>
      </trkpt>
      <trkpt lat="45.04416" lon="6.40122">
        <ele>2243.2908</ele>
        <time>2018-08-15T09:32:49Z</time>
      </trkpt>
      <trkpt lat="45.04426" lon="6.40108">
        <ele>2243.792</ele>
        <time>2018-08-15T09:32:55Z</time>
      </trkpt>
      <trkpt lat="45.04437" lon="6.401">
        <ele>2244.603</ele>
        <time>2018-08-15T09:33:00Z</time>
      </trkpt>
      <trkpt lat="45.04452" lon="6.40094">
        <ele>2245.6125</ele>
        <time>2018-08-15T09:33:05Z</time>
      </trkpt>
      <trkpt lat="45.04467" lon="6.40092">
        <ele>2246.775</ele>
        <time>2018-08-15T09:33:11Z</time>
      </trkpt>
      <trkpt lat="45.04475" lon="6.40089">
        <ele>2247.6606</ele>
        <time>2018-08-15T09:33:16Z</time>
      </trkpt>
      <trkpt lat="45.04492" lon="6.40085">
        <ele>2248.5168</ele>
        <time>2018-08-15T09:33:22Z</time>
      </trkpt>
      <trkpt lat="45.04504" lon="6.40075">
        <ele>2249.478</ele>
        <time>2018-08-15T09:33:28Z</time>
      </trkpt>
      <trkpt lat="45.04514" lon="6.40063">
        <ele>2250.5408</ele>
        <time>2018-08-15T09:33:34Z</time>
      </trkpt>
      <trkpt lat="45.04527" lon="6.40053">
        <ele>2251.3467</ele>
        <time>2018-08-15T09:33:40Z</time>
      </trkpt>
      <trkpt lat="45.04539" lon="6.4004">
        <ele>2252.1265</ele>
        <time>2018-08-15T09:33:46Z</time>
      </trkpt>
      <trkpt lat="45.04549" lon="6.40028">
        <ele>2253.0923</ele>
        <time>2018-08-15T09:33:52Z</time>
      </trkpt>
      <trkpt lat="45.0456" lon="6.40018">
        <ele>2253.8105</ele>
        <time>2018-08-15T09:33:58Z</time>
      </trkpt>
      <trkpt lat="45.04572" lon="6.40007">
        <ele>2254.6882</ele>
        <time>2018-08-15T09:34:04Z</time>
      </trkpt>
      <trkpt lat="45.04583" lon="6.39997">
        <ele>2255.5425</ele>
        <time>2018-08-15T09:34:10Z</time>
      </trkpt>
      <trkpt lat="45.04594" lon="6.39986">
        <ele>2256.4688</ele>
        <time>2018-08-15T09:34:16Z</time>
      </trkpt>
      <trkpt lat="45.04602" lon="6.39982">
        <ele>2257.673</ele>
        <time>2018-08-15T09:34:21Z</time>
      </trkpt>
      <trkpt lat="45.04613" lon="6.39973">
        <ele>2259.7268</ele>
        <time>2018-08-15T09:34:27Z</time>
      </trkpt>
      <trkpt lat="45.04621" lon="6.39964">
        <ele>2261.6265</ele>
        <time>2018-08-15T09:34:32Z</time>
      </trkpt>
      <trkpt lat="45.04633" lon="6.39953">
        <ele>2263.6328</ele>
        <time>2018-08-15T09:34:38Z</time>
      </trkpt>
      <trkpt lat="45.0464" lon="6.39939">
        <ele>2265.117</ele>
        <time>2018-08-15T09:34:44Z</time>
      </trkpt>
      <trkpt lat="45.04646" lon="6.39931">
        <ele>2266.0916</ele>
        <time>2018-08-15T09:34:49Z</time>
      </trkpt>
      <trkpt lat="45.04657" lon="6.39919">
        <ele>2267.4026</ele>
        <time>2018-08-15T09:34:55Z</time>
      </trkpt>
      <trkpt lat="45.04669" lon="6.39907">
        <ele>2268.595</ele>
        <time>2018-08-15T09:35:01Z</time>
      </trkpt>
      <trkpt lat="45.04681" lon="6.39895">
        <ele>2270.0298</ele>
        <time>2018-08-15T09:35:07Z</time>
      </trkpt>
      <trkpt lat="45.04689" lon="6.39883">
        <ele>2271.4414</ele>
        <time>2018-08-15T09:35:12Z</time>
      </trkpt>
      <trkpt lat="45.047" lon="6.39858">
        <ele>2272.6672</ele>
        <time>2018-08-15T09:35:18Z</time>
      </trkpt>
      <trkpt lat="45.04709" lon="6.39843">
        <ele>2273.1477</ele>
        <time>2018-08-15T09:35:23Z</time>
      </trkpt>
      <trkpt lat="45.04718" lon="6.39828">
        <ele>2273.6533</ele>
        <time>2018-08-15T09:35:28Z</time>
      </trkpt>
      <trkpt lat="45.04731" lon="6.3981">
        <ele>2274.4417</ele>
        <time>2018-08-15T09:35:34Z</time>
      </trkpt>
      <trkpt lat="45.04738" lon="6.39795">
        <ele>2275.3257</ele>
        <time>2018-08-15T09:35:40Z</time>
      </trkpt>
      <trkpt lat="45.04747" lon="6.39781">
        <ele>2275.9595</ele>
        <time>2018-08-15T09:35:46Z</time>
      </trkpt>
      <trkpt lat="45.04756" lon="6.39765">
        <ele>2276.5315</ele>
        <time>2018-08-15T09:35:52Z</time>
      </trkpt>
      <trkpt lat="45.04766" lon="6.3975">
        <ele>2277.0703</ele>
        <time>2018-08-15T09:35:58Z</time>
      </trkpt>
      <trkpt lat="45.04775" lon="6.39736">
        <ele>2277.611</ele>
        <time>2018-08-15T09:36:04Z</time>
      </trkpt>
      <trkpt lat="45.04783" lon="6.39725">
        <ele>2278.1829</ele>
        <time>2018-08-15T09:36:09Z</time>
      </trkpt>
      <trkpt lat="45.04792" lon="6.39714">
        <ele>2278.802</ele>
        <time>2018-08-15T09:36:14Z</time>
      </trkpt>
      <trkpt lat="45.048" lon="6.39703">
        <ele>2279.4937</ele>
        <time>2018-08-15T09:36:19Z</time>
      </trkpt>
      <trkpt lat="45.04811" lon="6.39691">
        <ele>2280.3752</ele>
        <time>2018-08-15T09:36:25Z</time>
      </trkpt>
      <trkpt lat="45.04819" lon="6.39679">
        <ele>2281.113</ele>
        <time>2018-08-15T09:36:30Z</time>
      </trkpt>
      <trkpt lat="45.04829" lon="6.39666">
        <ele>2282.018</ele>
        <time>2018-08-15T09:36:36Z</time>
      </trkpt>
      <trkpt lat="45.04842" lon="6.39654">
        <ele>2282.8643</ele>
        <time>2018-08-15T09:36:42Z</time>
      </trkpt>
      <trkpt lat="45.04849" lon="6.3964">
        <ele>2283.6147</ele>
        <time>2018-08-15T09:36:48Z</time>
      </trkpt>
      <trkpt lat="45.04854" lon="6.39626">
        <ele>2284.2073</ele>
        <time>2018-08-15T09:36:53Z</time>
      </trkpt>
      <trkpt lat="45.04859" lon="6.39611">
        <ele>2284.7961</ele>
        <time>2018-08-15T09:36:58Z</time>
      </trkpt>
      <trkpt lat="45.04867" lon="6.39598">
        <ele>2285.2444</ele>
        <time>2018-08-15T09:37:04Z</time>
      </trkpt>
      <trkpt lat="45.04871" lon="6.39579">
        <ele>2285.5564</ele>
        <time>2018-08-15T09:37:10Z</time>
      </trkpt>
      <trkpt lat="45.04873" lon="6.3956">
        <ele>2286.281</ele>
        <time>2018-08-15T09:37:16Z</time>
      </trkpt>
      <trkpt lat="45.04874" lon="6.39544">
        <ele>2286.7744</ele>
        <time>2018-08-15T09:37:21Z</time>
      </trkpt>
      <trkpt lat="45.04874" lon="6.39524">
        <ele>2287.3438</ele>
        <time>2018-08-15T09:37:27Z</time>
      </trkpt>
      <trkpt lat="45.04875" lon="6.39508">
        <ele>2287.852</ele>
        <time>2018-08-15T09:37:32Z</time>
      </trkpt>
      <trkpt lat="45.04878" lon="6.3949">
        <ele>2288.428</ele>
        <time>2018-08-15T09:37:38Z</time>
      </trkpt>
      <trkpt lat="45.04883" lon="6.39471">
        <ele>2289.03</ele>
        <time>2018-08-15T09:37:44Z</time>
      </trkpt>
      <trkpt lat="45.04889" lon="6.39455">
        <ele>2289.76</ele>
        <time>2018-08-15T09:37:50Z</time>
      </trkpt>
      <trkpt lat="45.04896" lon="6.39443">
        <ele>2290.398</ele>
        <time>2018-08-15T09:37:55Z</time>
      </trkpt>
      <trkpt lat="45.04906" lon="6.39429">
        <ele>2291.168</ele>
        <time>2018-08-15T09:38:01Z</time>
      </trkpt>
      <trkpt lat="45.04915" lon="6.39415">
        <ele>2291.9678</ele>
        <time>2018-08-15T09:38:07Z</time>
      </trkpt>
      <trkpt lat="45.04924" lon="6.39401">
        <ele>2292.8286</ele>
        <time>2018-08-15T09:38:13Z</time>
      </trkpt>
      <trkpt lat="45.04935" lon="6.39391">
        <ele>2293.7214</ele>
        <time>2018-08-15T09:38:19Z</time>
      </trkpt>
      <trkpt lat="45.04948" lon="6.39383">
        <ele>2294.6143</ele>
        <time>2018-08-15T09:38:25Z</time>
      </trkpt>
      <trkpt lat="45.0496" lon="6.39378">
        <ele>2295.3599</ele>
        <time>2018-08-15T09:38:30Z</time>
      </trkpt>
      <trkpt lat="45.04972" lon="6.39372">
        <ele>2296.144</ele>
        <time>2018-08-15T09:38:35Z</time>
      </trkpt>
      <trkpt lat="45.04984" lon="6.39368">
        <ele>2297.1323</ele>
        <time>2018-08-15T09:38:41Z</time>
      </trkpt>
      <trkpt lat="45.04994" lon="6.39362">
        <ele>2298.0056</ele>
        <time>2018-08-15T09:38:46Z</time>
      </trkpt>
      <trkpt lat="45.05004" lon="6.39355">
        <ele>2298.9204</ele>
        <time>2018-08-15T09:38:51Z</time>
      </trkpt>
      <trkpt lat="45.05014" lon="6.39343">
        <ele>2300.0251</ele>
        <time>2018-08-15T09:38:57Z</time>
      </trkpt>
      <trkpt lat="45.05018" lon="6.3933">
        <ele>2301.0386</ele>
        <time>2018-08-15T09:39:03Z</time>
      </trkpt>
      <trkpt lat="45.0502" lon="6.39314">
        <ele>2301.8706</ele>
        <time>2018-08-15T09:39:09Z</time>
      </trkpt>
      <trkpt lat="45.05018" lon="6.39299">
        <ele>2302.4846</ele>
        <time>2018-08-15T09:39:14Z</time>
      </trkpt>
      <trkpt lat="45.05016" lon="6.39284">
        <ele>2303.0896</ele>
        <time>2018-08-15T09:39:19Z</time>
      </trkpt>
      <trkpt lat="45.05013" lon="6.39264">
        <ele>2303.8271</ele>
        <time>2018-08-15T09:39:25Z</time>
      </trkpt>
      <trkpt lat="45.05012" lon="6.39251">
        <ele>2304.4116</ele>
        <time>2018-08-15T09:39:30Z</time>
      </trkpt>
      <trkpt lat="45.05013" lon="6.39232">
        <ele>2305.0134</ele>
        <time>2018-08-15T09:39:36Z</time>
      </trkpt>
      <trkpt lat="45.05018" lon="6.39213">
        <ele>2305.5962</ele>
        <time>2018-08-15T09:39:42Z</time>
      </trkpt>
      <trkpt lat="45.05027" lon="6.39197">
        <ele>2306.312</ele>
        <time>2018-08-15T09:39:48Z</time>
      </trkpt>
      <trkpt lat="45.05037" lon="6.39185">
        <ele>2307.1328</ele>
        <time>2018-08-15T09:39:54Z</time>
      </trkpt>
      <trkpt lat="45.05048" lon="6.39175">
        <ele>2308.0737</ele>
        <time>2018-08-15T09:40:00Z</time>
      </trkpt>
      <trkpt lat="45.05056" lon="6.39165">
        <ele>2308.924</ele>
        <time>2018-08-15T09:40:05Z</time>
      </trkpt>
      <trkpt lat="45.05065" lon="6.39154">
        <ele>2309.9724</ele>
        <time>2018-08-15T09:40:11Z</time>
      </trkpt>
      <trkpt lat="45.05076" lon="6.39143">
        <ele>2311.061</ele>
        <time>2018-08-15T09:40:17Z</time>
      </trkpt>
      <trkpt lat="45.05085" lon="6.39134">
        <ele>2312.0244</ele>
        <time>2018-08-15T09:40:22Z</time>
      </trkpt>
      <trkpt lat="45.05096" lon="6.39121">
        <ele>2313.2395</ele>
        <time>2018-08-15T09:40:28Z</time>
      </trkpt>
      <trkpt lat="45.05105" lon="6.39112">
        <ele>2314.244</ele>
        <time>2018-08-15T09:40:33Z</time>
      </trkpt>
      <trkpt lat="45.05114" lon="6.39101">
        <ele>2315.2568</ele>
        <time>2018-08-15T09:40:38Z</time>
      </trkpt>
      <trkpt lat="45.05124" lon="6.39086">
        <ele>2316.4238</ele>
        <time>2018-08-15T09:40:44Z</time>
      </trkpt>
      <trkpt lat="45.05131" lon="6.39071">
        <ele>2317.377</ele>
        <time>2018-08-15T09:40:49Z</time>
      </trkpt>
      <trkpt lat="45.05138" lon="6.39054">
        <ele>2318.5166</ele>
        <time>2018-08-15T09:40:55Z</time>
      </trkpt>
      <trkpt lat="45.05145" lon="6.39042">
        <ele>2319.458</ele>
        <time>2018-08-15T09:41:00Z</time>
      </trkpt>
      <trkpt lat="45.05151" lon="6.39029">
        <ele>2320.3738</ele>
        <time>2018-08-15T09:41:05Z</time>
      </trkpt>
      <trkpt lat="45.05157" lon="6.39015">
        <ele>2321.2664</ele>
        <time>2018-08-15T09:41:10Z</time>
      </trkpt>
      <trkpt lat="45.05165" lon="6.39">
        <ele>2322.3057</ele>
        <time>2018-08-15T09:41:16Z</time>
      </trkpt>
      <trkpt lat="45.05172" lon="6.38989">
        <ele>2323.13</ele>
        <time>2018-08-15T09:41:21Z</time>
      </trkpt>
      <trkpt lat="45.05181" lon="6.38974">
        <ele>2324.1023</ele>
        <time>2018-08-15T09:41:27Z</time>
      </trkpt>
      <trkpt lat="45.05187" lon="6.38962">
        <ele>2324.909</ele>
        <time>2018-08-15T09:41:32Z</time>
      </trkpt>
      <trkpt lat="45.05201" lon="6.38954">
        <ele>2325.8699</ele>
        <time>2018-08-15T09:41:38Z</time>
      </trkpt>
      <trkpt lat="45.05215" lon="6.38959">
        <ele>2326.9119</ele>
        <time>2018-08-15T09:41:44Z</time>
      </trkpt>
      <trkpt lat="45.05227" lon="6.38969">
        <ele>2327.8228</ele>
        <time>2018-08-15T09:41:49Z</time>
      </trkpt>
      <trkpt lat="45.0524" lon="6.38988">
        <ele>2329.0376</ele>
        <time>2018-08-15T09:41:55Z</time>
      </trkpt>
      <trkpt lat="45.05247" lon="6.39007">
        <ele>2330.3623</ele>
        <time>2018-08-15T09:42:01Z</time>
      </trkpt>
      <trkpt lat="45.05245" lon="6.39032">
        <ele>2331.7273</ele>
        <time>2018-08-15T09:42:07Z</time>
      </trkpt>
      <trkpt lat="45.05237" lon="6.39047">
        <ele>2332.8723</ele>
        <time>2018-08-15T09:42:12Z</time>
      </trkpt>
      <trkpt lat="45.05227" lon="6.39062">
        <ele>2334.2332</ele>
        <time>2018-08-15T09:42:18Z</time>
      </trkpt>
      <trkpt lat="45.05219" lon="6.39072">
        <ele>2335.2969</ele>
        <time>2018-08-15T09:42:23Z</time>
      </trkpt>
      <trkpt lat="45.05208" lon="6.39086">
        <ele>2336.852</ele>
        <time>2018-08-15T09:42:29Z</time>
      </trkpt>
      <trkpt lat="45.05201" lon="6.391">
        <ele>2338.5647</ele>
        <time>2018-08-15T09:42:35Z</time>
      </trkpt>
      <trkpt lat="45.05196" lon="6.39115">
        <ele>2339.9414</ele>
        <time>2018-08-15T09:42:40Z</time>
      </trkpt>
      <trkpt lat="45.05191" lon="6.39132">
        <ele>2341.543</ele>
        <time>2018-08-15T09:42:46Z</time>
      </trkpt>
      <trkpt lat="45.05185" lon="6.39152">
        <ele>2343.122</ele>
        <time>2018-08-15T09:42:52Z</time>
      </trkpt>
      <trkpt lat="45.0518" lon="6.39169">
        <ele>2344.3855</ele>
        <time>2018-08-15T09:42:57Z</time>
      </trkpt>
      <trkpt lat="45.05175" lon="6.39187">
        <ele>2345.8555</ele>
        <time>2018-08-15T09:43:03Z</time>
      </trkpt>
      <trkpt lat="45.05171" lon="6.39204">
        <ele>2347.0698</ele>
        <time>2018-08-15T09:43:08Z</time>
      </trkpt>
      <trkpt lat="45.05168" lon="6.39223">
        <ele>2348.5427</ele>
        <time>2018-08-15T09:43:14Z</time>
      </trkpt>
      <trkpt lat="45.05169" lon="6.39245">
        <ele>2349.9954</ele>
        <time>2018-08-15T09:43:20Z</time>
      </trkpt>
      <trkpt lat="45.05178" lon="6.39265">
        <ele>2351.427</ele>
        <time>2018-08-15T09:43:26Z</time>
      </trkpt>
      <trkpt lat="45.05194" lon="6.3928">
        <ele>2352.7544</ele>
        <time>2018-08-15T09:43:32Z</time>
      </trkpt>
      <trkpt lat="45.05209" lon="6.39294">
        <ele>2353.9016</ele>
        <time>2018-08-15T09:43:38Z</time>
      </trkpt>
      <trkpt lat="45.05222" lon="6.39311">
        <ele>2354.954</ele>
        <time>2018-08-15T09:43:44Z</time>
      </trkpt>
      <trkpt lat="45.05229" lon="6.39328">
        <ele>2355.779</ele>
        <time>2018-08-15T09:43:49Z</time>
      </trkpt>
      <trkpt lat="45.05233" lon="6.3935">
        <ele>2356.7979</ele>
        <time>2018-08-15T09:43:55Z</time>
      </trkpt>
      <trkpt lat="45.05236" lon="6.39371">
        <ele>2357.8323</ele>
        <time>2018-08-15T09:44:01Z</time>
      </trkpt>
      <trkpt lat="45.05241" lon="6.39391">
        <ele>2358.9011</ele>
        <time>2018-08-15T09:44:07Z</time>
      </trkpt>
      <trkpt lat="45.05248" lon="6.39404">
        <ele>2359.795</ele>
        <time>2018-08-15T09:44:12Z</time>
      </trkpt>
      <trkpt lat="45.05263" lon="6.39417">
        <ele>2360.8125</ele>
        <time>2018-08-15T09:44:18Z</time>
      </trkpt>
      <trkpt lat="45.05278" lon="6.39429">
        <ele>2361.7703</ele>
        <time>2018-08-15T09:44:24Z</time>
      </trkpt>
      <trkpt lat="45.05292" lon="6.39444">
        <ele>2362.671</ele>
        <time>2018-08-15T09:44:30Z</time>
      </trkpt>
      <trkpt lat="45.05301" lon="6.39466">
        <ele>2363.8816</ele>
        <time>2018-08-15T09:44:36Z</time>
      </trkpt>
      <trkpt lat="45.05306" lon="6.3949">
        <ele>2365.4658</ele>
        <time>2018-08-15T09:44:42Z</time>
      </trkpt>
      <trkpt lat="45.05309" lon="6.39506">
        <ele>2366.8093</ele>
        <time>2018-08-15T09:44:47Z</time>
      </trkpt>
      <trkpt lat="45.05315" lon="6.39529">
        <ele>2368.3726</ele>
        <time>2018-08-15T09:44:53Z</time>
      </trkpt>
      <trkpt lat="45.05322" lon="6.39554">
        <ele>2369.9832</ele>
        <time>2018-08-15T09:44:59Z</time>
      </trkpt>
      <trkpt lat="45.05325" lon="6.39568">
        <ele>2371.281</ele>
        <time>2018-08-15T09:45:04Z</time>
      </trkpt>
      <trkpt lat="45.05327" lon="6.39588">
        <ele>2372.7363</ele>
        <time>2018-08-15T09:45:10Z</time>
      </trkpt>
      <trkpt lat="45.0533" lon="6.39607">
        <ele>2373.828</ele>
        <time>2018-08-15T09:45:15Z</time>
      </trkpt>
      <trkpt lat="45.05333" lon="6.39627">
        <ele>2374.6245</ele>
        <time>2018-08-15T09:45:20Z</time>
      </trkpt>
      <trkpt lat="45.05332" lon="6.39647">
        <ele>2375.7373</ele>
        <time>2018-08-15T09:45:26Z</time>
      </trkpt>
      <trkpt lat="45.05332" lon="6.39668">
        <ele>2376.9214</ele>
        <time>2018-08-15T09:45:32Z</time>
      </trkpt>
      <trkpt lat="45.05333" lon="6.39683">
        <ele>2377.8003</ele>
        <time>2018-08-15T09:45:37Z</time>
      </trkpt>
      <trkpt lat="45.05333" lon="6.397">
        <ele>2378.6465</ele>
        <time>2018-08-15T09:45:42Z</time>
      </trkpt>
      <trkpt lat="45.05332" lon="6.39714">
        <ele>2379.4573</ele>
        <time>2018-08-15T09:45:47Z</time>
      </trkpt>
      <trkpt lat="45.05332" lon="6.39733">
        <ele>2380.4297</ele>
        <time>2018-08-15T09:45:53Z</time>
      </trkpt>
      <trkpt lat="45.05332" lon="6.39752">
        <ele>2381.4248</ele>
        <time>2018-08-15T09:45:59Z</time>
      </trkpt>
      <trkpt lat="45.05331" lon="6.39765">
        <ele>2382.1511</ele>
        <time>2018-08-15T09:46:04Z</time>
      </trkpt>
      <trkpt lat="45.05329" lon="6.39782">
        <ele>2383.036</ele>
        <time>2018-08-15T09:46:10Z</time>
      </trkpt>
      <trkpt lat="45.05327" lon="6.39801">
        <ele>2384.021</ele>
        <time>2018-08-15T09:46:16Z</time>
      </trkpt>
      <trkpt lat="45.05326" lon="6.39814">
        <ele>2384.9243</ele>
        <time>2018-08-15T09:46:21Z</time>
      </trkpt>
      <trkpt lat="45.05325" lon="6.39831">
        <ele>2386.036</ele>
        <time>2018-08-15T09:46:27Z</time>
      </trkpt>
      <trkpt lat="45.05323" lon="6.39845">
        <ele>2387.0012</ele>
        <time>2018-08-15T09:46:32Z</time>
      </trkpt>
      <trkpt lat="45.05322" lon="6.39863">
        <ele>2388.247</ele>
        <time>2018-08-15T09:46:38Z</time>
      </trkpt>
      <trkpt lat="45.0532" lon="6.39878">
        <ele>2389.3137</ele>
        <time>2018-08-15T09:46:43Z</time>
      </trkpt>
      <trkpt lat="45.05317" lon="6.39894">
        <ele>2390.6006</ele>
        <time>2018-08-15T09:46:49Z</time>
      </trkpt>
      <trkpt lat="45.05317" lon="6.3991">
        <ele>2391.432</ele>
        <time>2018-08-15T09:46:54Z</time>
      </trkpt>
      <trkpt lat="45.05315" lon="6.39931">
        <ele>2392.4153</ele>
        <time>2018-08-15T09:47:00Z</time>
      </trkpt>
      <trkpt lat="45.05313" lon="6.39945">
        <ele>2392.5393</ele>
        <time>2018-08-15T09:47:05Z</time>
      </trkpt>
      <trkpt lat="45.05305" lon="6.39957">
        <ele>2393.6526</ele>
        <time>2018-08-15T09:47:11Z</time>
      </trkpt>
      <trkpt lat="45.05298" lon="6.39973">
        <ele>2395.328</ele>
        <time>2018-08-15T09:47:17Z</time>
      </trkpt>
      <trkpt lat="45.05294" lon="6.39988">
        <ele>2396.7073</ele>
        <time>2018-08-15T09:47:23Z</time>
      </trkpt>
      <trkpt lat="45.05291" lon="6.40002">
        <ele>2397.7705</ele>
        <time>2018-08-15T09:47:28Z</time>
      </trkpt>
      <trkpt lat="45.05289" lon="6.40019">
        <ele>2399.0044</ele>
        <time>2018-08-15T09:47:34Z</time>
      </trkpt>
      <trkpt lat="45.05287" lon="6.40035">
        <ele>2399.9917</ele>
        <time>2018-08-15T09:47:39Z</time>
      </trkpt>
      <trkpt lat="45.05286" lon="6.40048">
        <ele>2400.918</ele>
        <time>2018-08-15T09:47:44Z</time>
      </trkpt>
      <trkpt lat="45.05287" lon="6.40065">
        <ele>2401.9236</ele>
        <time>2018-08-15T09:47:50Z</time>
      </trkpt>
      <trkpt lat="45.05291" lon="6.40082">
        <ele>2402.879</ele>
        <time>2018-08-15T09:47:56Z</time>
      </trkpt>
      <trkpt lat="45.05295" lon="6.401">
        <ele>2403.8457</ele>
        <time>2018-08-15T09:48:02Z</time>
      </trkpt>
      <trkpt lat="45.053" lon="6.40117">
        <ele>2404.7773</ele>
        <time>2018-08-15T09:48:08Z</time>
      </trkpt>
      <trkpt lat="45.05305" lon="6.40135">
        <ele>2405.7156</ele>
        <time>2018-08-15T09:48:14Z</time>
      </trkpt>
      <trkpt lat="45.05308" lon="6.40154">
        <ele>2406.6255</ele>
        <time>2018-08-15T09:48:20Z</time>
      </trkpt>
      <trkpt lat="45.05311" lon="6.40172">
        <ele>2407.478</ele>
        <time>2018-08-15T09:48:26Z</time>
      </trkpt>
      <trkpt lat="45.0531" lon="6.40192">
        <ele>2408.3906</ele>
        <time>2018-08-15T09:48:32Z</time>
      </trkpt>
      <trkpt lat="45.05309" lon="6.40212">
        <ele>2409.5645</ele>
        <time>2018-08-15T09:48:38Z</time>
      </trkpt>
      <trkpt lat="45.0531" lon="6.40226">
        <ele>2410.5342</ele>
        <time>2018-08-15T09:48:43Z</time>
      </trkpt>
      <trkpt lat="45.05315" lon="6.40243">
        <ele>2411.6816</ele>
        <time>2018-08-15T09:48:49Z</time>
      </trkpt>
      <trkpt lat="45.05321" lon="6.40253">
        <ele>2412.6646</ele>
        <time>2018-08-15T09:48:54Z</time>
      </trkpt>
      <trkpt lat="45.05333" lon="6.40261">
        <ele>2414.014</ele>
        <time>2018-08-15T09:49:00Z</time>
      </trkpt>
      <trkpt lat="45.05348" lon="6.40259">
        <ele>2415.1182</ele>
        <time>2018-08-15T09:49:06Z</time>
      </trkpt>
      <trkpt lat="45.05359" lon="6.40254">
        <ele>2415.9685</ele>
        <time>2018-08-15T09:49:11Z</time>
      </trkpt>
      <trkpt lat="45.05375" lon="6.40257">
        <ele>2416.93</ele>
        <time>2018-08-15T09:49:17Z</time>
      </trkpt>
      <trkpt lat="45.05387" lon="6.40271">
        <ele>2417.8125</ele>
        <time>2018-08-15T09:49:23Z</time>
      </trkpt>
      <trkpt lat="45.05392" lon="6.40286">
        <ele>2418.473</ele>
        <time>2018-08-15T09:49:28Z</time>
      </trkpt>
      <trkpt lat="45.05393" lon="6.40302">
        <ele>2419.2444</ele>
        <time>2018-08-15T09:49:33Z</time>
      </trkpt>
      <trkpt lat="45.0539" lon="6.40323">
        <ele>2420.2178</ele>
        <time>2018-08-15T09:49:39Z</time>
      </trkpt>
      <trkpt lat="45.05388" lon="6.40345">
        <ele>2421.2158</ele>
        <time>2018-08-15T09:49:45Z</time>
      </trkpt>
      <trkpt lat="45.05383" lon="6.40362">
        <ele>2422.3374</ele>
        <time>2018-08-15T09:49:51Z</time>
      </trkpt>
      <trkpt lat="45.0538" lon="6.40381">
        <ele>2423.4778</ele>
        <time>2018-08-15T09:49:57Z</time>
      </trkpt>
      <trkpt lat="45.0538" lon="6.40401">
        <ele>2424.5828</ele>
        <time>2018-08-15T09:50:03Z</time>
      </trkpt>
      <trkpt lat="45.05381" lon="6.40418">
        <ele>2425.4224</ele>
        <time>2018-08-15T09:50:08Z</time>
      </trkpt>
      <trkpt lat="45.05387" lon="6.40438">
        <ele>2426.2947</ele>
        <time>2018-08-15T09:50:14Z</time>
      </trkpt>
      <trkpt lat="45.05393" lon="6.40454">
        <ele>2427.0544</ele>
        <time>2018-08-15T09:50:19Z</time>
      </trkpt>
      <trkpt lat="45.05401" lon="6.40473">
        <ele>2428.0442</ele>
        <time>2018-08-15T09:50:25Z</time>
      </trkpt>
      <trkpt lat="45.05408" lon="6.40493">
        <ele>2429.0657</ele>
        <time>2018-08-15T09:50:31Z</time>
      </trkpt>
      <trkpt lat="45.05414" lon="6.40508">
        <ele>2429.978</ele>
        <time>2018-08-15T09:50:36Z</time>
      </trkpt>
      <trkpt lat="45.05422" lon="6.40528">
        <ele>2430.9902</ele>
        <time>2018-08-15T09:50:42Z</time>
      </trkpt>
      <trkpt lat="45.05428" lon="6.40543">
        <ele>2431.801</ele>
        <time>2018-08-15T09:50:47Z</time>
      </trkpt>
      <trkpt lat="45.05436" lon="6.40562">
        <ele>2432.821</ele>
        <time>2018-08-15T09:50:53Z</time>
      </trkpt>
      <trkpt lat="45.05446" lon="6.40581">
        <ele>2433.8499</ele>
        <time>2018-08-15T09:50:59Z</time>
      </trkpt>
      <trkpt lat="45.05455" lon="6.40595">
        <ele>2434.6877</ele>
        <time>2018-08-15T09:51:04Z</time>
      </trkpt>
      <trkpt lat="45.05464" lon="6.4061">
        <ele>2435.5325</ele>
        <time>2018-08-15T09:51:09Z</time>
      </trkpt>
      <trkpt lat="45.05475" lon="6.40628">
        <ele>2436.476</ele>
        <time>2018-08-15T09:51:15Z</time>
      </trkpt>
      <trkpt lat="45.05483" lon="6.40644">
        <ele>2437.2866</ele>
        <time>2018-08-15T09:51:20Z</time>
      </trkpt>
      <trkpt lat="45.05492" lon="6.40664">
        <ele>2438.2266</ele>
        <time>2018-08-15T09:51:26Z</time>
      </trkpt>
      <trkpt lat="45.05498" lon="6.4068">
        <ele>2439.0002</ele>
        <time>2018-08-15T09:51:31Z</time>
      </trkpt>
      <trkpt lat="45.05507" lon="6.40701">
        <ele>2439.9414</ele>
        <time>2018-08-15T09:51:37Z</time>
      </trkpt>
      <trkpt lat="45.05513" lon="6.40717">
        <ele>2440.8572</ele>
        <time>2018-08-15T09:51:42Z</time>
      </trkpt>
      <trkpt lat="45.05518" lon="6.40735">
        <ele>2442.024</ele>
        <time>2018-08-15T09:51:48Z</time>
      </trkpt>
      <trkpt lat="45.05523" lon="6.40752">
        <ele>2443.047</ele>
        <time>2018-08-15T09:51:53Z</time>
      </trkpt>
      <trkpt lat="45.0553" lon="6.40772">
        <ele>2444.2473</ele>
        <time>2018-08-15T09:51:59Z</time>
      </trkpt>
      <trkpt lat="45.05535" lon="6.4079">
        <ele>2445.16</ele>
        <time>2018-08-15T09:52:04Z</time>
      </trkpt>
      <trkpt lat="45.05539" lon="6.40809">
        <ele>2446.2468</ele>
        <time>2018-08-15T09:52:10Z</time>
      </trkpt>
      <trkpt lat="45.05548" lon="6.40828">
        <ele>2447.3154</ele>
        <time>2018-08-15T09:52:16Z</time>
      </trkpt>
      <trkpt lat="45.05561" lon="6.40846">
        <ele>2448.2275</ele>
        <time>2018-08-15T09:52:22Z</time>
      </trkpt>
      <trkpt lat="45.05571" lon="6.40855">
        <ele>2448.8477</ele>
        <time>2018-08-15T09:52:27Z</time>
      </trkpt>
      <trkpt lat="45.05584" lon="6.40861">
        <ele>2449.6267</ele>
        <time>2018-08-15T09:52:32Z</time>
      </trkpt>
      <trkpt lat="45.05601" lon="6.40863">
        <ele>2451.1216</ele>
        <time>2018-08-15T09:52:38Z</time>
      </trkpt>
      <trkpt lat="45.05618" lon="6.40863">
        <ele>2453.0574</ele>
        <time>2018-08-15T09:52:44Z</time>
      </trkpt>
      <trkpt lat="45.05632" lon="6.40864">
        <ele>2455.101</ele>
        <time>2018-08-15T09:52:50Z</time>
      </trkpt>
      <trkpt lat="45.05648" lon="6.40863">
        <ele>2457.0876</ele>
        <time>2018-08-15T09:52:56Z</time>
      </trkpt>
      <trkpt lat="45.05662" lon="6.40861">
        <ele>2458.3599</ele>
        <time>2018-08-15T09:53:02Z</time>
      </trkpt>
      <trkpt lat="45.05675" lon="6.40861">
        <ele>2459.086</ele>
        <time>2018-08-15T09:53:07Z</time>
      </trkpt>
      <trkpt lat="45.05687" lon="6.40859">
        <ele>2459.7063</ele>
        <time>2018-08-15T09:53:12Z</time>
      </trkpt>
      <trkpt lat="45.05697" lon="6.40848">
        <ele>2460.199</ele>
        <time>2018-08-15T09:53:18Z</time>
      </trkpt>
      <trkpt lat="45.05703" lon="6.40836">
        <ele>2460.3835</ele>
        <time>2018-08-15T09:53:23Z</time>
      </trkpt>
      <trkpt lat="45.0571" lon="6.40818">
        <ele>2460.5454</ele>
        <time>2018-08-15T09:53:29Z</time>
      </trkpt>
      <trkpt lat="45.05716" lon="6.40799">
        <ele>2461.2517</ele>
        <time>2018-08-15T09:53:35Z</time>
      </trkpt>
      <trkpt lat="45.05728" lon="6.40788">
        <ele>2461.9534</ele>
        <time>2018-08-15T09:53:41Z</time>
      </trkpt>
      <trkpt lat="45.0574" lon="6.40781">
        <ele>2462.6196</ele>
        <time>2018-08-15T09:53:46Z</time>
      </trkpt>
      <trkpt lat="45.05756" lon="6.40777">
        <ele>2463.3672</ele>
        <time>2018-08-15T09:53:52Z</time>
      </trkpt>
      <trkpt lat="45.05769" lon="6.40774">
        <ele>2463.9429</ele>
        <time>2018-08-15T09:53:57Z</time>
      </trkpt>
      <trkpt lat="45.05782" lon="6.40769">
        <ele>2464.6006</ele>
        <time>2018-08-15T09:54:03Z</time>
      </trkpt>
      <trkpt lat="45.05796" lon="6.40764">
        <ele>2465.366</ele>
        <time>2018-08-15T09:54:09Z</time>
      </trkpt>
      <trkpt lat="45.05809" lon="6.40756">
        <ele>2466.1362</ele>
        <time>2018-08-15T09:54:15Z</time>
      </trkpt>
      <trkpt lat="45.05822" lon="6.40748">
        <ele>2466.7307</ele>
        <time>2018-08-15T09:54:20Z</time>
      </trkpt>
      <trkpt lat="45.05838" lon="6.40738">
        <ele>2467.4158</ele>
        <time>2018-08-15T09:54:26Z</time>
      </trkpt>
      <trkpt lat="45.05853" lon="6.40735">
        <ele>2468.0706</ele>
        <time>2018-08-15T09:54:31Z</time>
      </trkpt>
      <trkpt lat="45.0587" lon="6.40732">
        <ele>2469.2756</ele>
        <time>2018-08-15T09:54:37Z</time>
      </trkpt>
      <trkpt lat="45.05883" lon="6.40727">
        <ele>2470.3994</ele>
        <time>2018-08-15T09:54:43Z</time>
      </trkpt>
      <trkpt lat="45.05893" lon="6.40722">
        <ele>2471.0798</ele>
        <time>2018-08-15T09:54:48Z</time>
      </trkpt>
      <trkpt lat="45.05907" lon="6.40715">
        <ele>2471.6523</ele>
        <time>2018-08-15T09:54:54Z</time>
      </trkpt>
      <trkpt lat="45.05919" lon="6.40708">
        <ele>2472.0205</ele>
        <time>2018-08-15T09:54:59Z</time>
      </trkpt>
      <trkpt lat="45.05936" lon="6.40701">
        <ele>2472.4004</ele>
        <time>2018-08-15T09:55:05Z</time>
      </trkpt>
      <trkpt lat="45.05949" lon="6.40693">
        <ele>2472.7932</ele>
        <time>2018-08-15T09:55:11Z</time>
      </trkpt>
      <trkpt lat="45.05959" lon="6.40689">
        <ele>2472.7637</ele>
        <time>2018-08-15T09:55:16Z</time>
      </trkpt>
      <trkpt lat="45.05974" lon="6.40688">
        <ele>2472.8286</ele>
        <time>2018-08-15T09:55:22Z</time>
      </trkpt>
      <trkpt lat="45.05987" lon="6.40685">
        <ele>2473.3247</ele>
        <time>2018-08-15T09:55:27Z</time>
      </trkpt>
      <trkpt lat="45.06002" lon="6.40684">
        <ele>2474.1865</ele>
        <time>2018-08-15T09:55:32Z</time>
      </trkpt>
      <trkpt lat="45.06013" lon="6.40687">
        <ele>2475.3342</ele>
        <time>2018-08-15T09:55:38Z</time>
      </trkpt>
      <trkpt lat="45.06027" lon="6.4069">
        <ele>2476.3591</ele>
        <time>2018-08-15T09:55:43Z</time>
      </trkpt>
      <trkpt lat="45.06036" lon="6.40694">
        <ele>2477.269</ele>
        <time>2018-08-15T09:55:48Z</time>
      </trkpt>
      <trkpt lat="45.06051" lon="6.40701">
        <ele>2478.231</ele>
        <time>2018-08-15T09:55:54Z</time>
      </trkpt>
      <trkpt lat="45.06066" lon="6.40708">
        <ele>2479.1987</ele>
        <time>2018-08-15T09:56:00Z</time>
      </trkpt>
      <trkpt lat="45.06077" lon="6.40717">
        <ele>2479.9263</ele>
        <time>2018-08-15T09:56:05Z</time>
      </trkpt>
      <trkpt lat="45.06085" lon="6.40725">
        <ele>2481.0728</ele>
        <time>2018-08-15T09:56:11Z</time>
      </trkpt>
      <trkpt lat="45.06097" lon="6.40746">
        <ele>2482.3757</ele>
        <time>2018-08-15T09:56:17Z</time>
      </trkpt>
      <trkpt lat="45.06104" lon="6.40764">
        <ele>2483.1948</ele>
        <time>2018-08-15T09:56:22Z</time>
      </trkpt>
      <trkpt lat="45.06103" lon="6.40783">
        <ele>2484.3518</ele>
        <time>2018-08-15T09:56:28Z</time>
      </trkpt>
      <trkpt lat="45.061" lon="6.40805">
        <ele>2485.809</ele>
        <time>2018-08-15T09:56:34Z</time>
      </trkpt>
      <trkpt lat="45.06097" lon="6.40827">
        <ele>2487.258</ele>
        <time>2018-08-15T09:56:40Z</time>
      </trkpt>
      <trkpt lat="45.06095" lon="6.40845">
        <ele>2488.6445</ele>
        <time>2018-08-15T09:56:45Z</time>
      </trkpt>
      <trkpt lat="45.06093" lon="6.40865">
        <ele>2490.0576</ele>
        <time>2018-08-15T09:56:50Z</time>
      </trkpt>
      <trkpt lat="45.06092" lon="6.40887">
        <ele>2491.6348</ele>
        <time>2018-08-15T09:56:56Z</time>
      </trkpt>
      <trkpt lat="45.06092" lon="6.40909">
        <ele>2493.148</ele>
        <time>2018-08-15T09:57:02Z</time>
      </trkpt>
      <trkpt lat="45.06092" lon="6.40932">
        <ele>2494.379</ele>
        <time>2018-08-15T09:57:07Z</time>
      </trkpt>
      <trkpt lat="45.06093" lon="6.40961">
        <ele>2495.8704</ele>
        <time>2018-08-15T09:57:13Z</time>
      </trkpt>
      <trkpt lat="45.0609" lon="6.40985">
        <ele>2497.0972</ele>
        <time>2018-08-15T09:57:18Z</time>
      </trkpt>
      <trkpt lat="45.06084" lon="6.4101">
        <ele>2498.619</ele>
        <time>2018-08-15T09:57:24Z</time>
      </trkpt>
      <trkpt lat="45.06075" lon="6.41029">
        <ele>2499.734</ele>
        <time>2018-08-15T09:57:29Z</time>
      </trkpt>
      <trkpt lat="45.06067" lon="6.41048">
        <ele>2500.96</ele>
        <time>2018-08-15T09:57:35Z</time>
      </trkpt>
      <trkpt lat="45.06056" lon="6.41071">
        <ele>2502.196</ele>
        <time>2018-08-15T09:57:41Z</time>
      </trkpt>
      <trkpt lat="45.06046" lon="6.41089">
        <ele>2503.4436</ele>
        <time>2018-08-15T09:57:46Z</time>
      </trkpt>
      <trkpt lat="45.06037" lon="6.41107">
        <ele>2504.7852</ele>
        <time>2018-08-15T09:57:52Z</time>
      </trkpt>
      <trkpt lat="45.0603" lon="6.41122">
        <ele>2505.8008</ele>
        <time>2018-08-15T09:57:57Z</time>
      </trkpt>
      <trkpt lat="45.06026" lon="6.41142">
        <ele>2507.0044</ele>
        <time>2018-08-15T09:58:03Z</time>
      </trkpt>
      <trkpt lat="45.0603" lon="6.41162">
        <ele>2508.3984</ele>
        <time>2018-08-15T09:58:09Z</time>
      </trkpt>
      <trkpt lat="45.06049" lon="6.41169">
        <ele>2509.803</ele>
        <time>2018-08-15T09:58:15Z</time>
      </trkpt>
      <trkpt lat="45.06064" lon="6.41159">
        <ele>2510.717</ele>
        <time>2018-08-15T09:58:21Z</time>
      </trkpt>
      <trkpt lat="45.06071" lon="6.41142">
        <ele>2511.1116</ele>
        <time>2018-08-15T09:58:26Z</time>
      </trkpt>
      <trkpt lat="45.06072" lon="6.41114">
        <ele>2511.7527</ele>
        <time>2018-08-15T09:58:32Z</time>
      </trkpt>
      <trkpt lat="45.06078" lon="6.41086">
        <ele>2512.8542</ele>
        <time>2018-08-15T09:58:38Z</time>
      </trkpt>
      <trkpt lat="45.06088" lon="6.41061">
        <ele>2513.9326</ele>
        <time>2018-08-15T09:58:44Z</time>
      </trkpt>
      <trkpt lat="45.06097" lon="6.41042">
        <ele>2514.6804</ele>
        <time>2018-08-15T09:58:49Z</time>
      </trkpt>
      <trkpt lat="45.06108" lon="6.41028">
        <ele>2515.7083</ele>
        <time>2018-08-15T09:58:55Z</time>
      </trkpt>
      <trkpt lat="45.06118" lon="6.41014">
        <ele>2516.779</ele>
        <time>2018-08-15T09:59:00Z</time>
      </trkpt>
      <trkpt lat="45.06128" lon="6.41">
        <ele>2517.8313</ele>
        <time>2018-08-15T09:59:05Z</time>
      </trkpt>
      <trkpt lat="45.06138" lon="6.40984">
        <ele>2519.2993</ele>
        <time>2018-08-15T09:59:11Z</time>
      </trkpt>
      <trkpt lat="45.0615" lon="6.40968">
        <ele>2520.2405</ele>
        <time>2018-08-15T09:59:17Z</time>
      </trkpt>
      <trkpt lat="45.06155" lon="6.4095">
        <ele>2520.736</ele>
        <time>2018-08-15T09:59:22Z</time>
      </trkpt>
      <trkpt lat="45.06153" lon="6.40928">
        <ele>2521.3416</ele>
        <time>2018-08-15T09:59:28Z</time>
      </trkpt>
      <trkpt lat="45.06148" lon="6.40901">
        <ele>2522.656</ele>
        <time>2018-08-15T09:59:34Z</time>
      </trkpt>
      <trkpt lat="45.0615" lon="6.40879">
        <ele>2524.153</ele>
        <time>2018-08-15T09:59:40Z</time>
      </trkpt>
      <trkpt lat="45.06159" lon="6.40862">
        <ele>2525.3828</ele>
        <time>2018-08-15T09:59:46Z</time>
      </trkpt>
      <trkpt lat="45.06168" lon="6.40844">
        <ele>2526.56</ele>
        <time>2018-08-15T09:59:52Z</time>
      </trkpt>
      <trkpt lat="45.06178" lon="6.40832">
        <ele>2527.6328</ele>
        <time>2018-08-15T09:59:57Z</time>
      </trkpt>
      <trkpt lat="45.06194" lon="6.40822">
        <ele>2528.8665</ele>
        <time>2018-08-15T10:00:03Z</time>
      </trkpt>
      <trkpt lat="45.06211" lon="6.40814">
        <ele>2529.8542</ele>
        <time>2018-08-15T10:00:09Z</time>
      </trkpt>
      <trkpt lat="45.06227" lon="6.40807">
        <ele>2530.5007</ele>
        <time>2018-08-15T10:00:15Z</time>
      </trkpt>
      <trkpt lat="45.06242" lon="6.40797">
        <ele>2530.623</ele>
        <time>2018-08-15T10:00:21Z</time>
      </trkpt>
      <trkpt lat="45.06251" lon="6.40777">
        <ele>2530.7441</ele>
        <time>2018-08-15T10:00:27Z</time>
      </trkpt>
      <trkpt lat="45.06256" lon="6.40757">
        <ele>2530.9524</ele>
        <time>2018-08-15T10:00:32Z</time>
      </trkpt>
      <trkpt lat="45.06252" lon="6.40731">
        <ele>2531.0286</ele>
        <time>2018-08-15T10:00:38Z</time>
      </trkpt>
      <trkpt lat="45.06235" lon="6.40712">
        <ele>2531.628</ele>
        <time>2018-08-15T10:00:44Z</time>
      </trkpt>
      <trkpt lat="45.0622" lon="6.40704">
        <ele>2532.3855</ele>
        <time>2018-08-15T10:00:50Z</time>
      </trkpt>
      <trkpt lat="45.06207" lon="6.40696">
        <ele>2532.9956</ele>
        <time>2018-08-15T10:00:55Z</time>
      </trkpt>
      <trkpt lat="45.0619" lon="6.40681">
        <ele>2533.5452</ele>
        <time>2018-08-15T10:01:01Z</time>
      </trkpt>
      <trkpt lat="45.06178" lon="6.4067">
        <ele>2534.0593</ele>
        <time>2018-08-15T10:01:07Z</time>
      </trkpt>
      <trkpt lat="45.06166" lon="6.40653">
        <ele>2534.6062</ele>
        <time>2018-08-15T10:01:12Z</time>
      </trkpt>
      <trkpt lat="45.06156" lon="6.40641">
        <ele>2535.3389</ele>
        <time>2018-08-15T10:01:17Z</time>
      </trkpt>
      <trkpt lat="45.06148" lon="6.40622">
        <ele>2536.3022</ele>
        <time>2018-08-15T10:01:23Z</time>
      </trkpt>
      <trkpt lat="45.0615" lon="6.40603">
        <ele>2536.9043</ele>
        <time>2018-08-15T10:01:28Z</time>
      </trkpt>
      <trkpt lat="45.0616" lon="6.40584">
        <ele>2537.8809</ele>
        <time>2018-08-15T10:01:34Z</time>
      </trkpt>
      <trkpt lat="45.06175" lon="6.40579">
        <ele>2539.1318</ele>
        <time>2018-08-15T10:01:40Z</time>
      </trkpt>
      <trkpt lat="45.06185" lon="6.40584">
        <ele>2540.471</ele>
        <time>2018-08-15T10:01:46Z</time>
      </trkpt>
      <trkpt lat="45.06191" lon="6.40595">
        <ele>2541.5364</ele>
        <time>2018-08-15T10:01:51Z</time>
      </trkpt>
      <trkpt lat="45.06199" lon="6.4061">
        <ele>2542.7104</ele>
        <time>2018-08-15T10:01:57Z</time>
      </trkpt>
      <trkpt lat="45.06209" lon="6.40627">
        <ele>2543.7178</ele>
        <time>2018-08-15T10:02:03Z</time>
      </trkpt>
      <trkpt lat="45.06217" lon="6.40642">
        <ele>2544.6711</ele>
        <time>2018-08-15T10:02:09Z</time>
      </trkpt>
      <trkpt lat="45.06225" lon="6.40651">
        <ele>2545.72</ele>
        <time>2018-08-15T10:02:15Z</time>
      </trkpt>
      <trkpt lat="45.06236" lon="6.40661">
        <ele>2546.5662</ele>
        <time>2018-08-15T10:02:20Z</time>
      </trkpt>
      <trkpt lat="45.0625" lon="6.4067">
        <ele>2547.455</ele>
        <time>2018-08-15T10:02:26Z</time>
      </trkpt>
      <trkpt lat="45.06262" lon="6.40682">
        <ele>2548.1948</ele>
        <time>2018-08-15T10:02:31Z</time>
      </trkpt>
      <trkpt lat="45.06276" lon="6.40699">
        <ele>2548.8535</ele>
        <time>2018-08-15T10:02:37Z</time>
      </trkpt>
      <trkpt lat="45.06286" lon="6.40717">
        <ele>2549.7495</ele>
        <time>2018-08-15T10:02:43Z</time>
      </trkpt>
      <trkpt lat="45.06291" lon="6.40737">
        <ele>2551.0227</ele>
        <time>2018-08-15T10:02:49Z</time>
      </trkpt>
      <trkpt lat="45.06291" lon="6.40752">
        <ele>2552.3499</ele>
        <time>2018-08-15T10:02:54Z</time>
      </trkpt>
      <trkpt lat="45.06291" lon="6.40771">
        <ele>2553.906</ele>
        <time>2018-08-15T10:03:00Z</time>
      </trkpt>
      <trkpt lat="45.06292" lon="6.40787">
        <ele>2555.0415</ele>
        <time>2018-08-15T10:03:05Z</time>
      </trkpt>
      <trkpt lat="45.06294" lon="6.40804">
        <ele>2556.2822</ele>
        <time>2018-08-15T10:03:10Z</time>
      </trkpt>
      <trkpt lat="45.06295" lon="6.40824">
        <ele>2557.6003</ele>
        <time>2018-08-15T10:03:16Z</time>
      </trkpt>
      <trkpt lat="45.06292" lon="6.40843">
        <ele>2558.897</ele>
        <time>2018-08-15T10:03:22Z</time>
      </trkpt>
      <trkpt lat="45.06285" lon="6.40859">
        <ele>2560.2178</ele>
        <time>2018-08-15T10:03:28Z</time>
      </trkpt>
      <trkpt lat="45.06276" lon="6.4087">
        <ele>2561.4646</ele>
        <time>2018-08-15T10:03:34Z</time>
      </trkpt>
      <trkpt lat="45.06267" lon="6.4088">
        <ele>2562.6445</ele>
        <time>2018-08-15T10:03:40Z</time>
      </trkpt>
      <trkpt lat="45.06259" lon="6.40892">
        <ele>2563.854</ele>
        <time>2018-08-15T10:03:46Z</time>
      </trkpt>
      <trkpt lat="45.06254" lon="6.40901">
        <ele>2564.8098</ele>
        <time>2018-08-15T10:03:51Z</time>
      </trkpt>
      <trkpt lat="45.06246" lon="6.40916">
        <ele>2566.0254</ele>
        <time>2018-08-15T10:03:57Z</time>
      </trkpt>
      <trkpt lat="45.06241" lon="6.4093">
        <ele>2567.492</ele>
        <time>2018-08-15T10:04:03Z</time>
      </trkpt>
      <trkpt lat="45.06234" lon="6.40944">
        <ele>2569.027</ele>
        <time>2018-08-15T10:04:09Z</time>
      </trkpt>
      <trkpt lat="45.0623" lon="6.40959">
        <ele>2570.605</ele>
        <time>2018-08-15T10:04:15Z</time>
      </trkpt>
      <trkpt lat="45.06225" lon="6.40971">
        <ele>2571.9138</ele>
        <time>2018-08-15T10:04:20Z</time>
      </trkpt>
      <trkpt lat="45.06222" lon="6.40985">
        <ele>2573.457</ele>
        <time>2018-08-15T10:04:26Z</time>
      </trkpt>
      <trkpt lat="45.06221" lon="6.41001">
        <ele>2574.9382</ele>
        <time>2018-08-15T10:04:32Z</time>
      </trkpt>
      <trkpt lat="45.06225" lon="6.4102">
        <ele>2576.5776</ele>
        <time>2018-08-15T10:04:38Z</time>
      </trkpt>
      <trkpt lat="45.06225" lon="6.41031">
        <ele>2578.0325</ele>
        <time>2018-08-15T10:04:43Z</time>
      </trkpt>
      <trkpt lat="45.06223" lon="6.41051">
        <ele>2579.7798</ele>
        <time>2018-08-15T10:04:49Z</time>
      </trkpt>
      <trkpt lat="45.06225" lon="6.41063">
        <ele>2581.2136</ele>
        <time>2018-08-15T10:04:54Z</time>
      </trkpt>
      <trkpt lat="45.06226" lon="6.41082">
        <ele>2582.716</ele>
        <time>2018-08-15T10:05:00Z</time>
      </trkpt>
      <trkpt lat="45.06229" lon="6.41099">
        <ele>2584.0361</ele>
        <time>2018-08-15T10:05:06Z</time>
      </trkpt>
      <trkpt lat="45.0623" lon="6.41115">
        <ele>2585.109</ele>
        <time>2018-08-15T10:05:11Z</time>
      </trkpt>
      <trkpt lat="45.06226" lon="6.41134">
        <ele>2586.389</ele>
        <time>2018-08-15T10:05:17Z</time>
      </trkpt>
      <trkpt lat="45.06222" lon="6.41149">
        <ele>2587.4143</ele>
        <time>2018-08-15T10:05:22Z</time>
      </trkpt>
      <trkpt lat="45.06234" lon="6.41161">
        <ele>2588.654</ele>
        <time>2018-08-15T10:05:28Z</time>
      </trkpt>
      <trkpt lat="45.0624" lon="6.41146">
        <ele>2589.815</ele>
        <time>2018-08-15T10:05:34Z</time>
      </trkpt>
      <trkpt lat="45.06247" lon="6.4113">
        <ele>2590.6758</ele>
        <time>2018-08-15T10:05:40Z</time>
      </trkpt>
      <trkpt lat="45.0625" lon="6.41113">
        <ele>2591.3193</ele>
        <time>2018-08-15T10:05:45Z</time>
      </trkpt>
      <trkpt lat="45.06251" lon="6.41097">
        <ele>2591.965</ele>
        <time>2018-08-15T10:05:50Z</time>
      </trkpt>
      <trkpt lat="45.06259" lon="6.41106">
        <ele>2592.8508</ele>
        <time>2018-08-15T10:05:56Z</time>
      </trkpt>
      <trkpt lat="45.06259" lon="6.41121">
        <ele>2593.548</ele>
        <time>2018-08-15T10:06:01Z</time>
      </trkpt>
      <trkpt lat="45.06256" lon="6.41137">
        <ele>2594.3923</ele>
        <time>2018-08-15T10:06:07Z</time>
      </trkpt>
      <trkpt lat="45.06253" lon="6.41155">
        <ele>2595.4358</ele>
        <time>2018-08-15T10:06:13Z</time>
      </trkpt>
      <trkpt lat="45.06256" lon="6.41172">
        <ele>2596.8318</ele>
        <time>2018-08-15T10:06:19Z</time>
      </trkpt>
      <trkpt lat="45.06268" lon="6.41167">
        <ele>2598.0803</ele>
        <time>2018-08-15T10:06:25Z</time>
      </trkpt>
      <trkpt lat="45.06274" lon="6.41148">
        <ele>2599.1572</ele>
        <time>2018-08-15T10:06:31Z</time>
      </trkpt>
      <trkpt lat="45.06277" lon="6.4113">
        <ele>2600.2178</ele>
        <time>2018-08-15T10:06:37Z</time>
      </trkpt>
      <trkpt lat="45.06281" lon="6.41115">
        <ele>2601.4287</ele>
        <time>2018-08-15T10:06:43Z</time>
      </trkpt>
      <trkpt lat="45.06281" lon="6.41097">
        <ele>2602.7068</ele>
        <time>2018-08-15T10:06:49Z</time>
      </trkpt>
      <trkpt lat="45.06283" lon="6.41083">
        <ele>2603.7441</ele>
        <time>2018-08-15T10:06:54Z</time>
      </trkpt>
      <trkpt lat="45.06285" lon="6.4107">
        <ele>2605.093</ele>
        <time>2018-08-15T10:07:00Z</time>
      </trkpt>
      <trkpt lat="45.06288" lon="6.41058">
        <ele>2606.2197</ele>
        <time>2018-08-15T10:07:05Z</time>
      </trkpt>
      <trkpt lat="45.06292" lon="6.41045">
        <ele>2607.6396</ele>
        <time>2018-08-15T10:07:11Z</time>
      </trkpt>
      <trkpt lat="45.06296" lon="6.41035">
        <ele>2608.7502</ele>
        <time>2018-08-15T10:07:16Z</time>
      </trkpt>
      <trkpt lat="45.06304" lon="6.41025">
        <ele>2609.925</ele>
        <time>2018-08-15T10:07:22Z</time>
      </trkpt>
      <trkpt lat="45.0631" lon="6.41018">
        <ele>2610.8818</ele>
        <time>2018-08-15T10:07:27Z</time>
      </trkpt>
      <trkpt lat="45.06318" lon="6.41009">
        <ele>2612.0203</ele>
        <time>2018-08-15T10:07:33Z</time>
      </trkpt>
      <trkpt lat="45.06324" lon="6.41">
        <ele>2613</ele>
        <time>2018-08-15T10:07:38Z</time>
      </trkpt>
      <trkpt lat="45.06328" lon="6.4099">
        <ele>2613.9524</ele>
        <time>2018-08-15T10:07:43Z</time>
      </trkpt>
      <trkpt lat="45.06331" lon="6.40979">
        <ele>2615.0115</ele>
        <time>2018-08-15T10:07:48Z</time>
      </trkpt>
      <trkpt lat="45.06333" lon="6.40964">
        <ele>2616.3176</ele>
        <time>2018-08-15T10:07:54Z</time>
      </trkpt>
      <trkpt lat="45.06334" lon="6.40952">
        <ele>2617.3484</ele>
        <time>2018-08-15T10:07:59Z</time>
      </trkpt>
      <trkpt lat="45.06338" lon="6.40941">
        <ele>2618.3223</ele>
        <time>2018-08-15T10:08:04Z</time>
      </trkpt>
      <trkpt lat="45.06342" lon="6.4093">
        <ele>2619.6084</ele>
        <time>2018-08-15T10:08:10Z</time>
      </trkpt>
      <trkpt lat="45.06349" lon="6.4092">
        <ele>2621.102</ele>
        <time>2018-08-15T10:08:16Z</time>
      </trkpt>
      <trkpt lat="45.06359" lon="6.40912">
        <ele>2622.492</ele>
        <time>2018-08-15T10:08:22Z</time>
      </trkpt>
      <trkpt lat="45.06368" lon="6.40905">
        <ele>2623.4753</ele>
        <time>2018-08-15T10:08:27Z</time>
      </trkpt>
      <trkpt lat="45.06376" lon="6.40894">
        <ele>2624.494</ele>
        <time>2018-08-15T10:08:33Z</time>
      </trkpt>
      <trkpt lat="45.06381" lon="6.40882">
        <ele>2625.391</ele>
        <time>2018-08-15T10:08:38Z</time>
      </trkpt>
      <trkpt lat="45.06384" lon="6.40868">
        <ele>2626.6245</ele>
        <time>2018-08-15T10:08:44Z</time>
      </trkpt>
      <trkpt lat="45.06388" lon="6.40854">
        <ele>2628.017</ele>
        <time>2018-08-15T10:08:50Z</time>
      </trkpt>
      <trkpt lat="45.0639" lon="6.40841">
        <ele>2629.1138</ele>
        <time>2018-08-15T10:08:55Z</time>
      </trkpt>
      <trkpt lat="45.06394" lon="6.40827">
        <ele>2630.5083</ele>
        <time>2018-08-15T10:09:01Z</time>
      </trkpt>
      <trkpt lat="45.06399" lon="6.40814">
        <ele>2631.8435</ele>
        <time>2018-08-15T10:09:07Z</time>
      </trkpt>
      <trkpt lat="45.06404" lon="6.40802">
        <ele>2633.0974</ele>
        <time>2018-08-15T10:09:13Z</time>
      </trkpt>
      <trkpt lat="45.0641" lon="6.40791">
        <ele>2634.3704</ele>
        <time>2018-08-15T10:09:19Z</time>
      </trkpt>
      <trkpt lat="45.06416" lon="6.40788">
        <ele>2635.6768</ele>
        <time>2018-08-15T10:09:25Z</time>
      </trkpt>
      <trkpt lat="45.0642" lon="6.40795">
        <ele>2636.9233</ele>
        <time>2018-08-15T10:09:31Z</time>
      </trkpt>
      <trkpt lat="45.06402" lon="6.40786">
        <ele>2642.535</ele>
        <time>2018-08-15T10:14:57Z</time>
      </trkpt>
      <trkpt lat="45.06407" lon="6.40787">
        <ele>2642.6167</ele>
        <time>2018-08-15T10:15:02Z</time>
      </trkpt>
      <trkpt lat="45.06415" lon="6.40789">
        <ele>2642.607</ele>
        <time>2018-08-15T10:15:08Z</time>
      </trkpt>
      <trkpt lat="45.06422" lon="6.40795">
        <ele>2642.545</ele>
        <time>2018-08-15T10:21:27Z</time>
      </trkpt>
      <trkpt lat="45.0642" lon="6.40819">
        <ele>2641.9138</ele>
        <time>2018-08-15T10:21:32Z</time>
      </trkpt>
      <trkpt lat="45.06422" lon="6.40831">
        <ele>2641.6526</ele>
        <time>2018-08-15T10:21:38Z</time>
      </trkpt>
      <trkpt lat="45.06425" lon="6.40858">
        <ele>2640.6216</ele>
        <time>2018-08-15T10:21:44Z</time>
      </trkpt>
      <trkpt lat="45.06429" lon="6.40875">
        <ele>2640.3467</ele>
        <time>2018-08-15T10:21:49Z</time>
      </trkpt>
      <trkpt lat="45.06433" lon="6.40887">
        <ele>2639.9841</ele>
        <time>2018-08-15T10:21:55Z</time>
      </trkpt>
      <trkpt lat="45.06447" lon="6.40921">
        <ele>2636.8435</ele>
        <time>2018-08-15T10:22:01Z</time>
      </trkpt>
      <trkpt lat="45.06481" lon="6.4096">
        <ele>2634.154</ele>
        <time>2018-08-15T10:22:07Z</time>
      </trkpt>
      <trkpt lat="45.06504" lon="6.41003">
        <ele>2631.9553</ele>
        <time>2018-08-15T10:22:12Z</time>
      </trkpt>
      <trkpt lat="45.06531" lon="6.41056">
        <ele>2629.3</ele>
        <time>2018-08-15T10:22:18Z</time>
      </trkpt>
      <trkpt lat="45.06556" lon="6.41094">
        <ele>2627.0332</ele>
        <time>2018-08-15T10:22:23Z</time>
      </trkpt>
      <trkpt lat="45.06598" lon="6.41121">
        <ele>2624.197</ele>
        <time>2018-08-15T10:22:28Z</time>
      </trkpt>
      <trkpt lat="45.06615" lon="6.41171">
        <ele>2621.5227</ele>
        <time>2018-08-15T10:22:34Z</time>
      </trkpt>
      <trkpt lat="45.06602" lon="6.41248">
        <ele>2619.785</ele>
        <time>2018-08-15T10:22:40Z</time>
      </trkpt>
      <trkpt lat="45.06582" lon="6.41296">
        <ele>2618.1</ele>
        <time>2018-08-15T10:22:46Z</time>
      </trkpt>
      <trkpt lat="45.06608" lon="6.41281">
        <ele>2612.0623</ele>
        <time>2018-08-15T10:22:52Z</time>
      </trkpt>
      <trkpt lat="45.06641" lon="6.41216">
        <ele>2605.8152</ele>
        <time>2018-08-15T10:22:58Z</time>
      </trkpt>
      <trkpt lat="45.06671" lon="6.41158">
        <ele>2601.2375</ele>
        <time>2018-08-15T10:23:04Z</time>
      </trkpt>
      <trkpt lat="45.06662" lon="6.41104">
        <ele>2596.266</ele>
        <time>2018-08-15T10:23:10Z</time>
      </trkpt>
      <trkpt lat="45.06629" lon="6.4102">
        <ele>2592.3662</ele>
        <time>2018-08-15T10:23:16Z</time>
      </trkpt>
      <trkpt lat="45.06602" lon="6.4095">
        <ele>2589.6145</ele>
        <time>2018-08-15T10:23:21Z</time>
      </trkpt>
      <trkpt lat="45.06611" lon="6.40906">
        <ele>2586.677</ele>
        <time>2018-08-15T10:23:27Z</time>
      </trkpt>
      <trkpt lat="45.06631" lon="6.40951">
        <ele>2583.4053</ele>
        <time>2018-08-15T10:23:32Z</time>
      </trkpt>
      <trkpt lat="45.06666" lon="6.40929">
        <ele>2579.1074</ele>
        <time>2018-08-15T10:23:38Z</time>
      </trkpt>
      <trkpt lat="45.06684" lon="6.40912">
        <ele>2573.633</ele>
        <time>2018-08-15T10:23:43Z</time>
      </trkpt>
      <trkpt lat="45.06692" lon="6.40969">
        <ele>2567.0505</ele>
        <time>2018-08-15T10:23:49Z</time>
      </trkpt>
      <trkpt lat="45.06703" lon="6.41032">
        <ele>2561.728</ele>
        <time>2018-08-15T10:23:54Z</time>
      </trkpt>
      <trkpt lat="45.06725" lon="6.41076">
        <ele>2556.5413</ele>
        <time>2018-08-15T10:24:00Z</time>
      </trkpt>
      <trkpt lat="45.06736" lon="6.41019">
        <ele>2552.8186</ele>
        <time>2018-08-15T10:24:05Z</time>
      </trkpt>
      <trkpt lat="45.06753" lon="6.40929">
        <ele>2549.5105</ele>
        <time>2018-08-15T10:24:11Z</time>
      </trkpt>
      <trkpt lat="45.06801" lon="6.40874">
        <ele>2546.9082</ele>
        <time>2018-08-15T10:24:17Z</time>
      </trkpt>
      <trkpt lat="45.06846" lon="6.4087">
        <ele>2543.99</ele>
        <time>2018-08-15T10:24:23Z</time>
      </trkpt>
      <trkpt lat="45.06844" lon="6.40925">
        <ele>2540.3242</ele>
        <time>2018-08-15T10:24:29Z</time>
      </trkpt>
      <trkpt lat="45.06807" lon="6.40946">
        <ele>2536.898</ele>
        <time>2018-08-15T10:24:34Z</time>
      </trkpt>
      <trkpt lat="45.06799" lon="6.41014">
        <ele>2533.5361</ele>
        <time>2018-08-15T10:24:39Z</time>
      </trkpt>
      <trkpt lat="45.06798" lon="6.41084">
        <ele>2528.3418</ele>
        <time>2018-08-15T10:24:45Z</time>
      </trkpt>
      <trkpt lat="45.06827" lon="6.41058">
        <ele>2522.1284</ele>
        <time>2018-08-15T10:24:51Z</time>
      </trkpt>
      <trkpt lat="45.06853" lon="6.41003">
        <ele>2518.112</ele>
        <time>2018-08-15T10:24:56Z</time>
      </trkpt>
      <trkpt lat="45.06905" lon="6.40986">
        <ele>2514.2551</ele>
        <time>2018-08-15T10:25:02Z</time>
      </trkpt>
      <trkpt lat="45.06927" lon="6.40994">
        <ele>2510.9233</ele>
        <time>2018-08-15T10:25:07Z</time>
      </trkpt>
      <trkpt lat="45.06921" lon="6.41055">
        <ele>2507.1934</ele>
        <time>2018-08-15T10:25:13Z</time>
      </trkpt>
      <trkpt lat="45.0697" lon="6.41081">
        <ele>2503.3237</ele>
        <time>2018-08-15T10:25:19Z</time>
      </trkpt>
      <trkpt lat="45.07023" lon="6.4109">
        <ele>2499.9377</ele>
        <time>2018-08-15T10:25:24Z</time>
      </trkpt>
      <trkpt lat="45.07078" lon="6.4113">
        <ele>2495.761</ele>
        <time>2018-08-15T10:25:30Z</time>
      </trkpt>
      <trkpt lat="45.07136" lon="6.41149">
        <ele>2491.393</ele>
        <time>2018-08-15T10:25:36Z</time>
      </trkpt>
      <trkpt lat="45.0719" lon="6.41159">
        <ele>2486.8716</ele>
        <time>2018-08-15T10:25:41Z</time>
      </trkpt>
      <trkpt lat="45.07211" lon="6.41215">
        <ele>2483.2085</ele>
        <time>2018-08-15T10:25:46Z</time>
      </trkpt>
      <trkpt lat="45.07214" lon="6.41294">
        <ele>2479.0356</ele>
        <time>2018-08-15T10:25:52Z</time>
      </trkpt>
      <trkpt lat="45.07259" lon="6.41293">
        <ele>2475.2444</ele>
        <time>2018-08-15T10:25:57Z</time>
      </trkpt>
      <trkpt lat="45.0731" lon="6.41282">
        <ele>2470.8542</ele>
        <time>2018-08-15T10:26:02Z</time>
      </trkpt>
      <trkpt lat="45.07375" lon="6.4128">
        <ele>2465.5413</ele>
        <time>2018-08-15T10:26:08Z</time>
      </trkpt>
      <trkpt lat="45.07412" lon="6.4133">
        <ele>2462.0718</ele>
        <time>2018-08-15T10:26:13Z</time>
      </trkpt>
      <trkpt lat="45.07479" lon="6.41328">
        <ele>2457.1013</ele>
        <time>2018-08-15T10:26:19Z</time>
      </trkpt>
      <trkpt lat="45.07538" lon="6.41296">
        <ele>2453.4636</ele>
        <time>2018-08-15T10:26:24Z</time>
      </trkpt>
      <trkpt lat="45.07592" lon="6.41239">
        <ele>2450.2893</ele>
        <time>2018-08-15T10:26:30Z</time>
      </trkpt>
      <trkpt lat="45.07617" lon="6.41185">
        <ele>2445.9363</ele>
        <time>2018-08-15T10:26:36Z</time>
      </trkpt>
      <trkpt lat="45.07661" lon="6.41217">
        <ele>2440.414</ele>
        <time>2018-08-15T10:26:41Z</time>
      </trkpt>
      <trkpt lat="45.07718" lon="6.41271">
        <ele>2433.0234</ele>
        <time>2018-08-15T10:26:47Z</time>
      </trkpt>
      <trkpt lat="45.07767" lon="6.41325">
        <ele>2426.9604</ele>
        <time>2018-08-15T10:26:52Z</time>
      </trkpt>
      <trkpt lat="45.07823" lon="6.41371">
        <ele>2421.1992</ele>
        <time>2018-08-15T10:26:57Z</time>
      </trkpt>
      <trkpt lat="45.07878" lon="6.41419">
        <ele>2416.2021</ele>
        <time>2018-08-15T10:27:02Z</time>
      </trkpt>
      <trkpt lat="45.07916" lon="6.41504">
        <ele>2410.3962</ele>
        <time>2018-08-15T10:27:08Z</time>
      </trkpt>
      <trkpt lat="45.07944" lon="6.41594">
        <ele>2403.6477</ele>
        <time>2018-08-15T10:27:14Z</time>
      </trkpt>
      <trkpt lat="45.08003" lon="6.41647">
        <ele>2398.0168</ele>
        <time>2018-08-15T10:27:20Z</time>
      </trkpt>
      <trkpt lat="45.08062" lon="6.41713">
        <ele>2391.7385</ele>
        <time>2018-08-15T10:27:26Z</time>
      </trkpt>
      <trkpt lat="45.08078" lon="6.41817">
        <ele>2385.3723</ele>
        <time>2018-08-15T10:27:32Z</time>
      </trkpt>
      <trkpt lat="45.08081" lon="6.41926">
        <ele>2378.4175</ele>
        <time>2018-08-15T10:27:38Z</time>
      </trkpt>
      <trkpt lat="45.08098" lon="6.42035">
        <ele>2371.3281</ele>
        <time>2018-08-15T10:27:44Z</time>
      </trkpt>
      <trkpt lat="45.08098" lon="6.42123">
        <ele>2365.8635</ele>
        <time>2018-08-15T10:27:49Z</time>
      </trkpt>
      <trkpt lat="45.08081" lon="6.4221">
        <ele>2360.5715</ele>
        <time>2018-08-15T10:27:54Z</time>
      </trkpt>
      <trkpt lat="45.08055" lon="6.42292">
        <ele>2355.3792</ele>
        <time>2018-08-15T10:27:59Z</time>
      </trkpt>
      <trkpt lat="45.08042" lon="6.42378">
        <ele>2349.8882</ele>
        <time>2018-08-15T10:28:05Z</time>
      </trkpt>
      <trkpt lat="45.08022" lon="6.42362">
        <ele>2343.0781</ele>
        <time>2018-08-15T10:28:11Z</time>
      </trkpt>
      <trkpt lat="45.08025" lon="6.4229">
        <ele>2334.7764</ele>
        <time>2018-08-15T10:28:17Z</time>
      </trkpt>
      <trkpt lat="45.07994" lon="6.42227">
        <ele>2327.2751</ele>
        <time>2018-08-15T10:28:23Z</time>
      </trkpt>
      <trkpt lat="45.07958" lon="6.4219">
        <ele>2322.9407</ele>
        <time>2018-08-15T10:28:29Z</time>
      </trkpt>
      <trkpt lat="45.0791" lon="6.42252">
        <ele>2318.9565</ele>
        <time>2018-08-15T10:28:35Z</time>
      </trkpt>
      <trkpt lat="45.07886" lon="6.42321">
        <ele>2315.5151</ele>
        <time>2018-08-15T10:28:40Z</time>
      </trkpt>
      <trkpt lat="45.07869" lon="6.42396">
        <ele>2311.1587</ele>
        <time>2018-08-15T10:28:46Z</time>
      </trkpt>
      <trkpt lat="45.07821" lon="6.42458">
        <ele>2306.3843</ele>
        <time>2018-08-15T10:28:52Z</time>
      </trkpt>
      <trkpt lat="45.07788" lon="6.42502">
        <ele>2301.229</ele>
        <time>2018-08-15T10:28:58Z</time>
      </trkpt>
      <trkpt lat="45.07834" lon="6.42556">
        <ele>2296.3616</ele>
        <time>2018-08-15T10:29:04Z</time>
      </trkpt>
      <trkpt lat="45.07885" lon="6.42602">
        <ele>2290.8574</ele>
        <time>2018-08-15T10:29:09Z</time>
      </trkpt>
      <trkpt lat="45.0794" lon="6.42651">
        <ele>2284.126</ele>
        <time>2018-08-15T10:29:14Z</time>
      </trkpt>
      <trkpt lat="45.08007" lon="6.42659">
        <ele>2276.2324</ele>
        <time>2018-08-15T10:29:20Z</time>
      </trkpt>
      <trkpt lat="45.08064" lon="6.42618">
        <ele>2269.8008</ele>
        <time>2018-08-15T10:29:26Z</time>
      </trkpt>
      <trkpt lat="45.08117" lon="6.42602">
        <ele>2264.3115</ele>
        <time>2018-08-15T10:29:32Z</time>
      </trkpt>
      <trkpt lat="45.08181" lon="6.42646">
        <ele>2259.0725</ele>
        <time>2018-08-15T10:29:38Z</time>
      </trkpt>
      <trkpt lat="45.08243" lon="6.42682">
        <ele>2254.2239</ele>
        <time>2018-08-15T10:29:43Z</time>
      </trkpt>
      <trkpt lat="45.08324" lon="6.42718">
        <ele>2247.9097</ele>
        <time>2018-08-15T10:29:49Z</time>
      </trkpt>
      <trkpt lat="45.08376" lon="6.42773">
        <ele>2242.403</ele>
        <time>2018-08-15T10:29:54Z</time>
      </trkpt>
      <trkpt lat="45.0844" lon="6.42833">
        <ele>2235.7632</ele>
        <time>2018-08-15T10:30:00Z</time>
      </trkpt>
      <trkpt lat="45.08481" lon="6.42908">
        <ele>2228.5923</ele>
        <time>2018-08-15T10:30:05Z</time>
      </trkpt>
      <trkpt lat="45.08512" lon="6.42981">
        <ele>2220.1233</ele>
        <time>2018-08-15T10:30:11Z</time>
      </trkpt>
      <trkpt lat="45.08572" lon="6.42997">
        <ele>2213.249</ele>
        <time>2018-08-15T10:30:17Z</time>
      </trkpt>
      <trkpt lat="45.08632" lon="6.42963">
        <ele>2207.32</ele>
        <time>2018-08-15T10:30:23Z</time>
      </trkpt>
      <trkpt lat="45.08665" lon="6.42942">
        <ele>2202.496</ele>
        <time>2018-08-15T10:30:29Z</time>
      </trkpt>
      <trkpt lat="45.08641" lon="6.42981">
        <ele>2195.7136</ele>
        <time>2018-08-15T10:30:34Z</time>
      </trkpt>
      <trkpt lat="45.086" lon="6.43044">
        <ele>2186.6165</ele>
        <time>2018-08-15T10:30:40Z</time>
      </trkpt>
      <trkpt lat="45.08575" lon="6.43136">
        <ele>2179.8408</ele>
        <time>2018-08-15T10:30:46Z</time>
      </trkpt>
      <trkpt lat="45.08575" lon="6.4322">
        <ele>2175.4102</ele>
        <time>2018-08-15T10:30:51Z</time>
      </trkpt>
      <trkpt lat="45.08612" lon="6.43256">
        <ele>2171.0647</ele>
        <time>2018-08-15T10:30:56Z</time>
      </trkpt>
      <trkpt lat="45.08668" lon="6.43211">
        <ele>2166.8035</ele>
        <time>2018-08-15T10:31:02Z</time>
      </trkpt>
      <trkpt lat="45.08695" lon="6.43125">
        <ele>2163.0178</ele>
        <time>2018-08-15T10:31:08Z</time>
      </trkpt>
      <trkpt lat="45.08698" lon="6.43049">
        <ele>2157.5852</ele>
        <time>2018-08-15T10:31:14Z</time>
      </trkpt>
      <trkpt lat="45.08749" lon="6.43031">
        <ele>2153.0688</ele>
        <time>2018-08-15T10:31:19Z</time>
      </trkpt>
      <trkpt lat="45.08808" lon="6.43026">
        <ele>2147.6318</ele>
        <time>2018-08-15T10:31:24Z</time>
      </trkpt>
      <trkpt lat="45.08884" lon="6.4302">
        <ele>2141.1243</ele>
        <time>2018-08-15T10:31:30Z</time>
      </trkpt>
      <trkpt lat="45.08931" lon="6.43038">
        <ele>2135.4934</ele>
        <time>2018-08-15T10:31:35Z</time>
      </trkpt>
      <trkpt lat="45.08988" lon="6.43032">
        <ele>2129.2422</ele>
        <time>2018-08-15T10:31:41Z</time>
      </trkpt>
      <trkpt lat="45.09038" lon="6.43009">
        <ele>2123.9753</ele>
        <time>2018-08-15T10:31:47Z</time>
      </trkpt>
      <trkpt lat="45.09062" lon="6.43007">
        <ele>2120.0276</ele>
        <time>2018-08-15T10:31:53Z</time>
      </trkpt>
      <trkpt lat="45.09039" lon="6.43037">
        <ele>2110.5388</ele>
        <time>2018-08-15T10:31:59Z</time>
      </trkpt>
      <trkpt lat="45.09" lon="6.43073">
        <ele>2102.582</ele>
        <time>2018-08-15T10:32:05Z</time>
      </trkpt>
      <trkpt lat="45.08942" lon="6.43103">
        <ele>2096.0996</ele>
        <time>2018-08-15T10:32:11Z</time>
      </trkpt>
      <trkpt lat="45.08897" lon="6.4312">
        <ele>2091.7007</ele>
        <time>2018-08-15T10:32:16Z</time>
      </trkpt>
      <trkpt lat="45.08866" lon="6.43136">
        <ele>2086.4722</ele>
        <time>2018-08-15T10:32:22Z</time>
      </trkpt>
      <trkpt lat="45.08916" lon="6.43139">
        <ele>2080.0168</ele>
        <time>2018-08-15T10:32:28Z</time>
      </trkpt>
      <trkpt lat="45.08963" lon="6.43123">
        <ele>2075.5386</ele>
        <time>2018-08-15T10:32:33Z</time>
      </trkpt>
      <trkpt lat="45.08993" lon="6.43104">
        <ele>2071.257</ele>
        <time>2018-08-15T10:32:39Z</time>
      </trkpt>
      <trkpt lat="45.08987" lon="6.43125">
        <ele>2066.0686</ele>
        <time>2018-08-15T10:32:44Z</time>
      </trkpt>
      <trkpt lat="45.0895" lon="6.43149">
        <ele>2060.0476</ele>
        <time>2018-08-15T10:32:50Z</time>
      </trkpt>
      <trkpt lat="45.08899" lon="6.4318">
        <ele>2054.8843</ele>
        <time>2018-08-15T10:32:56Z</time>
      </trkpt>
      <trkpt lat="45.08846" lon="6.43229">
        <ele>2050.716</ele>
        <time>2018-08-15T10:33:02Z</time>
      </trkpt>
      <trkpt lat="45.08814" lon="6.43302">
        <ele>2046.5159</ele>
        <time>2018-08-15T10:33:08Z</time>
      </trkpt>
      <trkpt lat="45.08765" lon="6.43369">
        <ele>2042.7543</ele>
        <time>2018-08-15T10:33:14Z</time>
      </trkpt>
      <trkpt lat="45.08706" lon="6.43419">
        <ele>2039.3291</ele>
        <time>2018-08-15T10:33:19Z</time>
      </trkpt>
      <trkpt lat="45.0865" lon="6.43502">
        <ele>2035.0883</ele>
        <time>2018-08-15T10:33:25Z</time>
      </trkpt>
      <trkpt lat="45.08604" lon="6.4358">
        <ele>2030.843</ele>
        <time>2018-08-15T10:33:31Z</time>
      </trkpt>
      <trkpt lat="45.08575" lon="6.43651">
        <ele>2025.9532</ele>
        <time>2018-08-15T10:33:36Z</time>
      </trkpt>
      <trkpt lat="45.08575" lon="6.4371">
        <ele>2021.2693</ele>
        <time>2018-08-15T10:33:41Z</time>
      </trkpt>
      <trkpt lat="45.08616" lon="6.4374">
        <ele>2016.2074</ele>
        <time>2018-08-15T10:33:47Z</time>
      </trkpt>
      <trkpt lat="45.08661" lon="6.437">
        <ele>2013.0468</ele>
        <time>2018-08-15T10:33:53Z</time>
      </trkpt>
      <trkpt lat="45.08706" lon="6.43649">
        <ele>2009.9698</ele>
        <time>2018-08-15T10:33:59Z</time>
      </trkpt>
      <trkpt lat="45.08751" lon="6.43603">
        <ele>2006.4644</ele>
        <time>2018-08-15T10:34:05Z</time>
      </trkpt>
      <trkpt lat="45.08765" lon="6.43602">
        <ele>1974.2639</ele>
        <time>2018-08-15T11:11:39Z</time>
      </trkpt>
      <trkpt lat="45.08782" lon="6.43576">
        <ele>1972.9102</ele>
        <time>2018-08-15T11:11:45Z</time>
      </trkpt>
      <trkpt lat="45.08813" lon="6.4356">
        <ele>1970.4457</ele>
        <time>2018-08-15T11:11:51Z</time>
      </trkpt>
      <trkpt lat="45.08857" lon="6.43544">
        <ele>1969.6199</ele>
        <time>2018-08-15T11:11:57Z</time>
      </trkpt>
      <trkpt lat="45.08895" lon="6.43537">
        <ele>1968.9426</ele>
        <time>2018-08-15T11:12:02Z</time>
      </trkpt>
      <trkpt lat="45.0894" lon="6.43528">
        <ele>1967.3751</ele>
        <time>2018-08-15T11:12:08Z</time>
      </trkpt>
      <trkpt lat="45.08977" lon="6.43529">
        <ele>1965.8087</ele>
        <time>2018-08-15T11:12:13Z</time>
      </trkpt>
      <trkpt lat="45.09015" lon="6.43538">
        <ele>1964.1328</ele>
        <time>2018-08-15T11:12:18Z</time>
      </trkpt>
      <trkpt lat="45.09064" lon="6.43529">
        <ele>1961.542</ele>
        <time>2018-08-15T11:12:24Z</time>
      </trkpt>
      <trkpt lat="45.09103" lon="6.43506">
        <ele>1959.5544</ele>
        <time>2018-08-15T11:12:29Z</time>
      </trkpt>
      <trkpt lat="45.09131" lon="6.43456">
        <ele>1958.4525</ele>
        <time>2018-08-15T11:12:34Z</time>
      </trkpt>
      <trkpt lat="45.09145" lon="6.43393">
        <ele>1957.7418</ele>
        <time>2018-08-15T11:12:39Z</time>
      </trkpt>
      <trkpt lat="45.09175" lon="6.43345">
        <ele>1956.8378</ele>
        <time>2018-08-15T11:12:44Z</time>
      </trkpt>
      <trkpt lat="45.09206" lon="6.43286">
        <ele>1955.3832</ele>
        <time>2018-08-15T11:12:50Z</time>
      </trkpt>
      <trkpt lat="45.09248" lon="6.43252">
        <ele>1954.0181</ele>
        <time>2018-08-15T11:12:56Z</time>
      </trkpt>
      <trkpt lat="45.09294" lon="6.43229">
        <ele>1952.716</ele>
        <time>2018-08-15T11:13:02Z</time>
      </trkpt>
      <trkpt lat="45.09329" lon="6.4318">
        <ele>1951.2003</ele>
        <time>2018-08-15T11:13:08Z</time>
      </trkpt>
      <trkpt lat="45.09372" lon="6.43155">
        <ele>1949.5774</ele>
        <time>2018-08-15T11:13:14Z</time>
      </trkpt>
      <trkpt lat="45.09406" lon="6.43127">
        <ele>1948.3279</ele>
        <time>2018-08-15T11:13:19Z</time>
      </trkpt>
      <trkpt lat="45.09449" lon="6.43096">
        <ele>1946.693</ele>
        <time>2018-08-15T11:13:25Z</time>
      </trkpt>
      <trkpt lat="45.09485" lon="6.43061">
        <ele>1945.099</ele>
        <time>2018-08-15T11:13:30Z</time>
      </trkpt>
      <trkpt lat="45.09547" lon="6.43056">
        <ele>1942.9731</ele>
        <time>2018-08-15T11:13:36Z</time>
      </trkpt>
      <trkpt lat="45.09604" lon="6.43055">
        <ele>1941.2568</ele>
        <time>2018-08-15T11:13:41Z</time>
      </trkpt>
      <trkpt lat="45.09676" lon="6.43057">
        <ele>1939.3733</ele>
        <time>2018-08-15T11:13:47Z</time>
      </trkpt>
      <trkpt lat="45.09742" lon="6.43008">
        <ele>1937.3225</ele>
        <time>2018-08-15T11:13:53Z</time>
      </trkpt>
      <trkpt lat="45.09805" lon="6.42988">
        <ele>1935.6064</ele>
        <time>2018-08-15T11:13:58Z</time>
      </trkpt>
      <trkpt lat="45.09878" lon="6.4296">
        <ele>1933.2648</ele>
        <time>2018-08-15T11:14:04Z</time>
      </trkpt>
      <trkpt lat="45.09923" lon="6.42901">
        <ele>1931.1198</ele>
        <time>2018-08-15T11:14:09Z</time>
      </trkpt>
      <trkpt lat="45.09993" lon="6.42894">
        <ele>1927.607</ele>
        <time>2018-08-15T11:14:15Z</time>
      </trkpt>
      <trkpt lat="45.10056" lon="6.42921">
        <ele>1923.0508</ele>
        <time>2018-08-15T11:14:21Z</time>
      </trkpt>
      <trkpt lat="45.1009" lon="6.42962">
        <ele>1918.0801</ele>
        <time>2018-08-15T11:14:26Z</time>
      </trkpt>
      <trkpt lat="45.10154" lon="6.42949">
        <ele>1910.6962</ele>
        <time>2018-08-15T11:14:32Z</time>
      </trkpt>
      <trkpt lat="45.10205" lon="6.42905">
        <ele>1905.0093</ele>
        <time>2018-08-15T11:14:37Z</time>
      </trkpt>
      <trkpt lat="45.10267" lon="6.42857">
        <ele>1898.6238</ele>
        <time>2018-08-15T11:14:43Z</time>
      </trkpt>
      <trkpt lat="45.10306" lon="6.42793">
        <ele>1893.0779</ele>
        <time>2018-08-15T11:14:48Z</time>
      </trkpt>
      <trkpt lat="45.10373" lon="6.42758">
        <ele>1886.4032</ele>
        <time>2018-08-15T11:14:54Z</time>
      </trkpt>
      <trkpt lat="45.10425" lon="6.42723">
        <ele>1880.4036</ele>
        <time>2018-08-15T11:14:59Z</time>
      </trkpt>
      <trkpt lat="45.10474" lon="6.42651">
        <ele>1873.4711</ele>
        <time>2018-08-15T11:15:05Z</time>
      </trkpt>
      <trkpt lat="45.10535" lon="6.42602">
        <ele>1866.4395</ele>
        <time>2018-08-15T11:15:11Z</time>
      </trkpt>
      <trkpt lat="45.10586" lon="6.42569">
        <ele>1860.4915</ele>
        <time>2018-08-15T11:15:16Z</time>
      </trkpt>
      <trkpt lat="45.10649" lon="6.42546">
        <ele>1853.0922</ele>
        <time>2018-08-15T11:15:22Z</time>
      </trkpt>
      <trkpt lat="45.10706" lon="6.42536">
        <ele>1848.4232</ele>
        <time>2018-08-15T11:15:27Z</time>
      </trkpt>
      <trkpt lat="45.10761" lon="6.42552">
        <ele>1844.5421</ele>
        <time>2018-08-15T11:15:32Z</time>
      </trkpt>
      <trkpt lat="45.10825" lon="6.4257">
        <ele>1839.6816</ele>
        <time>2018-08-15T11:15:38Z</time>
      </trkpt>
      <trkpt lat="45.10888" lon="6.4259">
        <ele>1835.2983</ele>
        <time>2018-08-15T11:15:44Z</time>
      </trkpt>
      <trkpt lat="45.10948" lon="6.42593">
        <ele>1830.2975</ele>
        <time>2018-08-15T11:15:50Z</time>
      </trkpt>
      <trkpt lat="45.10987" lon="6.42541">
        <ele>1826.0736</ele>
        <time>2018-08-15T11:15:55Z</time>
      </trkpt>
      <trkpt lat="45.11039" lon="6.42495">
        <ele>1819.7062</ele>
        <time>2018-08-15T11:16:01Z</time>
      </trkpt>
      <trkpt lat="45.11096" lon="6.42457">
        <ele>1811.974</ele>
        <time>2018-08-15T11:16:07Z</time>
      </trkpt>
      <trkpt lat="45.11147" lon="6.42433">
        <ele>1808.1948</ele>
        <time>2018-08-15T11:16:12Z</time>
      </trkpt>
      <trkpt lat="45.1121" lon="6.42434">
        <ele>1803.4261</ele>
        <time>2018-08-15T11:16:18Z</time>
      </trkpt>
      <trkpt lat="45.11273" lon="6.42416">
        <ele>1799.1694</ele>
        <time>2018-08-15T11:16:24Z</time>
      </trkpt>
      <trkpt lat="45.11319" lon="6.42372">
        <ele>1795.3668</ele>
        <time>2018-08-15T11:16:29Z</time>
      </trkpt>
      <trkpt lat="45.11387" lon="6.42363">
        <ele>1791.7983</ele>
        <time>2018-08-15T11:16:35Z</time>
      </trkpt>
      <trkpt lat="45.11453" lon="6.42361">
        <ele>1786.6237</ele>
        <time>2018-08-15T11:16:41Z</time>
      </trkpt>
      <trkpt lat="45.11512" lon="6.42317">
        <ele>1779.9032</ele>
        <time>2018-08-15T11:16:47Z</time>
      </trkpt>
      <trkpt lat="45.1155" lon="6.42228">
        <ele>1774.0542</ele>
        <time>2018-08-15T11:16:53Z</time>
      </trkpt>
      <trkpt lat="45.11585" lon="6.4216">
        <ele>1769.5414</ele>
        <time>2018-08-15T11:16:58Z</time>
      </trkpt>
      <trkpt lat="45.11648" lon="6.42113">
        <ele>1762.4098</ele>
        <time>2018-08-15T11:17:04Z</time>
      </trkpt>
      <trkpt lat="45.11707" lon="6.4206">
        <ele>1755.9009</ele>
        <time>2018-08-15T11:17:10Z</time>
      </trkpt>
      <trkpt lat="45.11757" lon="6.42002">
        <ele>1748.5762</ele>
        <time>2018-08-15T11:17:16Z</time>
      </trkpt>
      <trkpt lat="45.11808" lon="6.41943">
        <ele>1740.465</ele>
        <time>2018-08-15T11:17:22Z</time>
      </trkpt>
      <trkpt lat="45.11845" lon="6.41883">
        <ele>1734.8014</ele>
        <time>2018-08-15T11:17:27Z</time>
      </trkpt>
      <trkpt lat="45.11883" lon="6.41818">
        <ele>1729.936</ele>
        <time>2018-08-15T11:17:32Z</time>
      </trkpt>
      <trkpt lat="45.11949" lon="6.41794">
        <ele>1723.7454</ele>
        <time>2018-08-15T11:17:38Z</time>
      </trkpt>
      <trkpt lat="45.1201" lon="6.41792">
        <ele>1719.213</ele>
        <time>2018-08-15T11:17:43Z</time>
      </trkpt>
      <trkpt lat="45.12074" lon="6.41791">
        <ele>1714.0204</ele>
        <time>2018-08-15T11:17:48Z</time>
      </trkpt>
      <trkpt lat="45.12153" lon="6.41786">
        <ele>1709.1346</ele>
        <time>2018-08-15T11:17:54Z</time>
      </trkpt>
      <trkpt lat="45.12218" lon="6.41784">
        <ele>1706.1091</ele>
        <time>2018-08-15T11:17:59Z</time>
      </trkpt>
      <trkpt lat="45.12276" lon="6.41812">
        <ele>1702.4717</ele>
        <time>2018-08-15T11:18:04Z</time>
      </trkpt>
      <trkpt lat="45.1234" lon="6.41851">
        <ele>1697.2036</ele>
        <time>2018-08-15T11:18:10Z</time>
      </trkpt>
      <trkpt lat="45.12392" lon="6.41896">
        <ele>1691.4954</ele>
        <time>2018-08-15T11:18:16Z</time>
      </trkpt>
      <trkpt lat="45.12406" lon="6.41868">
        <ele>1687.0796</ele>
        <time>2018-08-15T11:18:21Z</time>
      </trkpt>
      <trkpt lat="45.12383" lon="6.41798">
        <ele>1682.473</ele>
        <time>2018-08-15T11:18:27Z</time>
      </trkpt>
      <trkpt lat="45.12382" lon="6.41762">
        <ele>1678.3367</ele>
        <time>2018-08-15T11:18:32Z</time>
      </trkpt>
      <trkpt lat="45.12439" lon="6.41799">
        <ele>1668.8134</ele>
        <time>2018-08-15T11:18:38Z</time>
      </trkpt>
      <trkpt lat="45.12497" lon="6.41862">
        <ele>1658.586</ele>
        <time>2018-08-15T11:18:44Z</time>
      </trkpt>
      <trkpt lat="45.12574" lon="6.41868">
        <ele>1650.9473</ele>
        <time>2018-08-15T11:18:50Z</time>
      </trkpt>
      <trkpt lat="45.12645" lon="6.41868">
        <ele>1645.8103</ele>
        <time>2018-08-15T11:18:56Z</time>
      </trkpt>
      <trkpt lat="45.12713" lon="6.41864">
        <ele>1639.6483</ele>
        <time>2018-08-15T11:19:02Z</time>
      </trkpt>
      <trkpt lat="45.12773" lon="6.41854">
        <ele>1633.1449</ele>
        <time>2018-08-15T11:19:08Z</time>
      </trkpt>
      <trkpt lat="45.12831" lon="6.41843">
        <ele>1627.8116</ele>
        <time>2018-08-15T11:19:14Z</time>
      </trkpt>
      <trkpt lat="45.12878" lon="6.4184">
        <ele>1623.8864</ele>
        <time>2018-08-15T11:19:19Z</time>
      </trkpt>
      <trkpt lat="45.12936" lon="6.41838">
        <ele>1619.7502</ele>
        <time>2018-08-15T11:19:25Z</time>
      </trkpt>
      <trkpt lat="45.12993" lon="6.41837">
        <ele>1616.2183</ele>
        <time>2018-08-15T11:19:31Z</time>
      </trkpt>
      <trkpt lat="45.13047" lon="6.41839">
        <ele>1612.7567</ele>
        <time>2018-08-15T11:19:37Z</time>
      </trkpt>
      <trkpt lat="45.13097" lon="6.41849">
        <ele>1609.5342</ele>
        <time>2018-08-15T11:19:43Z</time>
      </trkpt>
      <trkpt lat="45.13137" lon="6.41858">
        <ele>1607.3318</ele>
        <time>2018-08-15T11:19:48Z</time>
      </trkpt>
      <trkpt lat="45.13183" lon="6.41865">
        <ele>1605.5925</ele>
        <time>2018-08-15T11:19:54Z</time>
      </trkpt>
      <trkpt lat="45.1322" lon="6.41875">
        <ele>1604.4976</ele>
        <time>2018-08-15T11:19:59Z</time>
      </trkpt>
      <trkpt lat="45.13265" lon="6.41887">
        <ele>1603.0477</ele>
        <time>2018-08-15T11:20:05Z</time>
      </trkpt>
      <trkpt lat="45.1331" lon="6.41901">
        <ele>1601.7058</ele>
        <time>2018-08-15T11:20:11Z</time>
      </trkpt>
      <trkpt lat="45.13356" lon="6.41914">
        <ele>1600.5399</ele>
        <time>2018-08-15T11:20:17Z</time>
      </trkpt>
      <trkpt lat="45.13402" lon="6.41929">
        <ele>1599.3638</ele>
        <time>2018-08-15T11:20:23Z</time>
      </trkpt>
      <trkpt lat="45.13447" lon="6.41941">
        <ele>1598.1597</ele>
        <time>2018-08-15T11:20:29Z</time>
      </trkpt>
      <trkpt lat="45.1349" lon="6.41954">
        <ele>1597.0258</ele>
        <time>2018-08-15T11:20:35Z</time>
      </trkpt>
      <trkpt lat="45.13531" lon="6.41966">
        <ele>1596.1257</ele>
        <time>2018-08-15T11:20:41Z</time>
      </trkpt>
      <trkpt lat="45.1357" lon="6.41976">
        <ele>1595.5272</ele>
        <time>2018-08-15T11:20:47Z</time>
      </trkpt>
      <trkpt lat="45.13602" lon="6.41983">
        <ele>1595.3441</ele>
        <time>2018-08-15T11:20:52Z</time>
      </trkpt>
      <trkpt lat="45.1364" lon="6.41986">
        <ele>1595.4641</ele>
        <time>2018-08-15T11:20:58Z</time>
      </trkpt>
      <trkpt lat="45.13676" lon="6.41988">
        <ele>1595.7206</ele>
        <time>2018-08-15T11:21:04Z</time>
      </trkpt>
      <trkpt lat="45.13702" lon="6.41971">
        <ele>1595.4901</ele>
        <time>2018-08-15T11:21:09Z</time>
      </trkpt>
      <trkpt lat="45.13733" lon="6.41946">
        <ele>1594.999</ele>
        <time>2018-08-15T11:21:15Z</time>
      </trkpt>
      <trkpt lat="45.1377" lon="6.41966">
        <ele>1593.9897</ele>
        <time>2018-08-15T11:21:21Z</time>
      </trkpt>
      <trkpt lat="45.13813" lon="6.41981">
        <ele>1592.4688</ele>
        <time>2018-08-15T11:21:27Z</time>
      </trkpt>
      <trkpt lat="45.13851" lon="6.41993">
        <ele>1591.0701</ele>
        <time>2018-08-15T11:21:32Z</time>
      </trkpt>
      <trkpt lat="45.139" lon="6.41997">
        <ele>1589.3478</ele>
        <time>2018-08-15T11:21:38Z</time>
      </trkpt>
      <trkpt lat="45.13953" lon="6.41992">
        <ele>1587.565</ele>
        <time>2018-08-15T11:21:44Z</time>
      </trkpt>
      <trkpt lat="45.13998" lon="6.4199">
        <ele>1585.8057</ele>
        <time>2018-08-15T11:21:49Z</time>
      </trkpt>
      <trkpt lat="45.14052" lon="6.41986">
        <ele>1584.0382</ele>
        <time>2018-08-15T11:21:55Z</time>
      </trkpt>
      <trkpt lat="45.14102" lon="6.41984">
        <ele>1582.5165</ele>
        <time>2018-08-15T11:22:01Z</time>
      </trkpt>
      <trkpt lat="45.14149" lon="6.41981">
        <ele>1580.9982</ele>
        <time>2018-08-15T11:22:07Z</time>
      </trkpt>
      <trkpt lat="45.14187" lon="6.4198">
        <ele>1580.3137</ele>
        <time>2018-08-15T11:22:12Z</time>
      </trkpt>
      <trkpt lat="45.14224" lon="6.4198">
        <ele>1579.6729</ele>
        <time>2018-08-15T11:22:17Z</time>
      </trkpt>
      <trkpt lat="45.14267" lon="6.41981">
        <ele>1578.9773</ele>
        <time>2018-08-15T11:22:23Z</time>
      </trkpt>
      <trkpt lat="45.1431" lon="6.41982">
        <ele>1577.9601</ele>
        <time>2018-08-15T11:22:29Z</time>
      </trkpt>
      <trkpt lat="45.14353" lon="6.41984">
        <ele>1576.79</ele>
        <time>2018-08-15T11:22:35Z</time>
      </trkpt>
      <trkpt lat="45.14399" lon="6.41984">
        <ele>1575.7952</ele>
        <time>2018-08-15T11:22:41Z</time>
      </trkpt>
      <trkpt lat="45.14438" lon="6.41985">
        <ele>1575.151</ele>
        <time>2018-08-15T11:22:46Z</time>
      </trkpt>
      <trkpt lat="45.14477" lon="6.41987">
        <ele>1574.7166</ele>
        <time>2018-08-15T11:22:51Z</time>
      </trkpt>
      <trkpt lat="45.14523" lon="6.41993">
        <ele>1574.0326</ele>
        <time>2018-08-15T11:22:57Z</time>
      </trkpt>
      <trkpt lat="45.14566" lon="6.42007">
        <ele>1572.8495</ele>
        <time>2018-08-15T11:23:03Z</time>
      </trkpt>
      <trkpt lat="45.14609" lon="6.42017">
        <ele>1571.2852</ele>
        <time>2018-08-15T11:23:09Z</time>
      </trkpt>
      <trkpt lat="45.14652" lon="6.42026">
        <ele>1569.819</ele>
        <time>2018-08-15T11:23:15Z</time>
      </trkpt>
      <trkpt lat="45.14686" lon="6.42034">
        <ele>1568.6215</ele>
        <time>2018-08-15T11:23:20Z</time>
      </trkpt>
      <trkpt lat="45.14718" lon="6.42031">
        <ele>1567.6853</ele>
        <time>2018-08-15T11:23:25Z</time>
      </trkpt>
      <trkpt lat="45.14754" lon="6.42029">
        <ele>1566.7166</ele>
        <time>2018-08-15T11:23:31Z</time>
      </trkpt>
      <trkpt lat="45.1479" lon="6.42038">
        <ele>1566.1093</ele>
        <time>2018-08-15T11:23:37Z</time>
      </trkpt>
      <trkpt lat="45.14819" lon="6.42051">
        <ele>1564.9879</ele>
        <time>2018-08-15T11:23:42Z</time>
      </trkpt>
      <trkpt lat="45.14853" lon="6.4206">
        <ele>1562.9078</ele>
        <time>2018-08-15T11:23:48Z</time>
      </trkpt>
      <trkpt lat="45.14888" lon="6.42054">
        <ele>1561.0311</ele>
        <time>2018-08-15T11:23:54Z</time>
      </trkpt>
      <trkpt lat="45.14925" lon="6.42056">
        <ele>1559.4736</ele>
        <time>2018-08-15T11:23:59Z</time>
      </trkpt>
      <trkpt lat="45.14976" lon="6.42053">
        <ele>1559.1084</ele>
        <time>2018-08-15T11:24:05Z</time>
      </trkpt>
      <trkpt lat="45.15017" lon="6.42047">
        <ele>1558.7941</ele>
        <time>2018-08-15T11:24:10Z</time>
      </trkpt>
      <trkpt lat="45.15069" lon="6.42054">
        <ele>1557.2303</ele>
        <time>2018-08-15T11:24:16Z</time>
      </trkpt>
      <trkpt lat="45.15127" lon="6.42025">
        <ele>1554.9106</ele>
        <time>2018-08-15T11:24:22Z</time>
      </trkpt>
      <trkpt lat="45.15184" lon="6.42036">
        <ele>1552.7725</ele>
        <time>2018-08-15T11:24:27Z</time>
      </trkpt>
      <trkpt lat="45.15244" lon="6.42067">
        <ele>1549.8339</ele>
        <time>2018-08-15T11:24:32Z</time>
      </trkpt>
      <trkpt lat="45.15321" lon="6.42072">
        <ele>1545.5048</ele>
        <time>2018-08-15T11:24:38Z</time>
      </trkpt>
      <trkpt lat="45.15399" lon="6.42077">
        <ele>1542.1724</ele>
        <time>2018-08-15T11:24:44Z</time>
      </trkpt>
      <trkpt lat="45.15459" lon="6.42085">
        <ele>1539.6819</ele>
        <time>2018-08-15T11:24:49Z</time>
      </trkpt>
      <trkpt lat="45.15522" lon="6.42071">
        <ele>1535.8948</ele>
        <time>2018-08-15T11:24:54Z</time>
      </trkpt>
      <trkpt lat="45.15585" lon="6.42066">
        <ele>1529.7423</ele>
        <time>2018-08-15T11:25:00Z</time>
      </trkpt>
      <trkpt lat="45.15658" lon="6.42076">
        <ele>1524.481</ele>
        <time>2018-08-15T11:25:06Z</time>
      </trkpt>
      <trkpt lat="45.1572" lon="6.42095">
        <ele>1520.0087</ele>
        <time>2018-08-15T11:25:11Z</time>
      </trkpt>
      <trkpt lat="45.15795" lon="6.42113">
        <ele>1513.6873</ele>
        <time>2018-08-15T11:25:17Z</time>
      </trkpt>
      <trkpt lat="45.15869" lon="6.42131">
        <ele>1507.3064</ele>
        <time>2018-08-15T11:25:23Z</time>
      </trkpt>
      <trkpt lat="45.15929" lon="6.42144">
        <ele>1501.6908</ele>
        <time>2018-08-15T11:25:28Z</time>
      </trkpt>
      <trkpt lat="45.15998" lon="6.42152">
        <ele>1493.8986</ele>
        <time>2018-08-15T11:25:34Z</time>
      </trkpt>
      <trkpt lat="45.16053" lon="6.42176">
        <ele>1487.5253</ele>
        <time>2018-08-15T11:25:39Z</time>
      </trkpt>
      <trkpt lat="45.16118" lon="6.42187">
        <ele>1479.2903</ele>
        <time>2018-08-15T11:25:45Z</time>
      </trkpt>
      <trkpt lat="45.16169" lon="6.42195">
        <ele>1472.132</ele>
        <time>2018-08-15T11:25:50Z</time>
      </trkpt>
      <trkpt lat="45.16226" lon="6.42216">
        <ele>1463.729</ele>
        <time>2018-08-15T11:25:56Z</time>
      </trkpt>
      <trkpt lat="45.16282" lon="6.42242">
        <ele>1457.3798</ele>
        <time>2018-08-15T11:26:02Z</time>
      </trkpt>
      <trkpt lat="45.1634" lon="6.42259">
        <ele>1452.4744</ele>
        <time>2018-08-15T11:26:08Z</time>
      </trkpt>
      <trkpt lat="45.16391" lon="6.42294">
        <ele>1449.4951</ele>
        <time>2018-08-15T11:26:14Z</time>
      </trkpt>
      <trkpt lat="45.16389" lon="6.42365">
        <ele>1446.8969</ele>
        <time>2018-08-15T11:26:19Z</time>
      </trkpt>
      <trkpt lat="45.16392" lon="6.42433">
        <ele>1443.5509</ele>
        <time>2018-08-15T11:26:25Z</time>
      </trkpt>
      <trkpt lat="45.16413" lon="6.42468">
        <ele>1439.1991</ele>
        <time>2018-08-15T11:26:31Z</time>
      </trkpt>
      <trkpt lat="45.16406" lon="6.42462">
        <ele>1436.7753</ele>
        <time>2018-08-15T11:26:36Z</time>
      </trkpt>
      <trkpt lat="45.16401" lon="6.42514">
        <ele>1432.6378</ele>
        <time>2018-08-15T11:26:42Z</time>
      </trkpt>
      <trkpt lat="45.16406" lon="6.42575">
        <ele>1430.8416</ele>
        <time>2018-08-15T11:26:47Z</time>
      </trkpt>
      <trkpt lat="45.16409" lon="6.42644">
        <ele>1429.2449</ele>
        <time>2018-08-15T11:26:53Z</time>
      </trkpt>
      <trkpt lat="45.16411" lon="6.42704">
        <ele>1427.0538</ele>
        <time>2018-08-15T11:26:59Z</time>
      </trkpt>
      <trkpt lat="45.16411" lon="6.42742">
        <ele>1424.6781</ele>
        <time>2018-08-15T11:27:04Z</time>
      </trkpt>
      <trkpt lat="45.16414" lon="6.42796">
        <ele>1422.4718</ele>
        <time>2018-08-15T11:27:10Z</time>
      </trkpt>
      <trkpt lat="45.16417" lon="6.4285">
        <ele>1420.6511</ele>
        <time>2018-08-15T11:27:16Z</time>
      </trkpt>
      <trkpt lat="45.16421" lon="6.429">
        <ele>1421.1483</ele>
        <time>2018-08-15T11:27:22Z</time>
      </trkpt>
      <trkpt lat="45.16424" lon="6.42943">
        <ele>1421.6815</ele>
        <time>2018-08-15T11:27:28Z</time>
      </trkpt>
      <trkpt lat="45.16422" lon="6.42988">
        <ele>1420.3319</ele>
        <time>2018-08-15T11:27:34Z</time>
      </trkpt>
      <trkpt lat="45.16442" lon="6.43004">
        <ele>1418.2001</ele>
        <time>2018-08-15T11:27:40Z</time>
      </trkpt>
      <trkpt lat="45.16477" lon="6.43">
        <ele>1418.3357</ele>
        <time>2018-08-15T11:27:46Z</time>
      </trkpt>
      <trkpt lat="45.16505" lon="6.42994">
        <ele>1417.1296</ele>
        <time>2018-08-15T11:27:51Z</time>
      </trkpt>
      <trkpt lat="45.16537" lon="6.42997">
        <ele>1415.3649</ele>
        <time>2018-08-15T11:27:57Z</time>
      </trkpt>
      <trkpt lat="45.16547" lon="6.43023">
        <ele>1414.2168</ele>
        <time>2018-08-15T11:28:02Z</time>
      </trkpt>
      <trkpt lat="45.16543" lon="6.43062">
        <ele>1410.4855</ele>
        <time>2018-08-15T11:28:08Z</time>
      </trkpt>
      <trkpt lat="45.16534" lon="6.43106">
        <ele>1409.7064</ele>
        <time>2018-08-15T11:28:14Z</time>
      </trkpt>
      <trkpt lat="45.16523" lon="6.43145">
        <ele>1410.4816</ele>
        <time>2018-08-15T11:28:20Z</time>
      </trkpt>
      <trkpt lat="45.16513" lon="6.43175">
        <ele>1412.0321</ele>
        <time>2018-08-15T11:28:26Z</time>
      </trkpt>
      <trkpt lat="45.16516" lon="6.43197">
        <ele>1412.2029</ele>
        <time>2018-08-15T11:28:32Z</time>
      </trkpt>
      <trkpt lat="45.16535" lon="6.43212">
        <ele>1412.2693</ele>
        <time>2018-08-15T11:28:38Z</time>
      </trkpt>
      <trkpt lat="45.16552" lon="6.43228">
        <ele>1412.2941</ele>
        <time>2018-08-15T11:28:44Z</time>
      </trkpt>
      <trkpt lat="45.1657" lon="6.43239">
        <ele>1412.3046</ele>
        <time>2018-08-15T11:28:50Z</time>
      </trkpt>
      <trkpt lat="45.16585" lon="6.43247">
        <ele>1412.3245</ele>
        <time>2018-08-15T11:28:55Z</time>
      </trkpt>
      <trkpt lat="45.166" lon="6.43256">
        <ele>1412.2689</ele>
        <time>2018-08-15T11:29:01Z</time>
      </trkpt>
      <trkpt lat="45.16613" lon="6.43263">
        <ele>1412.2091</ele>
        <time>2018-08-15T11:29:06Z</time>
      </trkpt>
      <trkpt lat="45.16626" lon="6.43272">
        <ele>1412.1913</ele>
        <time>2018-08-15T11:29:11Z</time>
      </trkpt>
      <trkpt lat="45.16642" lon="6.43283">
        <ele>1412.3344</ele>
        <time>2018-08-15T11:29:17Z</time>
      </trkpt>
      <trkpt lat="45.16658" lon="6.43295">
        <ele>1412.629</ele>
        <time>2018-08-15T11:29:23Z</time>
      </trkpt>
      <trkpt lat="45.1667" lon="6.4331">
        <ele>1413.0099</ele>
        <time>2018-08-15T11:29:28Z</time>
      </trkpt>
      <trkpt lat="45.16678" lon="6.43331">
        <ele>1413.6917</ele>
        <time>2018-08-15T11:29:34Z</time>
      </trkpt>
      <trkpt lat="45.16685" lon="6.43348">
        <ele>1414.3716</ele>
        <time>2018-08-15T11:29:39Z</time>
      </trkpt>
      <trkpt lat="45.16694" lon="6.43366">
        <ele>1415.2527</ele>
        <time>2018-08-15T11:29:45Z</time>
      </trkpt>
      <trkpt lat="45.16701" lon="6.43376">
        <ele>1416.0647</ele>
        <time>2018-08-15T11:29:50Z</time>
      </trkpt>
      <trkpt lat="45.16716" lon="6.43387">
        <ele>1417.085</ele>
        <time>2018-08-15T11:29:56Z</time>
      </trkpt>
      <trkpt lat="45.16725" lon="6.43396">
        <ele>1417.9707</ele>
        <time>2018-08-15T11:30:01Z</time>
      </trkpt>
      <trkpt lat="45.16739" lon="6.43408">
        <ele>1418.991</ele>
        <time>2018-08-15T11:30:06Z</time>
      </trkpt>
      <trkpt lat="45.16754" lon="6.43421">
        <ele>1420.1995</ele>
        <time>2018-08-15T11:30:11Z</time>
      </trkpt>
      <trkpt lat="45.16769" lon="6.43431">
        <ele>1421.843</ele>
        <time>2018-08-15T11:30:17Z</time>
      </trkpt>
      <trkpt lat="45.16785" lon="6.43434">
        <ele>1423.3202</ele>
        <time>2018-08-15T11:30:22Z</time>
      </trkpt>
      <trkpt lat="45.168" lon="6.43437">
        <ele>1424.7885</ele>
        <time>2018-08-15T11:30:27Z</time>
      </trkpt>
      <trkpt lat="45.16816" lon="6.43437">
        <ele>1426.0515</ele>
        <time>2018-08-15T11:30:32Z</time>
      </trkpt>
      <trkpt lat="45.16838" lon="6.43435">
        <ele>1427.361</ele>
        <time>2018-08-15T11:30:38Z</time>
      </trkpt>
      <trkpt lat="45.16852" lon="6.43433">
        <ele>1428.4735</ele>
        <time>2018-08-15T11:30:43Z</time>
      </trkpt>
      <trkpt lat="45.16868" lon="6.43437">
        <ele>1429.7052</ele>
        <time>2018-08-15T11:30:49Z</time>
      </trkpt>
      <trkpt lat="45.16883" lon="6.43447">
        <ele>1430.646</ele>
        <time>2018-08-15T11:30:54Z</time>
      </trkpt>
      <trkpt lat="45.16903" lon="6.43457">
        <ele>1431.708</ele>
        <time>2018-08-15T11:31:00Z</time>
      </trkpt>
      <trkpt lat="45.16921" lon="6.43467">
        <ele>1432.7501</ele>
        <time>2018-08-15T11:31:06Z</time>
      </trkpt>
      <trkpt lat="45.16942" lon="6.43476">
        <ele>1433.9679</ele>
        <time>2018-08-15T11:31:12Z</time>
      </trkpt>
      <trkpt lat="45.16961" lon="6.43475">
        <ele>1434.9108</ele>
        <time>2018-08-15T11:31:17Z</time>
      </trkpt>
      <trkpt lat="45.1698" lon="6.43465">
        <ele>1435.939</ele>
        <time>2018-08-15T11:31:23Z</time>
      </trkpt>
      <trkpt lat="45.16993" lon="6.43452">
        <ele>1436.7012</ele>
        <time>2018-08-15T11:31:28Z</time>
      </trkpt>
      <trkpt lat="45.17008" lon="6.43437">
        <ele>1437.5156</ele>
        <time>2018-08-15T11:31:34Z</time>
      </trkpt>
      <trkpt lat="45.17021" lon="6.43424">
        <ele>1438.1598</ele>
        <time>2018-08-15T11:31:40Z</time>
      </trkpt>
      <trkpt lat="45.17035" lon="6.43412">
        <ele>1438.663</ele>
        <time>2018-08-15T11:31:45Z</time>
      </trkpt>
      <trkpt lat="45.17052" lon="6.43409">
        <ele>1439.4336</ele>
        <time>2018-08-15T11:31:51Z</time>
      </trkpt>
      <trkpt lat="45.17066" lon="6.4341">
        <ele>1440.186</ele>
        <time>2018-08-15T11:31:57Z</time>
      </trkpt>
      <trkpt lat="45.17079" lon="6.4341">
        <ele>1440.7887</ele>
        <time>2018-08-15T11:32:02Z</time>
      </trkpt>
      <trkpt lat="45.17098" lon="6.4341">
        <ele>1441.5266</ele>
        <time>2018-08-15T11:32:08Z</time>
      </trkpt>
      <trkpt lat="45.17119" lon="6.43408">
        <ele>1442.3491</ele>
        <time>2018-08-15T11:32:14Z</time>
      </trkpt>
      <trkpt lat="45.17134" lon="6.43402">
        <ele>1443.0465</ele>
        <time>2018-08-15T11:32:19Z</time>
      </trkpt>
      <trkpt lat="45.17147" lon="6.43395">
        <ele>1443.7307</ele>
        <time>2018-08-15T11:32:24Z</time>
      </trkpt>
      <trkpt lat="45.17164" lon="6.43389">
        <ele>1444.7158</ele>
        <time>2018-08-15T11:32:30Z</time>
      </trkpt>
      <trkpt lat="45.1718" lon="6.43386">
        <ele>1445.6721</ele>
        <time>2018-08-15T11:32:36Z</time>
      </trkpt>
      <trkpt lat="45.17195" lon="6.43383">
        <ele>1446.4542</ele>
        <time>2018-08-15T11:32:42Z</time>
      </trkpt>
      <trkpt lat="45.17211" lon="6.43381">
        <ele>1447.067</ele>
        <time>2018-08-15T11:32:47Z</time>
      </trkpt>
      <trkpt lat="45.17226" lon="6.4338">
        <ele>1447.6472</ele>
        <time>2018-08-15T11:32:52Z</time>
      </trkpt>
      <trkpt lat="45.17243" lon="6.43376">
        <ele>1448.3883</ele>
        <time>2018-08-15T11:32:57Z</time>
      </trkpt>
      <trkpt lat="45.17256" lon="6.43364">
        <ele>1449.4075</ele>
        <time>2018-08-15T11:33:03Z</time>
      </trkpt>
      <trkpt lat="45.17268" lon="6.43347">
        <ele>1450.2125</ele>
        <time>2018-08-15T11:33:09Z</time>
      </trkpt>
      <trkpt lat="45.17276" lon="6.43333">
        <ele>1450.6626</ele>
        <time>2018-08-15T11:33:14Z</time>
      </trkpt>
      <trkpt lat="45.17288" lon="6.43318">
        <ele>1451.1669</ele>
        <time>2018-08-15T11:33:20Z</time>
      </trkpt>
      <trkpt lat="45.173" lon="6.43306">
        <ele>1451.6569</ele>
        <time>2018-08-15T11:33:26Z</time>
      </trkpt>
      <trkpt lat="45.17311" lon="6.43297">
        <ele>1452.2089</ele>
        <time>2018-08-15T11:33:32Z</time>
      </trkpt>
      <trkpt lat="45.17328" lon="6.4329">
        <ele>1452.9426</ele>
        <time>2018-08-15T11:33:38Z</time>
      </trkpt>
      <trkpt lat="45.17345" lon="6.4328">
        <ele>1453.7562</ele>
        <time>2018-08-15T11:33:44Z</time>
      </trkpt>
      <trkpt lat="45.17358" lon="6.43275">
        <ele>1454.5618</ele>
        <time>2018-08-15T11:33:49Z</time>
      </trkpt>
      <trkpt lat="45.17371" lon="6.43273">
        <ele>1455.7385</ele>
        <time>2018-08-15T11:33:55Z</time>
      </trkpt>
      <trkpt lat="45.17382" lon="6.43277">
        <ele>1456.6055</ele>
        <time>2018-08-15T11:34:00Z</time>
      </trkpt>
      <trkpt lat="45.174" lon="6.43286">
        <ele>1457.6665</ele>
        <time>2018-08-15T11:34:06Z</time>
      </trkpt>
      <trkpt lat="45.17414" lon="6.43289">
        <ele>1459.0908</ele>
        <time>2018-08-15T11:34:12Z</time>
      </trkpt>
      <trkpt lat="45.1743" lon="6.4329">
        <ele>1460.6464</ele>
        <time>2018-08-15T11:34:18Z</time>
      </trkpt>
      <trkpt lat="45.17441" lon="6.43293">
        <ele>1461.9325</ele>
        <time>2018-08-15T11:34:23Z</time>
      </trkpt>
      <trkpt lat="45.17453" lon="6.43296">
        <ele>1463.008</ele>
        <time>2018-08-15T11:34:28Z</time>
      </trkpt>
      <trkpt lat="45.17469" lon="6.43298">
        <ele>1464.3757</ele>
        <time>2018-08-15T11:34:34Z</time>
      </trkpt>
      <trkpt lat="45.17485" lon="6.43302">
        <ele>1465.9475</ele>
        <time>2018-08-15T11:34:40Z</time>
      </trkpt>
      <trkpt lat="45.17502" lon="6.43307">
        <ele>1467.058</ele>
        <time>2018-08-15T11:34:46Z</time>
      </trkpt>
      <trkpt lat="45.17518" lon="6.43311">
        <ele>1467.972</ele>
        <time>2018-08-15T11:34:52Z</time>
      </trkpt>
      <trkpt lat="45.17531" lon="6.43319">
        <ele>1468.416</ele>
        <time>2018-08-15T11:34:57Z</time>
      </trkpt>
      <trkpt lat="45.17546" lon="6.43334">
        <ele>1469.0205</ele>
        <time>2018-08-15T11:35:03Z</time>
      </trkpt>
      <trkpt lat="45.1756" lon="6.4335">
        <ele>1469.6228</ele>
        <time>2018-08-15T11:35:08Z</time>
      </trkpt>
      <trkpt lat="45.17573" lon="6.43366">
        <ele>1470.2007</ele>
        <time>2018-08-15T11:35:13Z</time>
      </trkpt>
      <trkpt lat="45.17587" lon="6.43383">
        <ele>1470.8645</ele>
        <time>2018-08-15T11:35:19Z</time>
      </trkpt>
      <trkpt lat="45.17597" lon="6.43392">
        <ele>1471.6062</ele>
        <time>2018-08-15T11:35:24Z</time>
      </trkpt>
      <trkpt lat="45.1761" lon="6.434">
        <ele>1472.5948</ele>
        <time>2018-08-15T11:35:30Z</time>
      </trkpt>
      <trkpt lat="45.17623" lon="6.43405">
        <ele>1473.61</ele>
        <time>2018-08-15T11:35:36Z</time>
      </trkpt>
      <trkpt lat="45.17636" lon="6.4341">
        <ele>1474.6447</ele>
        <time>2018-08-15T11:35:42Z</time>
      </trkpt>
      <trkpt lat="45.17646" lon="6.43412">
        <ele>1475.6473</ele>
        <time>2018-08-15T11:35:47Z</time>
      </trkpt>
      <trkpt lat="45.17659" lon="6.43417">
        <ele>1477.0538</ele>
        <time>2018-08-15T11:35:53Z</time>
      </trkpt>
      <trkpt lat="45.17667" lon="6.43436">
        <ele>1478.2809</ele>
        <time>2018-08-15T11:35:59Z</time>
      </trkpt>
      <trkpt lat="45.17669" lon="6.43452">
        <ele>1478.955</ele>
        <time>2018-08-15T11:36:04Z</time>
      </trkpt>
      <trkpt lat="45.1767" lon="6.43475">
        <ele>1479.5629</ele>
        <time>2018-08-15T11:36:10Z</time>
      </trkpt>
      <trkpt lat="45.17672" lon="6.43499">
        <ele>1480.1228</ele>
        <time>2018-08-15T11:36:16Z</time>
      </trkpt>
      <trkpt lat="45.17674" lon="6.43526">
        <ele>1480.8566</ele>
        <time>2018-08-15T11:36:22Z</time>
      </trkpt>
      <trkpt lat="45.17675" lon="6.43544">
        <ele>1481.7592</ele>
        <time>2018-08-15T11:36:27Z</time>
      </trkpt>
      <trkpt lat="45.17675" lon="6.43562">
        <ele>1482.7075</ele>
        <time>2018-08-15T11:36:32Z</time>
      </trkpt>
      <trkpt lat="45.17677" lon="6.43584">
        <ele>1483.5438</ele>
        <time>2018-08-15T11:36:38Z</time>
      </trkpt>
      <trkpt lat="45.17682" lon="6.43611">
        <ele>1484.3774</ele>
        <time>2018-08-15T11:36:44Z</time>
      </trkpt>
      <trkpt lat="45.17685" lon="6.43636">
        <ele>1485.4341</ele>
        <time>2018-08-15T11:36:50Z</time>
      </trkpt>
      <trkpt lat="45.17689" lon="6.43657">
        <ele>1486.2524</ele>
        <time>2018-08-15T11:36:55Z</time>
      </trkpt>
      <trkpt lat="45.17694" lon="6.43678">
        <ele>1487.0228</ele>
        <time>2018-08-15T11:37:01Z</time>
      </trkpt>
      <trkpt lat="45.177" lon="6.43698">
        <ele>1487.485</ele>
        <time>2018-08-15T11:37:06Z</time>
      </trkpt>
      <trkpt lat="45.17706" lon="6.43721">
        <ele>1488.3331</ele>
        <time>2018-08-15T11:37:12Z</time>
      </trkpt>
      <trkpt lat="45.17711" lon="6.43739">
        <ele>1489.3986</ele>
        <time>2018-08-15T11:37:17Z</time>
      </trkpt>
      <trkpt lat="45.17721" lon="6.43759">
        <ele>1491.0309</ele>
        <time>2018-08-15T11:37:23Z</time>
      </trkpt>
      <trkpt lat="45.1773" lon="6.43775">
        <ele>1492.6119</ele>
        <time>2018-08-15T11:37:29Z</time>
      </trkpt>
      <trkpt lat="45.17743" lon="6.43792">
        <ele>1494.0074</ele>
        <time>2018-08-15T11:37:35Z</time>
      </trkpt>
      <trkpt lat="45.17764" lon="6.43812">
        <ele>1495.1338</ele>
        <time>2018-08-15T11:37:41Z</time>
      </trkpt>
      <trkpt lat="45.17779" lon="6.4383">
        <ele>1496.0748</ele>
        <time>2018-08-15T11:37:47Z</time>
      </trkpt>
      <trkpt lat="45.17788" lon="6.43842">
        <ele>1497.0282</ele>
        <time>2018-08-15T11:37:52Z</time>
      </trkpt>
      <trkpt lat="45.17803" lon="6.43866">
        <ele>1498.38</ele>
        <time>2018-08-15T11:37:58Z</time>
      </trkpt>
      <trkpt lat="45.17812" lon="6.43878">
        <ele>1499.2261</ele>
        <time>2018-08-15T11:38:03Z</time>
      </trkpt>
      <trkpt lat="45.17823" lon="6.43895">
        <ele>1500.4348</ele>
        <time>2018-08-15T11:38:09Z</time>
      </trkpt>
      <trkpt lat="45.17834" lon="6.43908">
        <ele>1501.4161</ele>
        <time>2018-08-15T11:38:14Z</time>
      </trkpt>
      <trkpt lat="45.17853" lon="6.4392">
        <ele>1502.1547</ele>
        <time>2018-08-15T11:38:20Z</time>
      </trkpt>
      <trkpt lat="45.17869" lon="6.43927">
        <ele>1502.6665</ele>
        <time>2018-08-15T11:38:26Z</time>
      </trkpt>
      <trkpt lat="45.17882" lon="6.43928">
        <ele>1503.0504</ele>
        <time>2018-08-15T11:38:31Z</time>
      </trkpt>
      <trkpt lat="45.17901" lon="6.43934">
        <ele>1503.4695</ele>
        <time>2018-08-15T11:38:37Z</time>
      </trkpt>
      <trkpt lat="45.17915" lon="6.43934">
        <ele>1503.7557</ele>
        <time>2018-08-15T11:38:42Z</time>
      </trkpt>
      <trkpt lat="45.17931" lon="6.43935">
        <ele>1504.8774</ele>
        <time>2018-08-15T11:38:48Z</time>
      </trkpt>
      <trkpt lat="45.17952" lon="6.43937">
        <ele>1506.3467</ele>
        <time>2018-08-15T11:38:54Z</time>
      </trkpt>
      <trkpt lat="45.17968" lon="6.43936">
        <ele>1507.7031</ele>
        <time>2018-08-15T11:39:00Z</time>
      </trkpt>
      <trkpt lat="45.17981" lon="6.43933">
        <ele>1508.8507</ele>
        <time>2018-08-15T11:39:05Z</time>
      </trkpt>
      <trkpt lat="45.17999" lon="6.43928">
        <ele>1510.0267</ele>
        <time>2018-08-15T11:39:11Z</time>
      </trkpt>
      <trkpt lat="45.18019" lon="6.43937">
        <ele>1511.1254</ele>
        <time>2018-08-15T11:39:17Z</time>
      </trkpt>
      <trkpt lat="45.18031" lon="6.43951">
        <ele>1511.9562</ele>
        <time>2018-08-15T11:39:22Z</time>
      </trkpt>
      <trkpt lat="45.18044" lon="6.43964">
        <ele>1512.8693</ele>
        <time>2018-08-15T11:39:28Z</time>
      </trkpt>
      <trkpt lat="45.18061" lon="6.43968">
        <ele>1513.8226</ele>
        <time>2018-08-15T11:39:34Z</time>
      </trkpt>
      <trkpt lat="45.18078" lon="6.43967">
        <ele>1514.524</ele>
        <time>2018-08-15T11:39:39Z</time>
      </trkpt>
      <trkpt lat="45.18095" lon="6.43959">
        <ele>1515.4823</ele>
        <time>2018-08-15T11:39:45Z</time>
      </trkpt>
      <trkpt lat="45.18112" lon="6.4395">
        <ele>1516.6335</ele>
        <time>2018-08-15T11:39:51Z</time>
      </trkpt>
      <trkpt lat="45.18127" lon="6.43943">
        <ele>1517.6019</ele>
        <time>2018-08-15T11:39:56Z</time>
      </trkpt>
      <trkpt lat="45.18143" lon="6.43939">
        <ele>1518.656</ele>
        <time>2018-08-15T11:40:02Z</time>
      </trkpt>
      <trkpt lat="45.18161" lon="6.43928">
        <ele>1519.7845</ele>
        <time>2018-08-15T11:40:08Z</time>
      </trkpt>
      <trkpt lat="45.18174" lon="6.43921">
        <ele>1520.8434</ele>
        <time>2018-08-15T11:40:13Z</time>
      </trkpt>
      <trkpt lat="45.18192" lon="6.43913">
        <ele>1522.0159</ele>
        <time>2018-08-15T11:40:19Z</time>
      </trkpt>
      <trkpt lat="45.18205" lon="6.43909">
        <ele>1522.9785</ele>
        <time>2018-08-15T11:40:24Z</time>
      </trkpt>
      <trkpt lat="45.18224" lon="6.43901">
        <ele>1524.0269</ele>
        <time>2018-08-15T11:40:30Z</time>
      </trkpt>
      <trkpt lat="45.18239" lon="6.43894">
        <ele>1525.0308</ele>
        <time>2018-08-15T11:40:35Z</time>
      </trkpt>
      <trkpt lat="45.18259" lon="6.43889">
        <ele>1526.4208</ele>
        <time>2018-08-15T11:40:41Z</time>
      </trkpt>
      <trkpt lat="45.1828" lon="6.43891">
        <ele>1529.9249</ele>
        <time>2018-08-15T11:40:47Z</time>
      </trkpt>
      <trkpt lat="45.18303" lon="6.439">
        <ele>1534.1445</ele>
        <time>2018-08-15T11:40:53Z</time>
      </trkpt>
      <trkpt lat="45.18331" lon="6.43896">
        <ele>1538.9023</ele>
        <time>2018-08-15T11:40:59Z</time>
      </trkpt>
      <trkpt lat="45.18358" lon="6.43876">
        <ele>1539.3256</ele>
        <time>2018-08-15T11:41:05Z</time>
      </trkpt>
      <trkpt lat="45.18381" lon="6.43853">
        <ele>1536.4546</ele>
        <time>2018-08-15T11:41:11Z</time>
      </trkpt>
      <trkpt lat="45.1841" lon="6.43843">
        <ele>1536.022</ele>
        <time>2018-08-15T11:41:17Z</time>
      </trkpt>
      <trkpt lat="45.18441" lon="6.43835">
        <ele>1536.3651</ele>
        <time>2018-08-15T11:41:23Z</time>
      </trkpt>
      <trkpt lat="45.18467" lon="6.43833">
        <ele>1537.4166</ele>
        <time>2018-08-15T11:41:28Z</time>
      </trkpt>
      <trkpt lat="45.18498" lon="6.43843">
        <ele>1538.3408</ele>
        <time>2018-08-15T11:41:34Z</time>
      </trkpt>
      <trkpt lat="45.18527" lon="6.43857">
        <ele>1538.0599</ele>
        <time>2018-08-15T11:41:39Z</time>
      </trkpt>
      <trkpt lat="45.18552" lon="6.43881">
        <ele>1537.158</ele>
        <time>2018-08-15T11:41:45Z</time>
      </trkpt>
      <trkpt lat="45.18573" lon="6.43899">
        <ele>1537.0089</ele>
        <time>2018-08-15T11:41:50Z</time>
      </trkpt>
      <trkpt lat="45.18604" lon="6.43914">
        <ele>1537.9784</ele>
        <time>2018-08-15T11:41:56Z</time>
      </trkpt>
      <trkpt lat="45.18638" lon="6.43927">
        <ele>1540.9001</ele>
        <time>2018-08-15T11:42:02Z</time>
      </trkpt>
      <trkpt lat="45.18669" lon="6.43937">
        <ele>1540.5907</ele>
        <time>2018-08-15T11:42:07Z</time>
      </trkpt>
      <trkpt lat="45.18707" lon="6.43941">
        <ele>1541.3562</ele>
        <time>2018-08-15T11:42:13Z</time>
      </trkpt>
      <trkpt lat="45.18736" lon="6.43948">
        <ele>1542.8137</ele>
        <time>2018-08-15T11:42:18Z</time>
      </trkpt>
      <trkpt lat="45.1876" lon="6.43954">
        <ele>1544.352</ele>
        <time>2018-08-15T11:42:23Z</time>
      </trkpt>
      <trkpt lat="45.1879" lon="6.43963">
        <ele>1545.9569</ele>
        <time>2018-08-15T11:42:29Z</time>
      </trkpt>
      <trkpt lat="45.18821" lon="6.43974">
        <ele>1546.2853</ele>
        <time>2018-08-15T11:42:35Z</time>
      </trkpt>
      <trkpt lat="45.18845" lon="6.43981">
        <ele>1547.6698</ele>
        <time>2018-08-15T11:42:41Z</time>
      </trkpt>
      <trkpt lat="45.18874" lon="6.43991">
        <ele>1548.9218</ele>
        <time>2018-08-15T11:42:47Z</time>
      </trkpt>
      <trkpt lat="45.18894" lon="6.44006">
        <ele>1549.923</ele>
        <time>2018-08-15T11:42:52Z</time>
      </trkpt>
      <trkpt lat="45.18914" lon="6.44025">
        <ele>1551.3442</ele>
        <time>2018-08-15T11:42:57Z</time>
      </trkpt>
      <trkpt lat="45.18944" lon="6.44045">
        <ele>1551.6174</ele>
        <time>2018-08-15T11:43:03Z</time>
      </trkpt>
      <trkpt lat="45.18971" lon="6.44053">
        <ele>1552.0822</ele>
        <time>2018-08-15T11:43:08Z</time>
      </trkpt>
      <trkpt lat="45.19002" lon="6.44056">
        <ele>1553.214</ele>
        <time>2018-08-15T11:43:14Z</time>
      </trkpt>
      <trkpt lat="45.19029" lon="6.44049">
        <ele>1553.373</ele>
        <time>2018-08-15T11:43:19Z</time>
      </trkpt>
      <trkpt lat="45.19057" lon="6.44048">
        <ele>1553.1812</ele>
        <time>2018-08-15T11:43:25Z</time>
      </trkpt>
      <trkpt lat="45.19087" lon="6.44046">
        <ele>1552.9319</ele>
        <time>2018-08-15T11:43:31Z</time>
      </trkpt>
      <trkpt lat="45.19111" lon="6.44049">
        <ele>1553.2767</ele>
        <time>2018-08-15T11:43:36Z</time>
      </trkpt>
      <trkpt lat="45.19138" lon="6.44059">
        <ele>1554.4972</ele>
        <time>2018-08-15T11:43:42Z</time>
      </trkpt>
      <trkpt lat="45.19163" lon="6.44064">
        <ele>1555.4238</ele>
        <time>2018-08-15T11:43:48Z</time>
      </trkpt>
      <trkpt lat="45.19187" lon="6.44064">
        <ele>1556.5895</ele>
        <time>2018-08-15T11:43:54Z</time>
      </trkpt>
      <trkpt lat="45.19214" lon="6.44068">
        <ele>1558.4062</ele>
        <time>2018-08-15T11:44:00Z</time>
      </trkpt>
      <trkpt lat="45.19237" lon="6.44075">
        <ele>1558.257</ele>
        <time>2018-08-15T11:44:06Z</time>
      </trkpt>
      <trkpt lat="45.19255" lon="6.44086">
        <ele>1557.9956</ele>
        <time>2018-08-15T11:44:11Z</time>
      </trkpt>
      <trkpt lat="45.19276" lon="6.44105">
        <ele>1558.5636</ele>
        <time>2018-08-15T11:44:17Z</time>
      </trkpt>
      <trkpt lat="45.19292" lon="6.44123">
        <ele>1559.526</ele>
        <time>2018-08-15T11:44:22Z</time>
      </trkpt>
      <trkpt lat="45.1931" lon="6.4414">
        <ele>1560.9971</ele>
        <time>2018-08-15T11:44:27Z</time>
      </trkpt>
      <trkpt lat="45.19329" lon="6.44153">
        <ele>1561.3198</ele>
        <time>2018-08-15T11:44:32Z</time>
      </trkpt>
      <trkpt lat="45.19354" lon="6.44163">
        <ele>1562.3346</ele>
        <time>2018-08-15T11:44:38Z</time>
      </trkpt>
      <trkpt lat="45.19379" lon="6.44176">
        <ele>1562.8894</ele>
        <time>2018-08-15T11:44:44Z</time>
      </trkpt>
      <trkpt lat="45.19402" lon="6.44184">
        <ele>1563.2739</ele>
        <time>2018-08-15T11:44:49Z</time>
      </trkpt>
      <trkpt lat="45.19427" lon="6.44185">
        <ele>1563.4028</ele>
        <time>2018-08-15T11:44:54Z</time>
      </trkpt>
      <trkpt lat="45.19456" lon="6.44186">
        <ele>1563.735</ele>
        <time>2018-08-15T11:45:00Z</time>
      </trkpt>
      <trkpt lat="45.19484" lon="6.44191">
        <ele>1563.7008</ele>
        <time>2018-08-15T11:45:06Z</time>
      </trkpt>
      <trkpt lat="45.19506" lon="6.44197">
        <ele>1562.974</ele>
        <time>2018-08-15T11:45:11Z</time>
      </trkpt>
      <trkpt lat="45.19532" lon="6.44208">
        <ele>1562.2043</ele>
        <time>2018-08-15T11:45:17Z</time>
      </trkpt>
      <trkpt lat="45.19552" lon="6.44218">
        <ele>1562.3323</ele>
        <time>2018-08-15T11:45:22Z</time>
      </trkpt>
      <trkpt lat="45.19571" lon="6.44228">
        <ele>1562.5233</ele>
        <time>2018-08-15T11:45:27Z</time>
      </trkpt>
      <trkpt lat="45.19592" lon="6.44236">
        <ele>1562.1044</ele>
        <time>2018-08-15T11:45:32Z</time>
      </trkpt>
      <trkpt lat="45.19616" lon="6.44239">
        <ele>1562.3202</ele>
        <time>2018-08-15T11:45:38Z</time>
      </trkpt>
      <trkpt lat="45.19642" lon="6.44238">
        <ele>1562.7306</ele>
        <time>2018-08-15T11:45:44Z</time>
      </trkpt>
      <trkpt lat="45.19671" lon="6.44237">
        <ele>1564.6445</ele>
        <time>2018-08-15T11:45:49Z</time>
      </trkpt>
      <trkpt lat="45.19698" lon="6.44242">
        <ele>1567.8458</ele>
        <time>2018-08-15T11:45:55Z</time>
      </trkpt>
      <trkpt lat="45.19725" lon="6.44251">
        <ele>1568.8595</ele>
        <time>2018-08-15T11:46:01Z</time>
      </trkpt>
      <trkpt lat="45.19752" lon="6.44258">
        <ele>1571.5955</ele>
        <time>2018-08-15T11:46:07Z</time>
      </trkpt>
      <trkpt lat="45.19778" lon="6.4426">
        <ele>1572.3074</ele>
        <time>2018-08-15T11:46:12Z</time>
      </trkpt>
      <trkpt lat="45.19816" lon="6.44268">
        <ele>1572.0048</ele>
        <time>2018-08-15T11:46:18Z</time>
      </trkpt>
      <trkpt lat="45.1986" lon="6.44288">
        <ele>1572.4894</ele>
        <time>2018-08-15T11:46:24Z</time>
      </trkpt>
      <trkpt lat="45.19912" lon="6.4431">
        <ele>1574.4838</ele>
        <time>2018-08-15T11:46:30Z</time>
      </trkpt>
      <trkpt lat="45.19953" lon="6.4433">
        <ele>1574.6542</ele>
        <time>2018-08-15T11:46:35Z</time>
      </trkpt>
      <trkpt lat="45.19999" lon="6.44348">
        <ele>1574.4778</ele>
        <time>2018-08-15T11:46:41Z</time>
      </trkpt>
      <trkpt lat="45.2004" lon="6.44366">
        <ele>1573.2899</ele>
        <time>2018-08-15T11:46:47Z</time>
      </trkpt>
      <trkpt lat="45.20065" lon="6.4438">
        <ele>1573.5947</ele>
        <time>2018-08-15T11:46:52Z</time>
      </trkpt>
      <trkpt lat="45.20088" lon="6.44391">
        <ele>1573.6603</ele>
        <time>2018-08-15T11:46:58Z</time>
      </trkpt>
      <trkpt lat="45.20107" lon="6.44398">
        <ele>1573.6187</ele>
        <time>2018-08-15T11:47:04Z</time>
      </trkpt>
      <trkpt lat="45.20122" lon="6.44396">
        <ele>1573.6436</ele>
        <time>2018-08-15T11:47:09Z</time>
      </trkpt>
      <trkpt lat="45.20133" lon="6.44391">
        <ele>1573.6664</ele>
        <time>2018-08-15T11:47:14Z</time>
      </trkpt>
      <trkpt lat="45.20147" lon="6.44389">
        <ele>1573.6036</ele>
        <time>2018-08-15T11:47:20Z</time>
      </trkpt>
      <trkpt lat="45.2016" lon="6.44394">
        <ele>1573.3196</ele>
        <time>2018-08-15T11:47:26Z</time>
      </trkpt>
      <trkpt lat="45.20176" lon="6.44399">
        <ele>1572.9586</ele>
        <time>2018-08-15T11:47:32Z</time>
      </trkpt>
      <trkpt lat="45.20193" lon="6.44406">
        <ele>1572.526</ele>
        <time>2018-08-15T11:47:38Z</time>
      </trkpt>
      <trkpt lat="45.20214" lon="6.44415">
        <ele>1571.0433</ele>
        <time>2018-08-15T11:47:43Z</time>
      </trkpt>
      <trkpt lat="45.20238" lon="6.44428">
        <ele>1569.7554</ele>
        <time>2018-08-15T11:47:49Z</time>
      </trkpt>
      <trkpt lat="45.20262" lon="6.44459">
        <ele>1567.8834</ele>
        <time>2018-08-15T11:47:55Z</time>
      </trkpt>
      <trkpt lat="45.20242" lon="6.44492">
        <ele>1566.775</ele>
        <time>2018-08-15T11:48:01Z</time>
      </trkpt>
      <trkpt lat="45.20204" lon="6.44521">
        <ele>1565.1412</ele>
        <time>2018-08-15T11:48:06Z</time>
      </trkpt>
      <trkpt lat="45.20143" lon="6.44524">
        <ele>1562.7665</ele>
        <time>2018-08-15T11:48:12Z</time>
      </trkpt>
      <trkpt lat="45.201" lon="6.44554">
        <ele>1560.8385</ele>
        <time>2018-08-15T11:48:17Z</time>
      </trkpt>
      <trkpt lat="45.20046" lon="6.44517">
        <ele>1558.254</ele>
        <time>2018-08-15T11:48:23Z</time>
      </trkpt>
      <trkpt lat="45.19999" lon="6.44505">
        <ele>1555.1257</ele>
        <time>2018-08-15T11:48:28Z</time>
      </trkpt>
      <trkpt lat="45.19967" lon="6.44571">
        <ele>1552.8368</ele>
        <time>2018-08-15T11:48:34Z</time>
      </trkpt>
      <trkpt lat="45.19917" lon="6.44583">
        <ele>1549.3956</ele>
        <time>2018-08-15T11:48:40Z</time>
      </trkpt>
      <trkpt lat="45.1985" lon="6.4455">
        <ele>1543.8218</ele>
        <time>2018-08-15T11:48:46Z</time>
      </trkpt>
      <trkpt lat="45.19789" lon="6.44571">
        <ele>1539.4363</ele>
        <time>2018-08-15T11:48:51Z</time>
      </trkpt>
      <trkpt lat="45.19717" lon="6.44574">
        <ele>1534.8412</ele>
        <time>2018-08-15T11:48:57Z</time>
      </trkpt>
      <trkpt lat="45.19644" lon="6.44605">
        <ele>1531.0184</ele>
        <time>2018-08-15T11:49:03Z</time>
      </trkpt>
      <trkpt lat="45.19592" lon="6.44688">
        <ele>1526.6881</ele>
        <time>2018-08-15T11:49:09Z</time>
      </trkpt>
      <trkpt lat="45.19531" lon="6.44745">
        <ele>1521.8978</ele>
        <time>2018-08-15T11:49:15Z</time>
      </trkpt>
      <trkpt lat="45.19502" lon="6.44815">
        <ele>1520.1254</ele>
        <time>2018-08-15T11:49:20Z</time>
      </trkpt>
      <trkpt lat="45.19499" lon="6.44917">
        <ele>1515.5952</ele>
        <time>2018-08-15T11:49:26Z</time>
      </trkpt>
      <trkpt lat="45.19451" lon="6.45005">
        <ele>1507.0717</ele>
        <time>2018-08-15T11:49:32Z</time>
      </trkpt>
      <trkpt lat="45.19409" lon="6.45082">
        <ele>1501.0132</ele>
        <time>2018-08-15T11:49:37Z</time>
      </trkpt>
      <trkpt lat="45.19364" lon="6.4518">
        <ele>1496.2495</ele>
        <time>2018-08-15T11:49:43Z</time>
      </trkpt>
      <trkpt lat="45.19358" lon="6.45293">
        <ele>1490.9149</ele>
        <time>2018-08-15T11:49:49Z</time>
      </trkpt>
      <trkpt lat="45.19396" lon="6.45362">
        <ele>1486.8676</ele>
        <time>2018-08-15T11:49:54Z</time>
      </trkpt>
      <trkpt lat="45.19431" lon="6.45437">
        <ele>1483.1823</ele>
        <time>2018-08-15T11:49:59Z</time>
      </trkpt>
      <trkpt lat="45.19466" lon="6.45531">
        <ele>1473.9574</ele>
        <time>2018-08-15T11:50:05Z</time>
      </trkpt>
      <trkpt lat="45.19464" lon="6.45629">
        <ele>1465.4082</ele>
        <time>2018-08-15T11:50:11Z</time>
      </trkpt>
      <trkpt lat="45.19484" lon="6.45719">
        <ele>1458.1198</ele>
        <time>2018-08-15T11:50:17Z</time>
      </trkpt>
      <trkpt lat="45.19471" lon="6.45805">
        <ele>1455.0046</ele>
        <time>2018-08-15T11:50:23Z</time>
      </trkpt>
      <trkpt lat="45.19523" lon="6.45819">
        <ele>1451.0286</ele>
        <time>2018-08-15T11:50:29Z</time>
      </trkpt>
      <trkpt lat="45.19573" lon="6.45822">
        <ele>1447.3724</ele>
        <time>2018-08-15T11:50:34Z</time>
      </trkpt>
      <trkpt lat="45.19629" lon="6.45878">
        <ele>1441.5742</ele>
        <time>2018-08-15T11:50:40Z</time>
      </trkpt>
      <trkpt lat="45.19707" lon="6.45906">
        <ele>1438.0592</ele>
        <time>2018-08-15T11:50:46Z</time>
      </trkpt>
      <trkpt lat="45.19771" lon="6.4591">
        <ele>1434.1952</ele>
        <time>2018-08-15T11:50:51Z</time>
      </trkpt>
      <trkpt lat="45.19832" lon="6.45961">
        <ele>1430.2844</ele>
        <time>2018-08-15T11:50:57Z</time>
      </trkpt>
      <trkpt lat="45.19886" lon="6.46018">
        <ele>1425.038</ele>
        <time>2018-08-15T11:51:03Z</time>
      </trkpt>
      <trkpt lat="45.19915" lon="6.46084">
        <ele>1418.5139</ele>
        <time>2018-08-15T11:51:08Z</time>
      </trkpt>
      <trkpt lat="45.1994" lon="6.46174">
        <ele>1411.3367</ele>
        <time>2018-08-15T11:51:14Z</time>
      </trkpt>
      <trkpt lat="45.19898" lon="6.46239">
        <ele>1406.828</ele>
        <time>2018-08-15T11:51:20Z</time>
      </trkpt>
      <trkpt lat="45.1987" lon="6.46315">
        <ele>1404.423</ele>
        <time>2018-08-15T11:51:25Z</time>
      </trkpt>
      <trkpt lat="45.19846" lon="6.46394">
        <ele>1401.0782</ele>
        <time>2018-08-15T11:51:30Z</time>
      </trkpt>
      <trkpt lat="45.19791" lon="6.46422">
        <ele>1391.1675</ele>
        <time>2018-08-15T11:51:36Z</time>
      </trkpt>
      <trkpt lat="45.19724" lon="6.46433">
        <ele>1381.4562</ele>
        <time>2018-08-15T11:51:42Z</time>
      </trkpt>
      <trkpt lat="45.19682" lon="6.46501">
        <ele>1376.533</ele>
        <time>2018-08-15T11:51:48Z</time>
      </trkpt>
      <trkpt lat="45.19673" lon="6.46569">
        <ele>1371.5646</ele>
        <time>2018-08-15T11:51:53Z</time>
      </trkpt>
      <trkpt lat="45.19653" lon="6.46626">
        <ele>1367.2582</ele>
        <time>2018-08-15T11:51:59Z</time>
      </trkpt>
      <trkpt lat="45.19609" lon="6.46661">
        <ele>1363.7656</ele>
        <time>2018-08-15T11:52:04Z</time>
      </trkpt>
      <trkpt lat="45.19553" lon="6.46694">
        <ele>1359.9849</ele>
        <time>2018-08-15T11:52:10Z</time>
      </trkpt>
      <trkpt lat="45.19524" lon="6.4675">
        <ele>1356.823</ele>
        <time>2018-08-15T11:52:15Z</time>
      </trkpt>
      <trkpt lat="45.19473" lon="6.46776">
        <ele>1353.8029</ele>
        <time>2018-08-15T11:52:20Z</time>
      </trkpt>
      <trkpt lat="45.19414" lon="6.46797">
        <ele>1349.8708</ele>
        <time>2018-08-15T11:52:26Z</time>
      </trkpt>
      <trkpt lat="45.1936" lon="6.46797">
        <ele>1346.918</ele>
        <time>2018-08-15T11:52:31Z</time>
      </trkpt>
      <trkpt lat="45.19337" lon="6.46829">
        <ele>1343.3962</ele>
        <time>2018-08-15T11:52:37Z</time>
      </trkpt>
      <trkpt lat="45.1939" lon="6.46827">
        <ele>1341.3937</ele>
        <time>2018-08-15T11:52:43Z</time>
      </trkpt>
      <trkpt lat="45.19444" lon="6.46879">
        <ele>1336.6566</ele>
        <time>2018-08-15T11:52:49Z</time>
      </trkpt>
      <trkpt lat="45.19502" lon="6.46884">
        <ele>1330.7761</ele>
        <time>2018-08-15T11:52:55Z</time>
      </trkpt>
      <trkpt lat="45.19564" lon="6.46837">
        <ele>1327.3065</ele>
        <time>2018-08-15T11:53:01Z</time>
      </trkpt>
      <trkpt lat="45.19618" lon="6.46783">
        <ele>1324.4475</ele>
        <time>2018-08-15T11:53:06Z</time>
      </trkpt>
      <trkpt lat="45.19685" lon="6.46739">
        <ele>1322.653</ele>
        <time>2018-08-15T11:53:12Z</time>
      </trkpt>
      <trkpt lat="45.19721" lon="6.46689">
        <ele>1321.5991</ele>
        <time>2018-08-15T11:53:17Z</time>
      </trkpt>
      <trkpt lat="45.19717" lon="6.46729">
        <ele>1319.7333</ele>
        <time>2018-08-15T11:53:22Z</time>
      </trkpt>
      <trkpt lat="45.19679" lon="6.46783">
        <ele>1314.901</ele>
        <time>2018-08-15T11:53:28Z</time>
      </trkpt>
      <trkpt lat="45.19641" lon="6.46828">
        <ele>1309.988</ele>
        <time>2018-08-15T11:53:33Z</time>
      </trkpt>
      <trkpt lat="45.19594" lon="6.46853">
        <ele>1306.3385</ele>
        <time>2018-08-15T11:53:39Z</time>
      </trkpt>
      <trkpt lat="45.19607" lon="6.46873">
        <ele>1304.2174</ele>
        <time>2018-08-15T11:53:44Z</time>
      </trkpt>
      <trkpt lat="45.19653" lon="6.4684">
        <ele>1297.2852</ele>
        <time>2018-08-15T11:53:49Z</time>
      </trkpt>
      <trkpt lat="45.19716" lon="6.4683">
        <ele>1291.0103</ele>
        <time>2018-08-15T11:53:54Z</time>
      </trkpt>
      <trkpt lat="45.19774" lon="6.4676">
        <ele>1285.7352</ele>
        <time>2018-08-15T11:54:00Z</time>
      </trkpt>
      <trkpt lat="45.19833" lon="6.46703">
        <ele>1280.8882</ele>
        <time>2018-08-15T11:54:06Z</time>
      </trkpt>
      <trkpt lat="45.19901" lon="6.46701">
        <ele>1276.8508</ele>
        <time>2018-08-15T11:54:11Z</time>
      </trkpt>
      <trkpt lat="45.19954" lon="6.46703">
        <ele>1272.3502</ele>
        <time>2018-08-15T11:54:17Z</time>
      </trkpt>
      <trkpt lat="45.19904" lon="6.46722">
        <ele>1266.9646</ele>
        <time>2018-08-15T11:54:23Z</time>
      </trkpt>
      <trkpt lat="45.19847" lon="6.46742">
        <ele>1263.0123</ele>
        <time>2018-08-15T11:54:29Z</time>
      </trkpt>
      <trkpt lat="45.19807" lon="6.46819">
        <ele>1259.1708</ele>
        <time>2018-08-15T11:54:35Z</time>
      </trkpt>
      <trkpt lat="45.19781" lon="6.46908">
        <ele>1254.5762</ele>
        <time>2018-08-15T11:54:41Z</time>
      </trkpt>
      <trkpt lat="45.1978" lon="6.46953">
        <ele>1250.1902</ele>
        <time>2018-08-15T11:54:46Z</time>
      </trkpt>
      <trkpt lat="45.19795" lon="6.46902">
        <ele>1247.6489</ele>
        <time>2018-08-15T11:54:51Z</time>
      </trkpt>
      <trkpt lat="45.19827" lon="6.46828">
        <ele>1244.086</ele>
        <time>2018-08-15T11:54:57Z</time>
      </trkpt>
      <trkpt lat="45.19883" lon="6.46815">
        <ele>1240.2083</ele>
        <time>2018-08-15T11:55:02Z</time>
      </trkpt>
      <trkpt lat="45.19948" lon="6.46805">
        <ele>1237.4728</ele>
        <time>2018-08-15T11:55:07Z</time>
      </trkpt>
      <trkpt lat="45.20002" lon="6.46774">
        <ele>1235.0951</ele>
        <time>2018-08-15T11:55:12Z</time>
      </trkpt>
      <trkpt lat="45.20069" lon="6.46755">
        <ele>1231.995</ele>
        <time>2018-08-15T11:55:18Z</time>
      </trkpt>
      <trkpt lat="45.20125" lon="6.46721">
        <ele>1227.5701</ele>
        <time>2018-08-15T11:55:23Z</time>
      </trkpt>
      <trkpt lat="45.20181" lon="6.46643">
        <ele>1223.5752</ele>
        <time>2018-08-15T11:55:29Z</time>
      </trkpt>
      <trkpt lat="45.20205" lon="6.46526">
        <ele>1218.2124</ele>
        <time>2018-08-15T11:55:35Z</time>
      </trkpt>
      <trkpt lat="45.20248" lon="6.46441">
        <ele>1211.3568</ele>
        <time>2018-08-15T11:55:40Z</time>
      </trkpt>
      <trkpt lat="45.20287" lon="6.46368">
        <ele>1205.7898</ele>
        <time>2018-08-15T11:55:45Z</time>
      </trkpt>
      <trkpt lat="45.20338" lon="6.4633">
        <ele>1200.7374</ele>
        <time>2018-08-15T11:55:50Z</time>
      </trkpt>
      <trkpt lat="45.20367" lon="6.4625">
        <ele>1194.2269</ele>
        <time>2018-08-15T11:55:56Z</time>
      </trkpt>
      <trkpt lat="45.20355" lon="6.46138">
        <ele>1185.4519</ele>
        <time>2018-08-15T11:56:02Z</time>
      </trkpt>
      <trkpt lat="45.20326" lon="6.46028">
        <ele>1175.0475</ele>
        <time>2018-08-15T11:56:08Z</time>
      </trkpt>
      <trkpt lat="45.20311" lon="6.45933">
        <ele>1167.3074</ele>
        <time>2018-08-15T11:56:13Z</time>
      </trkpt>
      <trkpt lat="45.20257" lon="6.45849">
        <ele>1161.2454</ele>
        <time>2018-08-15T11:56:19Z</time>
      </trkpt>
      <trkpt lat="45.20223" lon="6.45771">
        <ele>1156.508</ele>
        <time>2018-08-15T11:56:24Z</time>
      </trkpt>
      <trkpt lat="45.20158" lon="6.45713">
        <ele>1151.417</ele>
        <time>2018-08-15T11:56:30Z</time>
      </trkpt>
      <trkpt lat="45.20128" lon="6.45643">
        <ele>1145.9686</ele>
        <time>2018-08-15T11:56:36Z</time>
      </trkpt>
      <trkpt lat="45.20179" lon="6.45638">
        <ele>1139.7397</ele>
        <time>2018-08-15T11:56:41Z</time>
      </trkpt>
      <trkpt lat="45.20199" lon="6.45589">
        <ele>1133.6824</ele>
        <time>2018-08-15T11:56:46Z</time>
      </trkpt>
      <trkpt lat="45.20181" lon="6.45504">
        <ele>1123.9147</ele>
        <time>2018-08-15T11:56:52Z</time>
      </trkpt>
      <trkpt lat="45.20243" lon="6.45473">
        <ele>1116.327</ele>
        <time>2018-08-15T11:56:58Z</time>
      </trkpt>
      <trkpt lat="45.2028" lon="6.45414">
        <ele>1110.8384</ele>
        <time>2018-08-15T11:57:03Z</time>
      </trkpt>
      <trkpt lat="45.20297" lon="6.45432">
        <ele>1107.1548</ele>
        <time>2018-08-15T11:57:09Z</time>
      </trkpt>
      <trkpt lat="45.20255" lon="6.45489">
        <ele>1106.6901</ele>
        <time>2018-08-15T11:57:15Z</time>
      </trkpt>
      <trkpt lat="45.20228" lon="6.45555">
        <ele>1107.3798</ele>
        <time>2018-08-15T11:57:21Z</time>
      </trkpt>
      <trkpt lat="45.20281" lon="6.45543">
        <ele>1102.59</ele>
        <time>2018-08-15T11:57:27Z</time>
      </trkpt>
      <trkpt lat="45.20327" lon="6.45498">
        <ele>1098.594</ele>
        <time>2018-08-15T11:57:32Z</time>
      </trkpt>
      <trkpt lat="45.20368" lon="6.45419">
        <ele>1090.7139</ele>
        <time>2018-08-15T11:57:38Z</time>
      </trkpt>
      <trkpt lat="45.20381" lon="6.45338">
        <ele>1084.9423</ele>
        <time>2018-08-15T11:57:43Z</time>
      </trkpt>
      <trkpt lat="45.20448" lon="6.45317">
        <ele>1078.8501</ele>
        <time>2018-08-15T11:57:49Z</time>
      </trkpt>
      <trkpt lat="45.20529" lon="6.45321">
        <ele>1074.7085</ele>
        <time>2018-08-15T11:57:55Z</time>
      </trkpt>
      <trkpt lat="45.20612" lon="6.45334">
        <ele>1068.2874</ele>
        <time>2018-08-15T11:58:01Z</time>
      </trkpt>
      <trkpt lat="45.20695" lon="6.45346">
        <ele>1061.9353</ele>
        <time>2018-08-15T11:58:07Z</time>
      </trkpt>
      <trkpt lat="45.20765" lon="6.45346">
        <ele>1058.3062</ele>
        <time>2018-08-15T11:58:12Z</time>
      </trkpt>
      <trkpt lat="45.20815" lon="6.45413">
        <ele>1053.9467</ele>
        <time>2018-08-15T11:58:17Z</time>
      </trkpt>
      <trkpt lat="45.20863" lon="6.45511">
        <ele>1046.551</ele>
        <time>2018-08-15T11:58:23Z</time>
      </trkpt>
      <trkpt lat="45.209" lon="6.4561">
        <ele>1038.3667</ele>
        <time>2018-08-15T11:58:29Z</time>
      </trkpt>
      <trkpt lat="45.20957" lon="6.45614">
        <ele>1031.8586</ele>
        <time>2018-08-15T11:58:34Z</time>
      </trkpt>
      <trkpt lat="45.20982" lon="6.45527">
        <ele>1027.3241</ele>
        <time>2018-08-15T11:58:40Z</time>
      </trkpt>
      <trkpt lat="45.2103" lon="6.45471">
        <ele>1021.37933</ele>
        <time>2018-08-15T11:58:45Z</time>
      </trkpt>
      <trkpt lat="45.21043" lon="6.45483">
        <ele>1018.143</ele>
        <time>2018-08-15T11:58:51Z</time>
      </trkpt>
      <trkpt lat="45.21013" lon="6.4555">
        <ele>1014.7123</ele>
        <time>2018-08-15T11:58:56Z</time>
      </trkpt>
      <trkpt lat="45.21011" lon="6.45634">
        <ele>1009.1114</ele>
        <time>2018-08-15T11:59:01Z</time>
      </trkpt>
      <trkpt lat="45.21055" lon="6.45723">
        <ele>1001.51044</ele>
        <time>2018-08-15T11:59:07Z</time>
      </trkpt>
      <trkpt lat="45.21072" lon="6.45767">
        <ele>993.811</ele>
        <time>2018-08-15T11:59:12Z</time>
      </trkpt>
      <trkpt lat="45.21014" lon="6.45742">
        <ele>987.89075</ele>
        <time>2018-08-15T11:59:18Z</time>
      </trkpt>
      <trkpt lat="45.20959" lon="6.45755">
        <ele>983.01337</ele>
        <time>2018-08-15T11:59:23Z</time>
      </trkpt>
      <trkpt lat="45.20891" lon="6.45782">
        <ele>974.64056</ele>
        <time>2018-08-15T11:59:29Z</time>
      </trkpt>
      <trkpt lat="45.2082" lon="6.45794">
        <ele>965.7318</ele>
        <time>2018-08-15T11:59:35Z</time>
      </trkpt>
      <trkpt lat="45.20763" lon="6.45819">
        <ele>959.18225</ele>
        <time>2018-08-15T11:59:41Z</time>
      </trkpt>
      <trkpt lat="45.20736" lon="6.45898">
        <ele>952.93823</ele>
        <time>2018-08-15T11:59:47Z</time>
      </trkpt>
      <trkpt lat="45.20718" lon="6.45973">
        <ele>948.14417</ele>
        <time>2018-08-15T11:59:53Z</time>
      </trkpt>
      <trkpt lat="45.20744" lon="6.46023">
        <ele>941.8712</ele>
        <time>2018-08-15T11:59:59Z</time>
      </trkpt>
      <trkpt lat="45.20761" lon="6.46102">
        <ele>934.9763</ele>
        <time>2018-08-15T12:00:04Z</time>
      </trkpt>
      <trkpt lat="45.20788" lon="6.46201">
        <ele>927.32446</ele>
        <time>2018-08-15T12:00:10Z</time>
      </trkpt>
      <trkpt lat="45.20795" lon="6.46283">
        <ele>921.28265</ele>
        <time>2018-08-15T12:00:16Z</time>
      </trkpt>
      <trkpt lat="45.20786" lon="6.46341">
        <ele>918.56036</ele>
        <time>2018-08-15T12:00:21Z</time>
      </trkpt>
      <trkpt lat="45.20809" lon="6.46408">
        <ele>915.99115</ele>
        <time>2018-08-15T12:00:27Z</time>
      </trkpt>
      <trkpt lat="45.20858" lon="6.46426">
        <ele>912.3547</ele>
        <time>2018-08-15T12:00:32Z</time>
      </trkpt>
      <trkpt lat="45.2087" lon="6.46503">
        <ele>906.04803</ele>
        <time>2018-08-15T12:00:38Z</time>
      </trkpt>
      <trkpt lat="45.2088" lon="6.46579">
        <ele>900.4948</ele>
        <time>2018-08-15T12:00:43Z</time>
      </trkpt>
      <trkpt lat="45.20878" lon="6.46676">
        <ele>892.71356</ele>
        <time>2018-08-15T12:00:49Z</time>
      </trkpt>
      <trkpt lat="45.20875" lon="6.46765">
        <ele>885.405</ele>
        <time>2018-08-15T12:00:55Z</time>
      </trkpt>
      <trkpt lat="45.20847" lon="6.46838">
        <ele>879.0389</ele>
        <time>2018-08-15T12:01:00Z</time>
      </trkpt>
      <trkpt lat="45.20787" lon="6.46902">
        <ele>871.97797</ele>
        <time>2018-08-15T12:01:06Z</time>
      </trkpt>
      <trkpt lat="45.20782" lon="6.46941">
        <ele>868.3334</ele>
        <time>2018-08-15T12:01:11Z</time>
      </trkpt>
      <trkpt lat="45.20836" lon="6.46903">
        <ele>864.53076</ele>
        <time>2018-08-15T12:01:17Z</time>
      </trkpt>
      <trkpt lat="45.20896" lon="6.46878">
        <ele>860.0463</ele>
        <time>2018-08-15T12:01:22Z</time>
      </trkpt>
      <trkpt lat="45.20971" lon="6.46837">
        <ele>854.9453</ele>
        <time>2018-08-15T12:01:28Z</time>
      </trkpt>
      <trkpt lat="45.21007" lon="6.46741">
        <ele>850.2476</ele>
        <time>2018-08-15T12:01:34Z</time>
      </trkpt>
      <trkpt lat="45.21015" lon="6.46681">
        <ele>846.0214</ele>
        <time>2018-08-15T12:01:39Z</time>
      </trkpt>
      <trkpt lat="45.21022" lon="6.4675">
        <ele>841.73395</ele>
        <time>2018-08-15T12:01:45Z</time>
      </trkpt>
      <trkpt lat="45.21016" lon="6.46843">
        <ele>836.12366</ele>
        <time>2018-08-15T12:01:51Z</time>
      </trkpt>
      <trkpt lat="45.2099" lon="6.46935">
        <ele>830.40735</ele>
        <time>2018-08-15T12:01:57Z</time>
      </trkpt>
      <trkpt lat="45.21015" lon="6.4694">
        <ele>825.2652</ele>
        <time>2018-08-15T12:02:03Z</time>
      </trkpt>
      <trkpt lat="45.21078" lon="6.46896">
        <ele>819.66925</ele>
        <time>2018-08-15T12:02:09Z</time>
      </trkpt>
      <trkpt lat="45.21145" lon="6.46843">
        <ele>812.6278</ele>
        <time>2018-08-15T12:02:15Z</time>
      </trkpt>
      <trkpt lat="45.21192" lon="6.46774">
        <ele>804.9278</ele>
        <time>2018-08-15T12:02:21Z</time>
      </trkpt>
      <trkpt lat="45.21178" lon="6.46715">
        <ele>797.7923</ele>
        <time>2018-08-15T12:02:27Z</time>
      </trkpt>
      <trkpt lat="45.2114" lon="6.46659">
        <ele>791.5614</ele>
        <time>2018-08-15T12:02:33Z</time>
      </trkpt>
      <trkpt lat="45.21175" lon="6.46637">
        <ele>787.31287</ele>
        <time>2018-08-15T12:02:38Z</time>
      </trkpt>
      <trkpt lat="45.21218" lon="6.46595">
        <ele>781.4189</ele>
        <time>2018-08-15T12:02:44Z</time>
      </trkpt>
      <trkpt lat="45.21252" lon="6.4662">
        <ele>776.8553</ele>
        <time>2018-08-15T12:02:49Z</time>
      </trkpt>
      <trkpt lat="45.21255" lon="6.46679">
        <ele>772.2877</ele>
        <time>2018-08-15T12:02:54Z</time>
      </trkpt>
      <trkpt lat="45.21255" lon="6.46732">
        <ele>768.20374</ele>
        <time>2018-08-15T12:03:00Z</time>
      </trkpt>
      <trkpt lat="45.21287" lon="6.46762">
        <ele>765.8738</ele>
        <time>2018-08-15T12:03:06Z</time>
      </trkpt>
      <trkpt lat="45.21326" lon="6.46771">
        <ele>765.4426</ele>
        <time>2018-08-15T12:03:11Z</time>
      </trkpt>
      <trkpt lat="45.2137" lon="6.46806">
        <ele>765.44696</ele>
        <time>2018-08-15T12:03:17Z</time>
      </trkpt>
      <trkpt lat="45.2141" lon="6.4686">
        <ele>763.69336</ele>
        <time>2018-08-15T12:03:23Z</time>
      </trkpt>
      <trkpt lat="45.21429" lon="6.46913">
        <ele>760.4422</ele>
        <time>2018-08-15T12:03:29Z</time>
      </trkpt>
      <trkpt lat="45.21433" lon="6.46972">
        <ele>757.0626</ele>
        <time>2018-08-15T12:03:35Z</time>
      </trkpt>
      <trkpt lat="45.21411" lon="6.47029">
        <ele>753.46155</ele>
        <time>2018-08-15T12:03:41Z</time>
      </trkpt>
      <trkpt lat="45.21362" lon="6.47034">
        <ele>750.14575</ele>
        <time>2018-08-15T12:03:47Z</time>
      </trkpt>
      <trkpt lat="45.21329" lon="6.47046">
        <ele>748.0298</ele>
        <time>2018-08-15T12:03:52Z</time>
      </trkpt>
      <trkpt lat="45.21337" lon="6.47112">
        <ele>745.2637</ele>
        <time>2018-08-15T12:03:58Z</time>
      </trkpt>
      <trkpt lat="45.21354" lon="6.47172">
        <ele>743.65686</ele>
        <time>2018-08-15T12:04:03Z</time>
      </trkpt>
      <trkpt lat="45.21374" lon="6.47244">
        <ele>741.2646</ele>
        <time>2018-08-15T12:04:09Z</time>
      </trkpt>
      <trkpt lat="45.2142" lon="6.47295">
        <ele>739.16956</ele>
        <time>2018-08-15T12:04:15Z</time>
      </trkpt>
      <trkpt lat="45.21458" lon="6.47338">
        <ele>737.8269</ele>
        <time>2018-08-15T12:04:20Z</time>
      </trkpt>
      <trkpt lat="45.21489" lon="6.47391">
        <ele>732.9533</ele>
        <time>2018-08-15T12:04:25Z</time>
      </trkpt>
      <trkpt lat="45.2152" lon="6.47439">
        <ele>728.9516</ele>
        <time>2018-08-15T12:04:31Z</time>
      </trkpt>
      <trkpt lat="45.21542" lon="6.4747">
        <ele>725.09094</ele>
        <time>2018-08-15T12:04:37Z</time>
      </trkpt>
      <trkpt lat="45.21559" lon="6.47484">
        <ele>723.348</ele>
        <time>2018-08-15T12:04:43Z</time>
      </trkpt>
      <trkpt lat="45.21563" lon="6.47489">
        <ele>723.3264</ele>
        <time>2018-08-15T12:04:53Z</time>
      </trkpt>
      <trkpt lat="45.21579" lon="6.4748">
        <ele>724.07355</ele>
        <time>2018-08-15T12:04:59Z</time>
      </trkpt>
      <trkpt lat="45.21602" lon="6.47443">
        <ele>723.30585</ele>
        <time>2018-08-15T12:05:05Z</time>
      </trkpt>
      <trkpt lat="45.21626" lon="6.47394">
        <ele>721.6052</ele>
        <time>2018-08-15T12:05:11Z</time>
      </trkpt>
      <trkpt lat="45.21656" lon="6.47348">
        <ele>720.30426</ele>
        <time>2018-08-15T12:05:17Z</time>
      </trkpt>
      <trkpt lat="45.21682" lon="6.47302">
        <ele>718.707</ele>
        <time>2018-08-15T12:05:23Z</time>
      </trkpt>
      <trkpt lat="45.21706" lon="6.47259">
        <ele>717.0257</ele>
        <time>2018-08-15T12:05:28Z</time>
      </trkpt>
      <trkpt lat="45.21706" lon="6.47226">
        <ele>716.455</ele>
        <time>2018-08-15T12:05:34Z</time>
      </trkpt>
      <trkpt lat="45.21701" lon="6.47201">
        <ele>716.336</ele>
        <time>2018-08-15T12:05:40Z</time>
      </trkpt>
    </trkseg>
  </trk>
</gpx>